[[{"header":{"parameterUnit":"m.s-1","parameterCategory":1,"la1":31.0,"la2":29.5877,"lo1":-88.7671,"lo2":-86.6584,"dy":0.0162,"dx":0.0185,"nx":115,"ny":88,"refTime":"2023-07-18T12:00:00:Z","depth":0,"parameterNumber":2,"parameterNumberName":"U-component_of_WINDS"},"data":[0.0,0.0,0.0,0.0,0.0,0.0,0.0,0.0,0.0,0.0,0.0,0.0,0.0,0.0,0.0,0.0,0.0,0.0,0.0,0.0,0.0,0.0,0.0,0.0,0.0,0.0,0.0,0.0,0.0,0.0,0.0,0.0,0.0,0.0,0.0,0.0,0.0,0.0,0.0,0.0,0.0,0.0,0.0,0.0,0.0,0.0,0.0,0.0,0.0,0.0,0.0,0.0,0.0,0.0,0.0,0.0,0.0,0.0,0.0,0.0,0.0,0.0,0.0,0.0,0.0,0.0,0.0,0.0,0.0,0.0,0.0,0.0,0.0,0.0,0.0,0.0,0.0,0.0,0.0,0.0,0.0,0.0,0.0,0.0,0.0,0.0,0.0,0.0,0.0,0.0,0.0,0.0,0.0,0.0,0.0,0.0,0.0,0.0,0.0,0.0,0.0,0.0,0.0,0.0,0.0,0.0,0.0,0.0,0.0,0.0,0.0,0.0,0.0,0.0,0.0,0.0,0.0,0.0,0.0,0.0,0.0,0.0,0.0,0.0,0.0,0.0,0.0,0.0,0.0,0.0,0.0,0.0,0.0,0.0,0.0,0.0,0.0,0.0,0.0,0.0,0.0,0.0,0.0,0.0,0.0,0.0,0.0,0.0,0.0,0.0,0.0,0.0,0.0,0.0,0.0,0.0,0.0,0.0,0.0,0.0,0.0,0.0,0.0,0.0,0.0,0.0,0.0,0.0,0.0,0.0,0.0,0.0,0.0,0.0,0.0,0.0,0.0,0.0,0.0,0.0,0.0,0.0,0.0,0.0,0.0,0.0,0.0,0.0,0.0,0.0,0.0,0.0,0.0,0.0,0.0,0.0,0.0,0.0,0.0,0.0,0.0,0.0,0.0,0.0,0.0,0.0,0.0,0.0,0.0,0.0,0.0,0.0,0.0,0.0,0.0,0.0,0.0,0.0,0.0,0.0,0.0,0.0,0.0,0.0,0.0,0.0,0.0,0.0,0.0,0.0,0.0,0.0,0.0,0.0,0.0,0.0,0.0,0.0,0.0,0.0,0.0,0.0,0.0,0.0,0.0,0.0,0.0,0.0,0.0,0.0,0.0,0.0,0.0,0.0,0.0,0.0,0.0,0.0,0.0,0.0,0.0,0.0,0.0,0.0,0.0,0.0,0.0,0.0,0.0,0.0,0.0,0.0,0.0,0.0,0.0,0.0,0.0,0.0,0.0,0.0,0.0,0.0,0.0,0.0,0.0,0.0,0.0,0.0,0.0,0.0,0.0,0.0,0.0,0.0,0.0,0.0,0.0,0.0,0.0,0.0,0.0,0.0,0.0,0.0,0.0,0.0,0.0,0.0,0.0,0.0,0.0,0.0,0.0,0.0,0.0,0.0,0.0,0.0,0.0,0.0,0.0,0.0,0.0,0.0,0.0,0.0,0.0,0.0,0.0,0.0,0.0,0.0,0.0,0.0,0.0,0.0,0.0,0.0,0.0,0.0,0.0,0.0,0.0,0.0,0.0,0.0,0.0,0.0,0.0,0.0,0.0,0.0,0.0,0.0,0.0,0.0,0.0,0.0,0.0,0.0,0.0,0.0,0.0,0.0,0.0,0.0,0.0,0.0,0.0,0.0,0.0,0.0,0.0,0.0,0.0,0.0,0.0,0.0,0.0,0.0,0.0,0.0,0.0,0.0,0.0,0.0,0.0,0.0,0.0,0.0,0.0,0.0,0.0,0.0,0.0,0.0,0.0,0.0,0.0,0.0,0.0,0.0,0.0,0.0,0.0,0.0,0.0,0.0,0.0,0.0,0.0,0.0,0.0,0.0,0.0,0.0,0.0,0.0,0.0,0.0,0.0,0.0,0.0,0.0,0.0,0.0,0.0,0.0,0.0,0.0,0.0,0.0,0.0,0.0,0.0,0.0,0.0,0.0,0.0,0.0,0.0,0.0,0.0,0.0,0.0,0.0,0.0,0.0,0.0,0.0,0.0,0.0,0.0,0.0,0.0,0.0,0.0,0.0,0.0,0.0,0.0,0.0,0.0,0.0,0.0,0.0,0.0,0.0,0.0,0.0,0.0,0.0,0.0,0.0,0.0,0.0,0.0,0.0,0.0,0.0,0.0,0.0,0.0,0.0,0.0,0.0,0.0,0.0,0.0,0.0,0.0,0.0,0.0,0.0,0.0,0.0,0.0,0.0,0.0,0.0,0.0,0.0,0.0,0.0,0.0,0.0,0.0,0.0,0.0,0.0,0.0,0.0,0.0,0.0,0.0,0.0,0.0,0.0,0.0,0.0,0.0,0.0,0.0,0.0,0.0,0.0,0.0,0.0,0.0,0.0,0.0,0.0,0.0,0.0,0.0,0.0,0.0,0.0,0.0,0.0,0.0,0.0,0.0,0.0,0.0,0.0,0.0,0.0,0.0,0.0,0.0,0.0,0.0,0.0,0.0,0.0,0.0,0.0,0.0,0.0,0.0,0.0,0.0,0.0,0.0,0.0,0.0,0.0,0.0,0.0,0.0,0.0,0.0,0.0,0.0,0.0,0.0,0.0,0.0,0.0,0.0,0.0,0.0,0.0,0.0,0.0,0.0,0.0,0.0,0.0,0.0,0.0,0.0,0.0,0.0,0.0,0.0,0.0,0.0,0.0,0.0,0.0,0.0,0.0,0.0,0.0,0.0,0.0,0.0,0.0,0.0,0.0,0.0,0.0,0.0,0.0,0.0,0.0,0.0,0.0,0.0,0.0,0.0,0.0,0.0,0.0,0.0,0.0,0.0,0.0,0.0,0.0,0.0,0.0,0.0,0.0,0.0,0.0,0.0,0.0,0.0,0.0,0.0,0.0,0.0,0.0,0.0,0.0,0.0,0.0,0.0,0.0,0.0,0.0,0.0,0.0,0.0,0.0,0.0,0.0,0.0,0.0,0.0,0.0,0.0,0.0,0.0,0.0,0.0,0.0,0.0,0.0,0.0,0.0,0.0,0.0,0.0,0.0,0.0,0.0,0.0,0.0,0.0,0.0,0.0,0.0,0.0,0.0,0.0,0.0,0.0,0.0,0.0,0.0,0.0,0.0,0.0,0.0,0.0,0.0,0.0,0.0,0.0,0.0,0.0,0.0,0.0,0.0,0.0,0.0,0.0,0.0,0.0,0.0,0.0,0.0,0.0,0.0,0.0,0.0,0.0,0.0,0.0,0.0,0.0,0.0,0.0,0.0,0.0,0.0,0.0,0.0,0.0,0.0,0.0,0.0,0.0,0.0,0.0,0.0,0.0,0.0,0.0,0.0,0.0,0.0,0.0,0.0,0.0,0.0,0.0,0.0,0.0,0.0,0.0,0.0,0.0,0.0,0.0,0.0,0.0,0.0,0.0,0.0,0.0,0.0,0.0,0.0,0.0,0.0,0.0,0.0,0.0,0.0,0.0,0.0,0.0,0.0,0.0,0.0,0.0,0.0,0.0,0.0,0.0,0.0,0.0,0.0,0.0,0.0,0.0,0.0,0.0,0.0,0.0,0.0,0.0,0.0,0.0,0.0,0.0,0.0,0.0,0.0,0.0,0.0,0.0,0.0,0.0,0.0,0.0,0.0,0.0,0.0,0.0,0.0,0.0,0.0,0.0,0.0,0.0,0.0,0.0,0.0,0.0,0.0,0.0,0.0,0.0,0.0,0.0,0.0,0.0,0.0,0.0,0.0,0.0,0.0,0.0,0.0,0.0,0.0,0.0,0.0,0.0,0.0,0.0,0.0,0.0,0.0,0.0,0.0,0.0,0.0,0.0,0.0,0.0,0.0,0.0,0.0,0.0,0.0,0.0,0.0,0.0,0.0,0.0,0.0,0.0,0.0,0.0,0.0,0.0,0.0,0.0,0.0,0.0,0.0,0.0,0.0,0.0,0.0,0.0,0.0,0.0,0.0,0.0,0.0,0.0,0.0,0.0,0.0,0.0,0.0,0.0,0.0,0.0,0.0,0.0,0.0,0.0,0.0,0.0,0.0,0.0,0.0,0.0,0.0,0.0,0.0,0.0,0.0,0.0,0.0,0.0,0.0,0.0,0.0,0.0,0.0,0.0,0.0,0.0,0.0,0.0,0.0,0.0,0.0,0.0,0.0,0.0,0.0,0.0,0.0,0.0,0.0,0.0,0.0,0.0,0.0,0.0,0.0,0.0,0.0,0.0,0.0,0.0,0.0,0.0,0.0,0.0,0.0,0.0,0.0,0.0,0.0,0.0,0.0,0.0,0.0,0.0,0.0,0.0,0.0,0.0,0.0,-4.2668,0.0,0.0,0.0,0.0,0.0,0.0,0.0,0.0,0.0,0.0,0.0,0.0,0.0,0.0,0.0,0.0,0.0,0.0,0.0,0.0,0.0,0.0,0.0,0.0,0.0,0.0,0.0,0.0,0.0,0.0,0.0,0.0,0.0,0.0,0.0,0.0,0.0,0.0,0.0,0.0,0.0,0.0,0.0,0.0,0.0,0.0,0.0,0.0,0.0,0.0,0.0,0.0,0.0,0.0,0.0,0.0,0.0,0.0,0.0,0.0,0.0,0.0,0.0,0.0,0.0,0.0,0.0,0.0,0.0,0.0,0.0,0.0,0.0,0.0,0.0,0.0,0.0,0.0,0.0,0.0,0.0,0.0,0.0,0.0,0.0,0.0,0.0,0.0,0.0,0.0,0.0,0.0,0.0,0.0,0.0,0.0,0.0,0.0,0.0,0.0,0.0,0.0,0.0,0.0,0.0,0.0,0.0,0.0,0.0,0.0,-4.2804,-4.2747,-4.2707,-4.2649,-4.2609,0.0,0.0,0.0,0.0,0.0,0.0,0.0,0.0,0.0,0.0,0.0,0.0,0.0,0.0,0.0,0.0,0.0,0.0,0.0,0.0,0.0,0.0,0.0,0.0,0.0,0.0,0.0,0.0,0.0,0.0,0.0,0.0,0.0,0.0,0.0,0.0,0.0,0.0,0.0,0.0,0.0,0.0,0.0,0.0,0.0,0.0,0.0,0.0,0.0,0.0,0.0,0.0,0.0,0.0,0.0,0.0,0.0,0.0,0.0,0.0,0.0,0.0,0.0,0.0,0.0,0.0,0.0,0.0,0.0,0.0,0.0,0.0,0.0,0.0,0.0,0.0,0.0,0.0,0.0,0.0,0.0,0.0,0.0,0.0,0.0,0.0,0.0,0.0,0.0,0.0,0.0,0.0,0.0,0.0,0.0,0.0,0.0,0.0,0.0,0.0,0.0,0.0,0.0,0.0,0.0,0.0,0.0,0.0,0.0,0.0,0.0,0.0,-4.257,-4.2568,-4.249,0.0,0.0,0.0,0.0,0.0,0.0,0.0,0.0,0.0,0.0,0.0,0.0,0.0,0.0,0.0,0.0,0.0,0.0,0.0,0.0,0.0,0.0,0.0,0.0,0.0,0.0,0.0,0.0,0.0,0.0,0.0,0.0,0.0,0.0,0.0,0.0,0.0,0.0,0.0,0.0,0.0,0.0,0.0,0.0,0.0,0.0,0.0,0.0,0.0,0.0,0.0,0.0,0.0,0.0,0.0,0.0,0.0,0.0,0.0,0.0,0.0,0.0,0.0,0.0,0.0,0.0,0.0,0.0,0.0,0.0,0.0,0.0,0.0,0.0,0.0,0.0,0.0,0.0,0.0,0.0,0.0,0.0,0.0,0.0,0.0,0.0,0.0,0.0,0.0,0.0,0.0,0.0,0.0,0.0,0.0,0.0,0.0,0.0,0.0,0.0,0.0,0.0,0.0,0.0,0.0,0.0,0.0,0.0,0.0,0.0,-4.2568,-4.2503,-4.2503,0.0,-4.2163,0.0,0.0,0.0,0.0,0.0,0.0,0.0,0.0,0.0,0.0,0.0,0.0,0.0,0.0,0.0,0.0,0.0,0.0,0.0,0.0,0.0,0.0,0.0,0.0,0.0,0.0,0.0,0.0,0.0,0.0,0.0,0.0,0.0,0.0,0.0,0.0,0.0,0.0,0.0,0.0,0.0,0.0,0.0,0.0,0.0,0.0,0.0,0.0,0.0,0.0,0.0,0.0,0.0,0.0,0.0,0.0,0.0,0.0,0.0,0.0,0.0,0.0,0.0,0.0,0.0,0.0,0.0,0.0,0.0,0.0,0.0,0.0,0.0,0.0,0.0,0.0,0.0,0.0,0.0,0.0,0.0,0.0,0.0,0.0,0.0,0.0,0.0,0.0,0.0,0.0,0.0,0.0,0.0,0.0,0.0,0.0,0.0,0.0,0.0,0.0,0.0,0.0,0.0,0.0,0.0,0.0,0.0,0.0,0.0,0.0,-4.229,-4.2264,-4.2219,-4.2174,0.0,0.0,0.0,0.0,0.0,0.0,0.0,0.0,0.0,0.0,0.0,0.0,0.0,0.0,0.0,0.0,0.0,0.0,0.0,0.0,0.0,0.0,0.0,0.0,0.0,0.0,0.0,0.0,0.0,0.0,0.0,0.0,0.0,0.0,0.0,0.0,0.0,0.0,0.0,0.0,0.0,0.0,0.0,0.0,0.0,0.0,0.0,0.0,0.0,0.0,0.0,0.0,0.0,0.0,0.0,0.0,0.0,0.0,0.0,0.0,0.0,0.0,0.0,0.0,0.0,0.0,0.0,0.0,0.0,0.0,0.0,0.0,0.0,0.0,0.0,0.0,0.0,0.0,0.0,0.0,0.0,0.0,0.0,0.0,0.0,0.0,0.0,0.0,0.0,0.0,0.0,0.0,0.0,0.0,0.0,0.0,0.0,0.0,0.0,0.0,0.0,0.0,0.0,0.0,0.0,0.0,0.0,0.0,0.0,0.0,-4.2181,-4.2058,-4.2076,-4.197,-4.1945,-4.1945,0.0,0.0,0.0,0.0,0.0,0.0,0.0,0.0,0.0,0.0,0.0,0.0,0.0,0.0,0.0,0.0,0.0,0.0,0.0,0.0,0.0,0.0,0.0,0.0,0.0,0.0,0.0,0.0,0.0,0.0,0.0,0.0,0.0,0.0,0.0,0.0,0.0,0.0,0.0,0.0,0.0,0.0,0.0,0.0,0.0,0.0,0.0,0.0,0.0,0.0,0.0,0.0,0.0,0.0,0.0,0.0,0.0,0.0,0.0,0.0,0.0,0.0,0.0,0.0,0.0,0.0,0.0,0.0,0.0,0.0,0.0,0.0,0.0,0.0,0.0,0.0,0.0,0.0,0.0,0.0,0.0,0.0,0.0,0.0,0.0,0.0,0.0,0.0,0.0,0.0,0.0,0.0,0.0,0.0,0.0,0.0,0.0,0.0,0.0,0.0,0.0,0.0,0.0,0.0,0.0,0.0,0.0,0.0,-4.2044,-4.2023,-4.2023,-4.2005,-4.1862,-4.1801,0.0,0.0,0.0,0.0,0.0,0.0,0.0,0.0,0.0,0.0,0.0,0.0,0.0,0.0,0.0,0.0,0.0,0.0,0.0,0.0,0.0,0.0,0.0,0.0,0.0,0.0,0.0,0.0,0.0,0.0,0.0,0.0,0.0,0.0,0.0,0.0,0.0,0.0,0.0,0.0,0.0,0.0,0.0,0.0,0.0,0.0,0.0,0.0,0.0,0.0,0.0,0.0,0.0,0.0,0.0,0.0,0.0,0.0,0.0,0.0,0.0,0.0,0.0,0.0,0.0,0.0,0.0,0.0,0.0,0.0,0.0,0.0,0.0,0.0,0.0,0.0,0.0,0.0,0.0,0.0,0.0,0.0,0.0,0.0,0.0,0.0,0.0,0.0,0.0,0.0,0.0,0.0,0.0,0.0,0.0,0.0,0.0,0.0,0.0,0.0,0.0,0.0,0.0,0.0,0.0,0.0,0.0,0.0,0.0,-4.2678,-4.2608,-4.2578,-4.2489,-4.1885,-4.1538,0.0,0.0,0.0,0.0,0.0,0.0,0.0,0.0,0.0,0.0,0.0,0.0,0.0,0.0,0.0,0.0,0.0,0.0,0.0,0.0,0.0,0.0,0.0,0.0,0.0,0.0,0.0,0.0,0.0,0.0,0.0,0.0,0.0,0.0,0.0,0.0,0.0,0.0,0.0,0.0,0.0,0.0,0.0,0.0,0.0,0.0,0.0,0.0,0.0,0.0,0.0,0.0,0.0,0.0,0.0,0.0,0.0,0.0,0.0,0.0,0.0,0.0,0.0,0.0,0.0,0.0,0.0,0.0,0.0,0.0,0.0,0.0,0.0,0.0,0.0,0.0,0.0,0.0,0.0,0.0,0.0,0.0,0.0,0.0,0.0,0.0,0.0,0.0,0.0,0.0,0.0,0.0,0.0,0.0,0.0,0.0,0.0,0.0,0.0,0.0,0.0,0.0,0.0,0.0,0.0,0.0,0.0,0.0,0.0,-4.3328,0.0,-4.3137,-4.3062,-4.2212,-4.1742,0.0,0.0,0.0,0.0,0.0,0.0,0.0,0.0,0.0,0.0,0.0,0.0,0.0,0.0,0.0,0.0,0.0,0.0,0.0,0.0,0.0,0.0,0.0,0.0,0.0,0.0,0.0,0.0,0.0,0.0,0.0,0.0,0.0,0.0,0.0,0.0,0.0,0.0,0.0,0.0,0.0,0.0,0.0,0.0,0.0,0.0,0.0,0.0,0.0,0.0,0.0,0.0,0.0,0.0,0.0,0.0,0.0,0.0,0.0,0.0,0.0,0.0,0.0,0.0,0.0,0.0,0.0,0.0,0.0,0.0,0.0,0.0,0.0,0.0,0.0,0.0,0.0,0.0,0.0,0.0,0.0,0.0,0.0,0.0,0.0,0.0,0.0,0.0,0.0,0.0,0.0,0.0,0.0,0.0,0.0,0.0,0.0,0.0,0.0,0.0,0.0,0.0,0.0,0.0,0.0,0.0,0.0,0.0,-4.324,-4.3869,-4.3763,-4.3715,-4.3698,-4.2846,-4.2375,0.0,0.0,0.0,0.0,0.0,0.0,0.0,0.0,0.0,0.0,0.0,0.0,0.0,0.0,0.0,0.0,0.0,0.0,0.0,0.0,0.0,0.0,0.0,0.0,0.0,0.0,0.0,0.0,0.0,0.0,0.0,0.0,0.0,0.0,0.0,0.0,0.0,0.0,0.0,0.0,0.0,0.0,0.0,0.0,0.0,0.0,0.0,0.0,0.0,0.0,0.0,0.0,0.0,0.0,0.0,0.0,0.0,0.0,0.0,0.0,0.0,0.0,0.0,0.0,0.0,0.0,0.0,0.0,0.0,0.0,0.0,0.0,0.0,0.0,0.0,0.0,0.0,0.0,0.0,0.0,0.0,0.0,0.0,0.0,0.0,0.0,0.0,0.0,0.0,0.0,0.0,0.0,0.0,0.0,0.0,0.0,0.0,0.0,0.0,0.0,0.0,0.0,0.0,0.0,0.0,0.0,0.0,0.0,0.0,-4.4447,-4.4415,-4.4391,-4.4338,-4.3016,-4.2267,0.0,0.0,0.0,0.0,0.0,0.0,0.0,0.0,0.0,0.0,0.0,0.0,0.0,0.0,0.0,0.0,0.0,0.0,0.0,0.0,0.0,0.0,0.0,0.0,0.0,0.0,0.0,0.0,0.0,0.0,0.0,0.0,0.0,0.0,0.0,0.0,0.0,0.0,0.0,0.0,0.0,0.0,0.0,0.0,0.0,0.0,0.0,0.0,0.0,0.0,0.0,0.0,0.0,0.0,0.0,0.0,0.0,0.0,0.0,0.0,0.0,0.0,0.0,0.0,0.0,0.0,0.0,0.0,0.0,0.0,0.0,0.0,0.0,0.0,0.0,0.0,0.0,0.0,0.0,0.0,0.0,0.0,0.0,0.0,0.0,0.0,0.0,0.0,0.0,0.0,0.0,0.0,0.0,0.0,0.0,0.0,0.0,0.0,0.0,0.0,0.0,0.0,0.0,0.0,0.0,0.0,0.0,0.0,0.0,-4.4948,-4.4998,-4.5041,-4.5049,-4.3709,-4.2856,-4.258,0.0,0.0,0.0,0.0,0.0,0.0,0.0,0.0,0.0,0.0,0.0,0.0,0.0,0.0,0.0,0.0,0.0,0.0,0.0,0.0,0.0,0.0,0.0,0.0,0.0,0.0,0.0,0.0,0.0,0.0,0.0,0.0,0.0,0.0,0.0,0.0,0.0,0.0,0.0,0.0,0.0,0.0,0.0,0.0,0.0,0.0,0.0,0.0,0.0,0.0,0.0,0.0,0.0,0.0,0.0,0.0,0.0,0.0,0.0,0.0,0.0,0.0,0.0,0.0,0.0,0.0,0.0,0.0,0.0,0.0,0.0,0.0,0.0,0.0,0.0,0.0,0.0,0.0,0.0,0.0,0.0,0.0,0.0,0.0,0.0,0.0,0.0,0.0,0.0,0.0,0.0,0.0,0.0,0.0,0.0,0.0,0.0,0.0,0.0,0.0,0.0,0.0,0.0,0.0,0.0,0.0,0.0,0.0,-4.5414,-4.5528,-4.5589,-4.5546,-4.4742,-4.3949,0.0,0.0,0.0,0.0,0.0,0.0,0.0,0.0,0.0,0.0,0.0,0.0,0.0,0.0,0.0,0.0,0.0,0.0,0.0,0.0,0.0,0.0,0.0,0.0,0.0,0.0,0.0,0.0,0.0,0.0,0.0,0.0,0.0,0.0,0.0,0.0,0.0,0.0,0.0,0.0,0.0,0.0,0.0,0.0,0.0,0.0,0.0,0.0,0.0,0.0,0.0,0.0,0.0,0.0,0.0,0.0,0.0,0.0,0.0,0.0,0.0,0.0,0.0,0.0,0.0,0.0,0.0,0.0,0.0,0.0,0.0,0.0,0.0,0.0,0.0,0.0,0.0,0.0,0.0,0.0,0.0,0.0,0.0,0.0,0.0,0.0,0.0,0.0,0.0,0.0,0.0,0.0,0.0,0.0,0.0,0.0,0.0,0.0,0.0,0.0,0.0,0.0,0.0,0.0,0.0,0.0,0.0,0.0,0.0,-4.5414,-4.5423,-4.545,-4.5432,-4.4708,-4.3949,0.0,0.0,0.0,0.0,0.0,0.0,0.0,0.0,0.0,0.0,0.0,0.0,0.0,0.0,0.0,0.0,0.0,0.0,0.0,0.0,0.0,0.0,0.0,0.0,0.0,0.0,0.0,0.0,0.0,0.0,0.0,0.0,0.0,0.0,0.0,0.0,0.0,0.0,0.0,0.0,0.0,0.0,0.0,0.0,0.0,0.0,0.0,0.0,0.0,0.0,0.0,0.0,0.0,0.0,0.0,0.0,0.0,0.0,0.0,0.0,0.0,0.0,0.0,0.0,0.0,0.0,0.0,0.0,0.0,0.0,0.0,0.0,0.0,0.0,0.0,0.0,0.0,0.0,0.0,0.0,0.0,0.0,0.0,0.0,0.0,0.0,0.0,0.0,0.0,0.0,0.0,0.0,0.0,0.0,0.0,0.0,0.0,0.0,0.0,0.0,0.0,0.0,0.0,0.0,0.0,0.0,0.0,0.0,-4.5414,-4.5414,-4.5414,-4.5414,-4.5414,-4.4992,-4.4397,0.0,0.0,0.0,0.0,0.0,0.0,0.0,0.0,0.0,0.0,0.0,0.0,0.0,0.0,0.0,0.0,0.0,0.0,0.0,0.0,0.0,0.0,0.0,0.0,0.0,0.0,0.0,0.0,0.0,0.0,0.0,0.0,0.0,0.0,0.0,0.0,0.0,0.0,0.0,0.0,0.0,0.0,0.0,0.0,0.0,0.0,0.0,0.0,0.0,0.0,0.0,0.0,0.0,0.0,0.0,0.0,0.0,0.0,0.0,0.0,0.0,0.0,0.0,0.0,0.0,0.0,0.0,0.0,0.0,0.0,0.0,0.0,0.0,0.0,0.0,0.0,0.0,0.0,0.0,0.0,0.0,0.0,0.0,0.0,0.0,0.0,0.0,0.0,0.0,0.0,0.0,0.0,0.0,0.0,0.0,0.0,0.0,0.0,0.0,0.0,0.0,0.0,0.0,0.0,0.0,0.0,0.0,0.0,-4.538,-4.5397,-4.5371,-4.5388,-4.5388,-4.5371,-4.5,0.0,0.0,0.0,0.0,0.0,0.0,0.0,0.0,0.0,0.0,0.0,0.0,0.0,0.0,0.0,0.0,0.0,0.0,0.0,0.0,0.0,0.0,0.0,0.0,0.0,0.0,0.0,0.0,0.0,0.0,0.0,0.0,0.0,0.0,0.0,0.0,0.0,0.0,0.0,0.0,0.0,0.0,0.0,0.0,0.0,0.0,0.0,0.0,0.0,0.0,0.0,0.0,0.0,0.0,0.0,0.0,0.0,0.0,0.0,0.0,0.0,0.0,0.0,0.0,0.0,0.0,0.0,0.0,0.0,0.0,0.0,0.0,0.0,0.0,0.0,0.0,0.0,0.0,0.0,0.0,0.0,0.0,0.0,0.0,0.0,0.0,0.0,0.0,0.0,0.0,0.0,0.0,0.0,0.0,0.0,0.0,0.0,0.0,0.0,0.0,0.0,0.0,0.0,0.0,0.0,0.0,0.0,0.0,-4.5344,-4.523,-4.5264,-4.5194,-4.5086,-4.5177,-4.4877,0.0,0.0,0.0,0.0,0.0,0.0,0.0,0.0,0.0,0.0,0.0,0.0,0.0,0.0,0.0,0.0,0.0,0.0,0.0,0.0,0.0,0.0,0.0,0.0,0.0,0.0,0.0,0.0,0.0,0.0,0.0,0.0,0.0,0.0,0.0,0.0,0.0,0.0,0.0,0.0,0.0,0.0,0.0,0.0,0.0,0.0,0.0,0.0,-3.7314,0.0,0.0,0.0,0.0,0.0,0.0,0.0,0.0,0.0,0.0,0.0,0.0,0.0,0.0,0.0,0.0,0.0,0.0,0.0,0.0,0.0,0.0,0.0,0.0,0.0,0.0,0.0,0.0,0.0,0.0,0.0,0.0,0.0,0.0,0.0,0.0,0.0,0.0,0.0,0.0,0.0,0.0,0.0,0.0,0.0,0.0,0.0,0.0,0.0,0.0,0.0,0.0,0.0,0.0,0.0,0.0,0.0,0.0,0.0,-4.5257,-4.522,-4.5123,-4.5086,-4.5005,-4.5022,-4.4817,0.0,0.0,0.0,0.0,0.0,0.0,0.0,0.0,0.0,0.0,0.0,0.0,0.0,0.0,0.0,0.0,0.0,0.0,0.0,0.0,0.0,0.0,0.0,0.0,0.0,0.0,0.0,0.0,0.0,0.0,0.0,0.0,0.0,0.0,0.0,0.0,0.0,0.0,0.0,0.0,0.0,0.0,0.0,0.0,0.0,0.0,0.0,0.0,0.0,0.0,0.0,0.0,0.0,0.0,0.0,0.0,0.0,0.0,0.0,0.0,0.0,0.0,0.0,0.0,0.0,0.0,0.0,0.0,0.0,0.0,0.0,0.0,0.0,0.0,0.0,0.0,0.0,0.0,0.0,0.0,0.0,0.0,0.0,0.0,0.0,0.0,0.0,0.0,0.0,0.0,0.0,0.0,0.0,0.0,0.0,0.0,0.0,0.0,0.0,0.0,0.0,0.0,0.0,0.0,0.0,0.0,0.0,-4.522,-4.515,-4.514,-4.5049,-4.4951,-4.494,-4.4831,-4.4748,-4.4748,0.0,0.0,0.0,0.0,0.0,0.0,0.0,0.0,0.0,0.0,0.0,0.0,0.0,0.0,0.0,0.0,0.0,0.0,0.0,0.0,0.0,0.0,0.0,0.0,0.0,0.0,0.0,0.0,0.0,0.0,0.0,0.0,0.0,0.0,0.0,0.0,0.0,0.0,-3.4623,-3.555,0.0,0.0,0.0,0.0,0.0,0.0,0.0,0.0,-3.6938,0.0,0.0,0.0,0.0,0.0,0.0,0.0,0.0,0.0,0.0,0.0,0.0,0.0,0.0,0.0,0.0,0.0,0.0,0.0,0.0,0.0,0.0,0.0,0.0,0.0,0.0,0.0,0.0,0.0,0.0,0.0,0.0,0.0,0.0,0.0,0.0,0.0,0.0,0.0,0.0,0.0,0.0,0.0,0.0,0.0,0.0,0.0,0.0,0.0,0.0,0.0,0.0,0.0,0.0,0.0,0.0,-4.523,-4.5113,-4.4978,-4.4869,-4.4858,-4.4793,-4.4654,-4.4654,-4.4626,-4.4575,0.0,0.0,0.0,0.0,0.0,0.0,0.0,0.0,0.0,0.0,0.0,0.0,0.0,0.0,0.0,0.0,0.0,0.0,0.0,0.0,0.0,0.0,0.0,0.0,0.0,0.0,0.0,0.0,0.0,0.0,0.0,0.0,0.0,0.0,0.0,0.0,0.0,0.0,0.0,-3.5812,-3.6187,0.0,0.0,0.0,0.0,0.0,0.0,0.0,0.0,-3.6585,0.0,0.0,0.0,0.0,0.0,0.0,0.0,0.0,0.0,0.0,0.0,0.0,0.0,0.0,0.0,0.0,0.0,0.0,0.0,0.0,0.0,0.0,0.0,0.0,0.0,0.0,0.0,0.0,0.0,0.0,0.0,0.0,0.0,0.0,0.0,0.0,0.0,0.0,0.0,0.0,0.0,0.0,0.0,0.0,0.0,0.0,0.0,0.0,0.0,0.0,0.0,0.0,0.0,0.0,0.0,-4.5086,-4.4968,-4.4858,-4.4803,-4.4737,-4.4654,-4.4615,-4.4598,-4.4598,0.0,0.0,0.0,0.0,0.0,0.0,0.0,0.0,0.0,0.0,0.0,0.0,0.0,0.0,0.0,0.0,0.0,0.0,0.0,0.0,0.0,0.0,0.0,0.0,0.0,0.0,0.0,0.0,0.0,0.0,0.0,0.0,0.0,0.0,0.0,0.0,0.0,0.0,0.0,0.0,-3.6145,-3.6443,-3.68,0.0,0.0,0.0,0.0,0.0,0.0,-3.6554,-3.6492,0.0,0.0,0.0,0.0,0.0,0.0,0.0,0.0,0.0,0.0,0.0,0.0,0.0,0.0,0.0,0.0,0.0,0.0,0.0,0.0,0.0,0.0,0.0,0.0,0.0,0.0,0.0,0.0,0.0,0.0,0.0,0.0,0.0,0.0,0.0,0.0,0.0,0.0,0.0,0.0,0.0,0.0,0.0,0.0,0.0,0.0,0.0,0.0,0.0,0.0,0.0,0.0,0.0,0.0,0.0,-4.4951,-4.4831,-4.4765,-4.4765,-4.4654,-4.4598,-4.4598,-4.4598,-4.4598,0.0,0.0,0.0,0.0,0.0,0.0,0.0,0.0,0.0,0.0,0.0,0.0,0.0,0.0,0.0,0.0,0.0,0.0,0.0,0.0,0.0,0.0,0.0,0.0,0.0,0.0,0.0,0.0,0.0,0.0,0.0,0.0,0.0,0.0,0.0,0.0,0.0,0.0,0.0,0.0,0.0,-3.6662,-3.6677,-3.6569,0.0,0.0,0.0,0.0,-3.6692,-3.6768,0.0,0.0,0.0,0.0,0.0,0.0,0.0,0.0,0.0,0.0,0.0,0.0,0.0,0.0,0.0,0.0,0.0,0.0,0.0,0.0,0.0,0.0,0.0,0.0,0.0,0.0,0.0,0.0,0.0,0.0,0.0,0.0,0.0,0.0,0.0,0.0,0.0,0.0,0.0,0.0,0.0,0.0,0.0,0.0,0.0,0.0,0.0,0.0,0.0,0.0,0.0,0.0,0.0,0.0,0.0,0.0,-4.4803,-4.4682,-4.4626,-4.4626,-4.4598,-4.4598,-4.4598,-4.4598,-4.4598,0.0,0.0,0.0,0.0,0.0,0.0,0.0,0.0,0.0,0.0,0.0,0.0,0.0,0.0,0.0,0.0,0.0,0.0,0.0,0.0,0.0,0.0,0.0,0.0,0.0,0.0,0.0,0.0,0.0,0.0,0.0,0.0,0.0,0.0,0.0,0.0,0.0,0.0,0.0,0.0,0.0,-3.6523,-3.6507,-3.6492,-3.6492,0.0,0.0,-3.7384,-3.7384,-3.7732,0.0,0.0,0.0,0.0,0.0,0.0,0.0,0.0,0.0,0.0,0.0,0.0,0.0,0.0,0.0,0.0,0.0,0.0,0.0,0.0,0.0,0.0,0.0,0.0,0.0,0.0,0.0,0.0,0.0,0.0,0.0,0.0,0.0,0.0,0.0,0.0,0.0,0.0,0.0,0.0,0.0,0.0,0.0,0.0,0.0,0.0,0.0,0.0,0.0,0.0,0.0,0.0,0.0,0.0,0.0,-4.4748,-4.4682,-4.4626,-4.4598,-4.4598,-4.4598,-4.4598,-4.4598,-4.4598,-4.4598,0.0,0.0,0.0,0.0,0.0,0.0,0.0,0.0,0.0,0.0,0.0,0.0,0.0,0.0,0.0,0.0,0.0,0.0,0.0,0.0,0.0,0.0,0.0,0.0,0.0,0.0,0.0,0.0,0.0,0.0,0.0,0.0,0.0,0.0,0.0,0.0,0.0,0.0,0.0,0.0,0.0,0.0,-3.6352,-3.6642,0.0,0.0,0.0,-3.772,-3.7735,0.0,0.0,0.0,0.0,0.0,0.0,0.0,0.0,0.0,0.0,0.0,0.0,0.0,0.0,0.0,0.0,0.0,0.0,0.0,0.0,0.0,0.0,0.0,0.0,0.0,0.0,0.0,0.0,0.0,0.0,0.0,0.0,0.0,0.0,0.0,0.0,0.0,0.0,0.0,0.0,0.0,0.0,0.0,0.0,0.0,0.0,0.0,0.0,0.0,0.0,0.0,0.0,0.0,0.0,0.0,0.0,0.0,-4.4615,-4.4598,-4.4598,-4.4598,-4.4598,-4.4598,-4.4598,-4.4598,0.0,0.0,0.0,0.0,0.0,0.0,0.0,0.0,0.0,0.0,0.0,0.0,0.0,0.0,0.0,0.0,0.0,0.0,0.0,0.0,0.0,0.0,0.0,0.0,0.0,0.0,0.0,-3.3335,0.0,0.0,0.0,0.0,0.0,0.0,0.0,0.0,0.0,0.0,0.0,0.0,0.0,0.0,-3.6397,-3.6392,-3.6835,-3.7166,0.0,0.0,-3.8186,-3.8186,-3.8288,-3.836,0.0,0.0,0.0,0.0,0.0,0.0,0.0,0.0,0.0,0.0,0.0,0.0,0.0,0.0,0.0,0.0,0.0,0.0,0.0,0.0,0.0,0.0,0.0,0.0,0.0,0.0,0.0,0.0,0.0,0.0,0.0,0.0,0.0,0.0,0.0,0.0,0.0,0.0,0.0,0.0,0.0,0.0,0.0,0.0,0.0,0.0,0.0,0.0,0.0,0.0,0.0,0.0,0.0,0.0,0.0,-4.4598,-4.4598,-4.4598,-4.4598,-4.4598,-4.4598,-4.4598,-4.4598,-4.4598,0.0,0.0,0.0,0.0,0.0,0.0,0.0,0.0,0.0,0.0,0.0,0.0,0.0,0.0,0.0,0.0,0.0,0.0,0.0,0.0,0.0,0.0,0.0,0.0,0.0,0.0,0.0,0.0,0.0,0.0,0.0,0.0,0.0,0.0,0.0,0.0,0.0,0.0,0.0,0.0,0.0,-3.628,-3.6854,-3.6975,-3.7233,0.0,0.0,-3.8948,-3.8933,-3.9309,-3.9596,-3.9581,0.0,0.0,0.0,0.0,0.0,0.0,0.0,0.0,0.0,0.0,0.0,0.0,0.0,0.0,0.0,0.0,0.0,0.0,0.0,0.0,0.0,0.0,0.0,0.0,0.0,0.0,0.0,0.0,0.0,0.0,0.0,0.0,0.0,0.0,0.0,0.0,0.0,0.0,0.0,0.0,0.0,0.0,0.0,0.0,0.0,0.0,0.0,0.0,0.0,0.0,0.0,0.0,0.0,-4.4598,-4.4598,-4.4598,-4.4598,-4.4598,-4.4598,-4.4598,-4.4598,-4.4598,-4.4598,0.0,0.0,0.0,0.0,0.0,0.0,0.0,0.0,0.0,0.0,0.0,0.0,0.0,0.0,0.0,0.0,0.0,0.0,0.0,0.0,0.0,0.0,0.0,0.0,0.0,0.0,0.0,0.0,-3.4278,-3.4432,-3.4762,0.0,0.0,0.0,0.0,0.0,0.0,0.0,0.0,0.0,0.0,-3.6685,-3.6796,-3.7537,0.0,0.0,-3.8813,-3.9228,-3.9264,-3.9403,-3.9532,-3.9517,-3.9445,0.0,0.0,0.0,0.0,0.0,0.0,0.0,0.0,0.0,0.0,0.0,0.0,0.0,0.0,0.0,0.0,0.0,0.0,0.0,0.0,0.0,0.0,0.0,0.0,0.0,0.0,0.0,0.0,0.0,0.0,0.0,0.0,0.0,0.0,0.0,0.0,0.0,0.0,0.0,0.0,0.0,0.0,0.0,0.0,0.0,0.0,0.0,0.0,0.0,0.0,0.0,0.0,-4.4598,-4.4598,-4.4598,-4.4598,-4.4598,-4.4598,-4.4598,-4.4598,-4.4598,-4.4598,0.0,0.0,0.0,0.0,0.0,0.0,0.0,0.0,0.0,0.0,0.0,0.0,0.0,0.0,0.0,0.0,0.0,0.0,0.0,0.0,0.0,0.0,0.0,0.0,0.0,0.0,0.0,0.0,-3.4893,-3.5178,-3.5737,0.0,0.0,0.0,0.0,0.0,0.0,0.0,0.0,0.0,0.0,-3.6959,-3.7188,-3.8011,-3.8622,-3.8712,-3.9095,-3.9388,-3.9388,-3.9388,-3.9388,-3.9388,0.0,0.0,0.0,0.0,0.0,0.0,0.0,0.0,0.0,0.0,0.0,0.0,0.0,0.0,0.0,0.0,0.0,0.0,0.0,0.0,0.0,0.0,0.0,0.0,0.0,0.0,0.0,0.0,0.0,0.0,0.0,0.0,0.0,0.0,0.0,0.0,0.0,0.0,0.0,0.0,0.0,0.0,0.0,0.0,0.0,0.0,0.0,0.0,0.0,0.0,0.0,0.0,0.0,-4.4598,-4.4598,-4.4598,-4.4598,-4.4598,-4.4598,-4.4598,-4.4598,-4.4598,-4.4598,-4.4598,0.0,0.0,0.0,0.0,0.0,0.0,0.0,0.0,0.0,0.0,0.0,0.0,0.0,0.0,0.0,0.0,0.0,0.0,0.0,0.0,0.0,0.0,0.0,0.0,0.0,0.0,-3.4769,-3.5179,-3.5752,0.0,0.0,0.0,0.0,0.0,0.0,0.0,0.0,0.0,0.0,-3.661,-3.6941,-3.8187,-3.8412,-3.8682,-3.929,-3.9409,-3.9388,-3.9388,-3.9388,-3.9388,0.0,0.0,0.0,0.0,0.0,0.0,0.0,0.0,0.0,0.0,0.0,0.0,0.0,0.0,0.0,0.0,0.0,0.0,0.0,0.0,0.0,0.0,0.0,0.0,0.0,0.0,0.0,-4.5376,-4.5303,0.0,0.0,0.0,0.0,0.0,0.0,0.0,0.0,0.0,0.0,0.0,-4.5061,-4.5276,0.0,0.0,0.0,0.0,0.0,0.0,0.0,0.0,0.0,0.0,0.0,0.0,-4.4598,-4.4598,-4.4598,-4.4598,-4.4598,-4.4598,-4.4598,-4.4598,-4.4598,-4.4598,-4.4598,0.0,0.0,0.0,0.0,0.0,0.0,0.0,0.0,0.0,0.0,0.0,0.0,0.0,0.0,0.0,0.0,0.0,0.0,0.0,0.0,0.0,0.0,0.0,0.0,0.0,-3.6178,0.0,0.0,0.0,0.0,0.0,0.0,0.0,0.0,0.0,0.0,0.0,-3.6322,-3.6547,-3.7244,-3.7913,-3.8332,-3.8781,-3.9155,0.0,0.0,0.0,0.0,0.0,0.0,0.0,0.0,0.0,0.0,0.0,0.0,0.0,0.0,-3.8664,-3.8501,-3.8404,-3.824,-3.8043,0.0,0.0,0.0,0.0,0.0,0.0,0.0,0.0,0.0,0.0,0.0,0.0,0.0,0.0,0.0,0.0,-4.5939,0.0,0.0,0.0,0.0,0.0,0.0,0.0,0.0,-4.5414,-4.5414,-4.5414,-4.5414,-4.5414,0.0,-4.522,-4.5086,0.0,0.0,0.0,0.0,0.0,0.0,0.0,0.0,-4.4976,-4.5004,-4.5258,-4.5376,-4.5376,-4.5376,-4.5229,-4.4976,-4.4733,-4.4598,-4.4598,-4.4598,-4.435,0.0,0.0,0.0,0.0,0.0,0.0,0.0,0.0,0.0,0.0,0.0,0.0,0.0,0.0,0.0,0.0,0.0,0.0,0.0,0.0,0.0,0.0,0.0,-3.6739,0.0,0.0,0.0,0.0,0.0,0.0,0.0,0.0,0.0,-3.5999,-3.6292,-3.6656,-3.709,-3.7868,-3.8482,-3.8721,0.0,0.0,0.0,0.0,0.0,0.0,0.0,-3.9388,-3.9388,-3.9388,-3.9388,-3.9388,-3.9213,-3.9031,-3.8819,0.0,0.0,-3.8404,-3.8277,-3.8127,-3.7929,-3.7853,-3.7701,-3.738,-3.7187,-3.7007,0.0,0.0,0.0,0.0,0.0,0.0,0.0,0.0,-4.629,-4.5917,0.0,-4.5934,0.0,0.0,0.0,0.0,0.0,0.0,0.0,0.0,-4.55,-4.5466,-4.55,-4.5518,-4.55,-4.5466,-4.5216,-4.5125,-4.508,-4.496,0.0,0.0,0.0,0.0,0.0,0.0,-4.5737,-4.5754,-4.6397,-4.6769,-4.6752,-4.6769,-4.6413,-4.572,-4.4993,-4.4632,-4.4615,-4.4598,-4.4598,-4.4581,-4.3737,0.0,0.0,0.0,0.0,0.0,0.0,0.0,0.0,0.0,0.0,0.0,0.0,0.0,0.0,0.0,0.0,0.0,0.0,0.0,0.0,-3.6677,0.0,0.0,0.0,0.0,0.0,0.0,0.0,0.0,0.0,0.0,-3.66,-3.6582,-3.7,-3.8212,0.0,0.0,0.0,0.0,-3.9388,-3.9388,-3.9388,-3.9388,-3.9388,-3.9388,-3.9388,-3.9388,0.0,0.0,-3.9388,-3.9228,-3.9017,-3.8833,-3.8627,-3.8441,-3.824,-3.8202,-3.8142,-3.7929,-3.7701,-3.7534,-3.7303,-3.7007,-3.6721,-5.0918,0.0,0.0,0.0,0.0,-4.798,-4.7831,-4.7831,-4.7578,-4.7377,-4.7288,-4.7288,0.0,0.0,0.0,0.0,0.0,0.0,-4.6268,-4.6259,-4.6793,-4.7034,-4.7034,-4.7034,-4.7034,-4.7034,-4.6724,-4.6584,-4.6555,-4.6328,-4.5947,-4.5399,0.0,0.0,0.0,0.0,-4.6481,-4.6498,-4.6684,-4.6786,-4.6786,-4.6786,-4.6447,-4.5737,-4.55,-4.5128,-4.4615,-4.4598,-4.4598,-4.4598,-4.4226,0.0,0.0,0.0,0.0,0.0,0.0,0.0,0.0,0.0,0.0,0.0,0.0,0.0,0.0,0.0,0.0,0.0,0.0,0.0,-3.6816,-3.6616,-3.6492,0.0,0.0,0.0,0.0,0.0,0.0,0.0,0.0,0.0,-3.7813,-3.7853,-3.7973,0.0,0.0,-3.9185,-3.9358,-3.9388,-3.9388,-3.9388,0.0,0.0,0.0,-3.9388,-3.9388,-3.9388,-3.9388,-3.9388,-3.9388,-3.909,-3.887,-3.8833,-3.8538,-3.824,-3.8202,-3.8066,-3.7915,-3.7739,-3.7534,-3.7341,-3.7095,-3.685,-3.6628,-5.2246,-5.0869,-5.0062,-4.9491,-4.9114,-4.87,-4.8479,-4.8462,-4.8112,-4.7909,-4.781,-4.7827,-4.7496,-4.7044,-4.7017,0.0,0.0,0.0,-4.7034,-4.7052,-4.751,-4.7717,-4.7717,-4.7717,-4.7717,-4.7672,-4.7375,-4.7216,-4.7204,-4.7238,-4.7005,-4.6599,0.0,0.0,-4.6802,-4.709,-4.7242,-4.7242,-4.753,-4.7665,-4.7665,-4.7378,-4.7039,-4.6583,-4.6024,-4.55,-4.5043,-4.4767,-4.4598,-4.4598,-4.4355,-4.3966,0.0,0.0,0.0,0.0,0.0,0.0,0.0,0.0,0.0,0.0,0.0,-3.802,0.0,0.0,0.0,0.0,-3.715,-3.6876,-3.6631,-3.6554,0.0,0.0,0.0,0.0,0.0,0.0,0.0,-3.7746,-3.779,-3.8048,-3.8691,-3.8796,-3.8796,-3.8796,-3.9155,-3.9388,-3.9388,0.0,-3.9388,-3.9388,-3.9388,-3.9388,-3.9388,-3.9388,-3.9388,-3.9388,-3.9388,-3.9388,-3.9388,-3.9053,-3.8819,-3.8745,-3.8501,-3.8202,-3.8202,-3.7991,-3.7739,-3.7625,-3.7419,-3.7226,-3.6915,-3.6693,-3.6524,-5.3067,-5.2916,-5.2217,-5.1381,-5.0422,-4.9604,-4.9219,-4.9115,-4.8256,-4.7862,-4.7862,-4.7862,-4.7872,-4.7803,-4.7707,0.0,0.0,-4.7769,-4.7803,-4.782,-4.7862,-4.7862,-4.7862,-4.7879,-4.7907,-4.7879,-4.7546,-4.7375,-4.7426,-4.7798,-4.8003,-4.7939,-4.731,-4.6972,-4.7005,-4.7665,-4.7973,-4.8003,-4.8646,-4.9001,-4.9001,-4.8359,-4.7956,-4.7872,-4.6599,-4.5838,-4.5703,-4.5043,-4.4666,-4.4615,-4.4286,-4.4097,-4.408,0.0,0.0,0.0,0.0,0.0,0.0,0.0,0.0,0.0,0.0,0.0,0.0,0.0,0.0,0.0,-3.7032,0.0,-3.6677,-3.6645,0.0,0.0,0.0,-3.7831,-3.8446,-3.8238,-3.8341,-3.8933,0.0,0.0,0.0,0.0,-3.9388,-3.9388,-3.9388,-3.9388,-3.9388,-3.9388,-3.9388,-3.9388,-3.9388,-3.9388,-3.9388,-3.9388,-3.9388,-3.9388,-3.9388,-3.9388,-3.9388,-3.9053,-3.8819,-3.8782,-3.8449,-3.8202,-3.8202,-3.7877,-3.761,-3.761,-3.7419,-3.7148,-3.6786,-3.6549,-3.6365,-5.4266,-5.3642,-5.3331,-5.2374,-5.1067,-5.0748,-5.031,-4.9775,-4.9528,-4.9459,-4.9476,-4.9476,-4.9114,-4.8499,-4.7948,-4.7717,-4.7734,-4.8275,-4.8534,-4.8586,-4.9183,-4.9459,-4.9476,-4.9459,-4.9459,-4.943,-4.9105,-4.8941,-4.8958,-4.8799,-4.8748,-4.8731,-4.8578,-4.8477,-4.8477,-4.8646,-4.8748,-4.8748,-4.8917,-4.9018,-4.8984,-4.8832,-4.8494,-4.7922,-4.7551,-4.687,-4.5754,-4.5517,-4.5162,-4.4649,-4.427,-4.4097,-4.4097,-4.361,0.0,0.0,0.0,0.0,0.0,0.0,0.0,0.0,0.0,-3.8421,-3.7748,0.0,-3.8194,0.0,-3.8169,-3.8208,-3.8031,-3.8031,0.0,0.0,-3.8277,-3.8323,-3.8508,-3.865,-3.8827,-3.8994,-3.9083,-3.9245,-3.9394,-3.9388,-3.9388,-3.9388,-3.9388,-3.9388,-3.9388,-3.9388,-3.9388,-3.9388,-3.9388,-3.9388,-3.9388,-3.9388,-3.9388,-3.9388,-3.9388,-3.9388,-3.9388,-3.9053,-3.8782,-3.8782,-3.8464,-3.824,-3.8202,-3.7877,-3.761,-3.7572,-3.7317,-3.6993,-3.6747,-3.6524,-3.6365,-5.5362,-5.487,-5.426,-5.3307,-5.22,-5.1782,-5.1166,-5.0511,-5.0511,-5.0321,-5.0011,-5.0011,-4.9769,-4.9321,-4.8924,-4.8706,-4.8769,-4.9148,-4.9309,-4.9344,-4.9804,-5.0011,-5.0011,-5.0011,-5.0011,-4.9982,-4.9725,-4.9577,-4.9488,-4.9199,-4.9063,-4.9018,-4.9018,-4.9018,-4.9018,-4.9018,-4.9018,-4.9018,-4.9018,-4.9018,-4.9018,-4.9018,-4.8798,-4.8409,-4.8088,-4.7547,-4.6718,-4.6058,-4.55,-4.5094,-4.4454,-4.4097,-4.4097,-4.3776,-4.3416,0.0,0.0,0.0,0.0,0.0,0.0,0.0,0.0,0.0,0.0,0.0,-3.8764,0.0,-3.86,0.0,-3.8508,-3.8508,-3.8631,-3.8923,-3.8954,-3.9044,-3.937,-3.9413,-3.9449,-3.9449,-3.9414,-3.9388,-3.9388,-3.9388,-3.9388,-3.9388,-3.9388,-3.9388,-3.9388,-3.9388,-3.9388,-3.9388,-3.9388,-3.9388,-3.9388,-3.9388,-3.9388,-3.9388,-3.9388,-3.9388,-3.9388,-3.9068,-3.8782,-3.8782,-3.8449,-3.8202,-3.8202,-3.7877,-3.761,-3.7534,-3.7303,-3.6929,-3.6628,-3.647,-3.6312,-5.6311,-5.6123,-5.5101,-5.4267,-5.3494,-5.2804,-5.1998,-5.1252,-5.1252,-5.0838,-5.0131,-5.0149,-5.0097,-5.0011,-5.0011,-5.0011,-5.0011,-5.0011,-5.0011,-5.0011,-5.0011,-5.0011,-5.0011,-5.0011,-5.0011,-4.9982,-4.9784,-4.9619,-4.9518,-4.929,-4.9155,-4.9001,-4.9018,-4.9018,-4.9018,-4.9018,-4.9018,-4.9018,-4.9018,-4.9018,-4.9018,-4.9018,-4.9018,-4.8984,-4.8392,-4.7973,-4.7872,-4.6684,-4.5906,-4.5657,-4.4774,-4.4198,-4.4114,-4.3776,-4.3615,0.0,-4.3281,0.0,0.0,0.0,0.0,0.0,0.0,0.0,0.0,-3.9424,-3.9279,-3.9063,-3.8884,-3.8769,-3.8754,-3.8769,-3.9,-3.957,-3.9613,-3.9859,-4.0397,-4.0207,-4.0011,-4.0011,-3.964,-3.9388,-3.9388,-3.9388,-3.9388,-3.9388,-3.9388,-3.9388,-3.9388,-3.9388,-3.9388,-3.9388,-3.9388,-3.9388,-3.9388,-3.9388,-3.9388,-3.9388,-3.9388,-3.9388,-3.9388,-3.9068,-3.8782,-3.8745,-3.8449,-3.8202,-3.8202,-3.7901,-3.7649,-3.7572,-3.7303,-3.6915,-3.6589,-3.6445,-3.6272,-5.6875,-5.6175,-5.5782,-5.5121,-5.4287,-5.4132,-5.3287,-5.1981,-5.1981,-5.1567,-5.0907,-5.0907,-5.058,-5.0028,-5.0011,-5.0011,-5.0011,-5.0011,-5.0011,-5.0011,-5.0011,-5.0011,-5.0011,-5.0011,-5.0011,-4.9964,-4.9801,-4.9619,-4.9488,-4.929,-4.9155,-4.9001,-4.9018,-4.9018,-4.9018,0.0,0.0,0.0,-4.9018,-4.9018,-4.9018,-4.9018,-4.9018,-4.9001,-4.8883,0.0,-4.7936,-4.7618,-4.6938,-4.5759,-4.5244,0.0,0.0,0.0,0.0,0.0,0.0,0.0,0.0,0.0,0.0,0.0,-4.1773,-4.1071,-3.966,-3.9705,-4.0022,-4.0383,-4.0242,-4.0105,-4.0105,-4.012,-4.0151,-4.029,-4.0305,-4.0351,-4.0489,-4.0191,-4.0011,-4.0011,-3.964,-3.9388,-3.9388,-3.9388,-3.9388,-3.9388,-3.9388,-3.9388,-3.9388,-3.9388,-3.9388,-3.9388,-3.9388,-3.9388,-3.9388,-3.9388,-3.9388,-3.9388,-3.9388,-3.9388,-3.9388,-3.9068,-3.8819,-3.8782,-3.8464,-3.8202,-3.8202,-3.8005,-3.7792,-3.761,-3.738,-3.7109,-3.6747,-3.651,-3.6312,-5.7796,0.0,-5.6264,-5.5568,0.0,-5.4667,-5.408,-5.3339,-5.2959,-5.239,-5.1666,-5.1649,-5.1442,-5.1114,-5.1097,-5.0907,-5.0562,-5.0545,-5.0373,-5.0011,-5.0011,-5.0011,-5.0011,-5.0011,-5.0011,-5.0011,-4.9889,-4.9725,-4.9535,-4.9381,-4.9246,-4.9001,-4.9018,-4.9018,-4.9018,-4.9018,-4.9018,-4.9018,-4.9018,-4.9018,-4.9018,-4.9018,-4.9018,-4.9018,0.0,0.0,0.0,0.0,0.0,0.0,0.0,0.0,0.0,0.0,0.0,-4.3615,-4.3295,-4.3096,-4.3096,-4.2774,-4.246,-4.2142,-4.1948,-4.1386,-4.0334,-4.0468,-4.0562,-4.0631,-4.0558,-4.0489,-4.0489,-4.0489,-4.0489,-4.0489,-4.0489,-4.0489,-4.0401,-4.0172,-3.996,-3.9839,-3.9589,-3.9388,-3.9388,-3.9388,-3.9388,-3.9388,-3.9388,-3.9388,-3.9388,-3.9388,-3.9388,-3.9388,-3.9388,-3.9388,-3.9388,-3.9388,-3.9388,-3.9388,-3.9388,-3.9388,-3.9388,-3.9141,-3.8907,-3.8782,-3.8538,-3.8315,-3.8202,-3.8028,-3.7853,-3.7625,-3.7457,-3.724,-3.6889,-3.6589,-3.6351,-5.8736,-5.8283,-5.6903,-5.6067,-5.5563,-5.496,-5.4632,-5.4477,0.0,0.0,0.0,-5.2394,-5.2356,-5.2188,-5.217,-5.1873,-5.1321,-5.1304,-5.0976,-5.0407,-5.039,-5.0407,-5.0407,-5.039,-5.0407,-5.0407,-5.0407,-5.0226,-4.9941,-4.9911,-4.9729,-4.9469,-4.939,-4.9323,-4.9204,-4.9204,-4.9137,-4.9018,-4.9018,-4.9018,-4.9018,-4.9018,-4.9018,-4.9018,-4.9018,-4.9018,-4.9001,-4.8426,-4.8054,-4.7872,-4.6438,-4.5483,-4.5169,-4.4321,-4.3714,-4.3598,-4.3265,-4.3096,-4.3096,-4.2774,-4.2476,-4.2109,-4.1769,-4.1472,-4.1117,-4.1117,-4.0932,-4.0539,-4.0489,-4.0489,-4.0489,-4.0489,-4.0489,-4.0489,-4.0489,-4.042,-4.0312,-4.0137,-3.9925,-3.9732,-3.9517,-3.9388,-3.9388,-3.9388,-3.9388,-3.9388,-3.9388,-3.9388,-3.9388,-3.9388,-3.9388,-3.9388,-3.9388,-3.9388,-3.9388,-3.9388,-3.9388,-3.9388,-3.9388,-3.9388,-3.9388,-3.9228,-3.9017,-3.8819,-3.8649,-3.8441,-3.824,-3.8066,-3.7891,-3.761,-3.7457,-3.7303,-3.7031,-3.6707,-3.6405,-5.9304,-5.8353,-5.8161,-5.7116,-5.5615,-5.5512,-5.5098,-5.4512,-5.4391,-5.3925,-5.3253,-5.3235,-5.2856,-5.2188,-5.217,-5.2136,-5.2063,-5.2063,-5.1964,0.0,-5.1877,-5.1877,-5.1877,-5.1877,-5.1908,-5.1877,-5.186,-5.1817,-5.1634,-5.1446,-5.1307,-5.1119,-5.0977,-5.0557,-4.9982,-4.9932,-4.9627,-4.9035,-4.9018,-4.9018,-4.9018,-4.9018,-4.9018,-4.9018,-4.9018,-4.9018,-4.9001,-4.89,-4.8562,-4.7922,-4.7365,-4.6525,-4.5299,-4.477,-4.4257,-4.3648,-4.3265,-4.3096,-4.3096,-4.279,-4.246,-4.2109,-4.1785,-4.1439,-4.1151,-4.1117,-4.0932,-4.0558,-4.0489,-4.0489,-4.0489,-4.0489,-4.0489,-4.0489,-4.0489,-4.0436,-4.0296,-4.0101,-3.9889,-3.9681,-3.9517,-3.9388,-3.9388,-3.9388,-3.9388,-3.9388,-3.9388,-3.9388,-3.9388,-3.9388,-3.9388,-3.9388,-3.9388,-3.9388,-3.9388,-3.9388,-3.9388,-3.9388,-3.9388,-3.9388,-3.9388,-3.9265,-3.9068,-3.8833,-3.8649,-3.8427,-3.824,-3.8202,-3.7991,-3.7725,-3.7586,-3.7419,-3.7095,-3.6811,-3.6549,-5.9751,-5.9107,-5.8609,-5.7858,-5.6954,-5.601,-5.5184,-5.4529,-5.4512,-5.4339,-5.4029,-5.4011,-5.3804,-5.3477,-5.346,-5.3235,-5.2873,-5.2856,-5.2601,-5.2188,-5.217,-5.217,-5.217,-5.217,-5.217,-5.217,-5.217,-5.2127,-5.1974,-5.1788,-5.1631,-5.1473,-5.1314,-5.1048,-5.0727,-5.071,-5.0338,-4.9593,-4.9221,-4.9018,-4.9018,-4.9018,-4.9018,-4.9018,-4.9018,-4.9018,-4.9018,-4.9018,-4.8849,-4.8511,-4.7768,-4.7094,-4.6424,-4.5319,-4.4539,-4.4178,-4.3509,-4.3096,-4.3096,-4.2618,-4.227,-4.2109,-4.1785,-4.1472,-4.1117,-4.1117,-4.0932,-4.0539,-4.0489,-4.0489,-4.0489,-4.0489,-4.0489,-4.0489,-4.042,-4.0347,-4.0137,-3.9945,-3.9768,-3.9553,-3.9445,-3.9388,-3.9388,-3.9388,-3.9388,-3.9388,-3.9388,-3.9388,-3.9388,-3.9388,-3.9388,-3.9388,-3.9388,-3.9388,-3.9388,-3.9388,-3.9388,-3.9388,-3.9388,-3.9388,-3.9388,-3.9301,-3.9141,-3.887,-3.8723,-3.8538,-3.8277,-3.8202,-3.8052,-3.7839,-3.7663,-3.7495,-3.7226,-3.685,-3.6484,-5.9993,-5.9726,-5.899,-5.8481,-5.7971,-5.6336,-5.527,-5.4753,-5.4581,-5.4512,-5.4512,-5.4512,-5.4512,-5.4512,-5.4512,-5.4184,-5.3701,-5.3649,-5.3339,-5.2739,-5.2705,-5.2687,-5.2705,-5.2705,-5.2735,-5.2735,-5.2705,-5.2674,-5.2551,-5.2347,-5.2175,-5.1983,-5.1807,-5.1657,-5.1454,-5.1422,-5.1082,-5.0338,-4.961,-4.9171,-4.9018,-4.9018,-4.9018,-4.9018,-4.9018,-4.9018,-4.9018,-4.9018,-4.9018,-4.8984,-4.8135,-4.7579,-4.7331,-4.5851,-4.487,-4.4624,-4.369,-4.3066,-4.2959,-4.2412,-4.2077,-4.2077,-4.1785,-4.1472,-4.1151,-4.1117,-4.0916,-4.0574,-4.0489,-4.0489,-4.0489,-4.0489,-4.0489,-4.0455,-4.0366,-4.0207,-3.996,-3.9803,-3.9625,-3.946,-3.9388,-3.9388,-3.9388,-3.9388,-3.9388,-3.9388,-3.9388,-3.9388,-3.9388,-3.9388,-3.9388,-3.9388,-3.9388,-3.9388,-3.9388,-3.9388,-3.9388,-3.9388,-3.9388,-3.9388,-3.9388,-3.9388,-3.9265,-3.8943,-3.8833,-3.8686,-3.8352,-3.8202,-3.8142,-3.7929,-3.7777,-3.761,-3.7341,-3.685,-3.6405,-5.9993,-5.9796,-5.9547,-5.8883,-5.7787,-5.6305,-5.5615,-5.5408,-5.4822,-5.4512,-5.4512,-5.4512,-5.4512,-5.4512,-5.4512,-5.446,-5.4374,-5.4408,-5.4339,-5.4253,-5.4305,-5.4287,-5.4218,-5.4253,-5.4305,-5.4253,-5.4218,-5.4118,-5.4104,-5.3979,-5.3757,-5.3513,-5.3348,-5.2892,-5.23,-5.2198,-5.1843,-5.1083,-5.0371,-4.9661,-4.9052,-4.9018,-4.9018,-4.9018,-4.9018,-4.9018,-4.9018,-4.9018,-4.9018,-4.897,-4.8606,-4.8082,-4.7414,-4.6317,-4.5384,-4.4738,-4.369,-4.299,-4.2665,-4.2318,-4.2077,-4.2077,-4.1785,-4.1456,-4.1151,-4.1117,-4.0932,-4.0608,-4.0489,-4.0489,-4.0489,-4.0489,-4.047,-4.0331,-4.0312,-4.0156,-3.9839,-3.9717,-3.9625,-3.9409,-3.9388,-3.9388,-3.9388,-3.9388,-3.9388,-3.9388,-3.9388,-3.9388,-3.9388,-3.9388,-3.9388,-3.9388,-3.9388,-3.9388,-3.9388,-3.9388,-3.9388,-3.9388,-3.9388,-3.9388,-3.9388,-3.9388,-3.9316,-3.9068,-3.8943,-3.876,-3.8501,-3.8315,-3.8142,-3.8005,-3.7853,-3.7739,-3.7394,-3.6929,-3.6563,-6.0057,-5.9993,-5.9799,-5.9101,-5.8024,-5.7269,-5.6443,-5.5598,-5.5305,-5.4925,-5.4529,-5.4512,-5.4512,-5.4512,-5.4512,-5.4512,-5.4512,-5.4512,-5.4512,-5.4512,-5.4512,-5.4512,-5.4512,-5.4512,-5.4512,-5.4512,-5.4512,-5.4512,-5.4448,-5.4224,-5.3948,-5.3717,-5.3584,-5.3331,-5.3044,-5.301,-5.2638,-5.1877,-5.1555,-5.0828,-4.9729,-4.9221,-4.9018,-4.9018,-4.9018,-4.9018,-4.9018,-4.9018,-4.9018,-4.897,-4.869,-4.8349,-4.8048,-4.7048,-4.6096,-4.5367,-4.392,-4.2959,-4.2634,-4.2302,-4.2077,-4.2077,-4.1785,-4.1439,-4.1151,-4.1117,-4.0932,-4.0574,-4.0489,-4.0489,-4.0489,-4.0489,-4.0436,-4.0296,-4.0207,-4.0031,-3.9753,-3.9589,-3.9481,-3.9424,-3.9388,-3.9388,-3.9388,-3.9388,-3.9388,-3.9388,-3.9388,-3.9388,-3.9388,-3.9388,-3.9388,-3.9388,-3.9388,-3.9388,-3.9388,-3.9388,-3.9388,-3.9388,-3.9388,-3.9388,-3.9388,-3.9388,-3.9352,-3.9156,-3.9031,-3.8833,-3.8553,-3.8441,-3.8329,-3.8118,-3.7815,-3.761,-3.7341,-3.6968,-3.6628,-6.0089,-6.004,-5.9864,-5.9271,-5.8454,-5.8062,-5.7167,-5.5945,-5.5719,-5.5184,-5.4546,-5.4512,-5.4512,-5.4512,-5.4512,-5.4512,-5.4512,-5.4512,-5.4512,-5.4512,-5.4512,-5.4512,-5.4512,-5.4512,-5.4512,-5.4512,-5.4512,-5.4512,-5.448,-5.4207,-5.398,-5.3783,-5.3634,-5.3534,-5.3501,-5.3518,-5.3213,-5.2655,-5.2435,-5.1674,-5.0473,-4.9678,-4.9221,-4.9035,-4.9018,-4.9018,-4.9018,-4.9018,-4.9018,-4.9001,-4.869,-4.8483,-4.845,-4.7481,-4.6429,-4.5408,-4.4169,-4.3172,-4.2666,-4.227,-4.2077,-4.2061,-4.1785,-4.1472,-4.1169,-4.1117,-4.0932,-4.0574,-4.0489,-4.0489,-4.0489,-4.0489,-4.042,-4.0226,-4.0066,-3.9889,-3.9661,-3.9496,-3.9424,-3.9388,-3.9388,-3.9388,-3.9388,-3.9388,-3.9388,-3.9388,-3.9388,-3.9388,-3.9388,-3.9388,-3.9388,-3.9388,-3.9388,-3.9388,-3.9388,-3.9388,-3.9388,-3.9388,-3.9388,-3.9388,-3.9388,-3.9388,-3.9388,-3.9265,-3.9177,-3.898,-3.8686,-3.859,-3.8441,-3.8217,-3.7953,-3.761,-3.7457,-3.7084,-3.6864,-6.0089,-6.0025,-5.9751,-5.9451,-5.9164,-5.8304,-5.7495,-5.6702,-5.5977,-5.5236,-5.4615,-5.4512,-5.4512,-5.4512,-5.4512,-5.4512,-5.4512,-5.4512,-5.4512,-5.4512,-5.4512,-5.4512,-5.4512,-5.4512,-5.4512,-5.4512,-5.4512,-5.4512,-5.4463,-5.4271,-5.4093,-5.398,-5.3783,-5.3617,-5.3501,-5.3518,-5.3484,-5.3315,-5.2723,-5.1944,-5.1166,-5.0388,-4.9712,-4.9086,-4.9018,-4.9018,-4.9018,-4.9018,-4.9018,-4.9018,-4.8673,-4.8515,-4.8416,-4.7481,-4.6152,-4.4649,-4.4225,-4.3678,-4.278,-4.2334,-4.2077,-4.2045,-4.1785,-4.1439,-4.1151,-4.1117,-4.0932,-4.0524,-4.0489,-4.0489,-4.0489,-4.0505,-4.0366,-4.0081,-3.9996,-3.9818,-3.946,-3.9424,-3.9388,-3.9388,-3.9388,-3.9388,-3.9388,-3.9388,-3.9388,-3.9388,-3.9388,-3.9388,-3.9388,-3.9388,-3.9388,-3.9388,-3.9388,-3.9388,-3.9388,-3.9388,-3.9388,-3.9388,-3.9388,-3.9388,-3.9388,-3.9388,-3.9373,-3.9337,-3.9228,-3.9068,-3.8833,-3.8612,-3.8441,-3.8254,-3.8043,-3.7777,-3.761,-3.7433,-3.7162,-6.0089,-6.0057,-5.9831,-5.9635,-5.9436,-5.8991,-5.8303,-5.746,-5.6702,-5.5943,-5.5219,-5.4736,-5.4512,-5.4512,-5.4512,-5.4512,-5.4512,-5.4512,-5.4512,-5.4512,-5.4512,-5.4512,-5.4512,-5.4512,-5.4512,-5.4512,-5.4512,-5.4512,-5.448,-5.4321,-5.4143,-5.398,-5.3816,-5.3634,-5.3534,-5.3518,-5.3518,-5.3484,-5.3196,-5.2486,-5.1303,-5.0947,-5.0236,-4.9086,-4.9018,-4.9018,-4.9018,-4.9018,-4.9018,-4.9018,-4.8784,-4.8627,-4.8416,-4.7481,-4.6597,-4.5795,-4.4781,-4.4002,-4.3473,-4.2623,-4.2077,-4.2077,-4.1769,-4.1472,-4.1169,-4.1083,-4.0932,-4.0608,-4.0489,-4.0489,-4.0489,-4.0436,-4.0277,-4.0046,-3.9889,-3.9732,-3.9496,-3.9388,-3.9388,-3.9388,-3.9388,-3.9388,-3.9388,-3.9388,-3.9388,-3.9388,-3.9388,-3.9388,-3.9388,-3.9388,-3.9388,-3.9388,-3.9388,-3.9388,-3.9388,-3.9388,-3.9388,-3.9388,-3.9388,-3.9388,-3.9388,-3.9388,-3.9388,-3.9388,-3.9301,-3.9177,-3.8943,-3.8664,-3.8478,-3.8254,-3.8028,-3.7929,-3.7815,-3.7548,-3.7356,-6.0089,-6.0057,-5.9879,-5.9733,-5.9588,-5.9386,-5.8768,-5.7857,-5.7116,-5.6357,-5.5581,-5.4839,-5.4512,-5.4512,-5.4512,-5.4512,-5.4512,-5.4512,-5.4512,-5.4512,-5.4512,-5.4512,-5.4512,-5.4512,-5.4512,-5.4512,-5.4512,-5.4512,-5.448,-5.4367,-5.4207,-5.4045,-5.3882,-5.3717,-5.3568,-5.3517,-5.3518,-5.3518,-5.3518,-5.2841,-5.1708,-5.1303,-5.0642,-4.9526,-4.9137,-4.9018,-4.9018,-4.9018,-4.9018,-4.8987,-4.8863,-4.8675,-4.8353,-4.7665,-4.7092,-4.6616,-4.5355,-4.4377,-4.3942,-4.288,-4.2174,-4.2077,-4.1851,-4.1538,-4.1221,-4.1102,-4.0932,-4.0662,-4.0524,-4.0489,-4.047,-4.0366,-4.0207,-4.0031,-3.9874,-3.9711,-3.946,-3.9388,-3.9388,-3.9388,-3.9388,-3.9388,-3.9388,-3.9388,-3.9388,-3.9388,-3.9388,-3.9388,-3.9388,-3.9388,-3.9388,-3.9388,-3.9388,-3.9388,-3.9388,-3.9388,-3.9388,-3.9388,-3.9388,-3.9388,-3.9388,-3.9388,-3.9388,-3.9388,-3.9337,-3.925,-3.9031,-3.8752,-3.8478,-3.824,-3.8142,-3.8028,-3.7839,-3.761,-3.7419,-6.0089,-6.0057,-5.9911,-5.9733,-5.9603,-5.9419,-5.8785,-5.7977,-5.715,-5.6391,-5.5701,-5.4856,-5.4512,-5.4512,-5.4512,-5.4512,-5.4512,-5.4512,-5.4512,-5.4512,-5.4512,-5.4512,-5.4512,-5.4512,-5.4512,-5.4512,-5.4512,-5.4512,-5.4512,-5.448,-5.4367,-5.4207,-5.4045,-5.3866,-5.3667,-5.3551,-5.3518,-5.3518,-5.3518,-5.3078,-5.2317,-5.1572,-5.0828,-5.0033,-4.9373,-4.9018,-4.9018,-4.9018,-4.9018,-4.8987,-4.8894,-4.8595,-4.8292,-4.8016,-4.7604,-4.683,-4.5846,-4.4949,-4.4104,-4.3104,-4.2398,-4.2109,-4.1947,-4.1686,-4.1323,-4.1153,-4.1,-4.0799,-4.0608,-4.0489,-4.0489,-4.0401,-4.0242,-4.0031,-3.996,-3.9783,-3.9496,-3.9388,-3.9388,-3.9388,-3.9388,-3.9388,-3.9388,-3.9388,-3.9388,-3.9388,-3.9388,-3.9388,-3.9388,-3.9388,-3.9388,-3.9388,-3.9388,-3.9388,-3.9388,-3.9388,-3.9388,-3.9388,-3.9388,-3.9388,-3.9388,-3.9388,-3.9388,-3.9388,-3.9388,-3.9301,-3.9053,-3.8775,-3.8553,-3.8329,-3.8254,-3.8142,-3.7953,-3.7763,-3.7572,-6.0089,-6.0089,-6.0025,-5.9911,-5.9733,-5.9586,-5.9247,-5.8716,-5.7441,-5.6667,-5.6219,-5.5063,-5.4512,-5.4512,-5.4512,-5.4512,-5.4512,-5.4512,-5.4512,-5.4512,-5.4512,-5.4512,-5.4512,-5.4512,-5.4512,-5.4512,-5.4512,-5.4512,-5.4512,-5.4512,-5.4399,-5.4207,-5.4078,-5.3882,-5.37,-5.3584,-5.3518,-5.3518,-5.3518,-5.3112,-5.2317,-5.1589,-5.0845,-5.0118,-4.9373,-4.9018,-4.9018,-4.9018,-4.9018,-4.9018,-4.894,-4.8784,-4.842,-4.8147,-4.7852,-4.7539,-4.6618,-4.5734,-4.4917,-4.3816,-4.2832,-4.2253,-4.198,-4.1719,-4.1357,-4.1187,-4.1034,-4.0833,-4.0627,-4.0489,-4.0489,-4.0455,-4.0296,-4.0046,-3.9889,-3.9696,-3.946,-3.9388,-3.9388,-3.9388,-3.9388,-3.9388,-3.9388,-3.9388,-3.9388,-3.9388,-3.9388,-3.9388,-3.9388,-3.9388,-3.9388,-3.9388,-3.9388,-3.9388,-3.9388,-3.9388,-3.9388,-3.9388,-3.9388,-3.9388,-3.9388,-3.9388,-3.9388,-3.9388,-3.9388,-3.9301,-3.9017,-3.8833,-3.8612,-3.8441,-3.8292,-3.8217,-3.8104,-3.7953,-3.7687,-6.0089,-6.0089,-6.0089,-5.9975,-5.9796,-5.97,-5.9553,-5.9093,-5.7559,-5.6854,-5.6477,-5.5184,-5.4512,-5.4512,-5.4512,-5.4512,-5.4512,-5.4512,-5.4512,-5.4512,-5.4512,-5.4512,-5.4512,-5.4512,-5.4512,-5.4512,-5.4512,-5.4512,-5.4512,-5.4512,-5.4431,-5.4303,-5.4143,-5.398,-5.3799,-5.3634,-5.3551,-5.3501,-5.3501,-5.3112,-5.2334,-5.1589,-5.0862,-5.0118,-4.9373,-4.9035,-4.9018,-4.9018,-4.9018,-4.897,-4.8892,-4.8704,-4.8483,-4.8179,-4.8001,-4.7803,-4.7046,-4.6176,-4.5636,-4.4367,-4.3347,-4.2687,-4.2237,-4.185,-4.1538,-4.1321,-4.1086,-4.0916,-4.073,-4.0558,-4.0524,-4.0489,-4.0366,-4.0137,-3.9945,-3.9696,-3.9496,-3.9388,-3.9388,-3.9388,-3.9388,-3.9388,-3.9388,-3.9388,-3.9388,-3.9388,-3.9388,-3.9388,-3.9388,-3.9388,-3.9388,-3.9388,-3.9388,-3.9388,-3.9388,-3.9388,-3.9388,-3.9388,-3.9388,-3.9388,-3.9388,-3.9388,-3.9388,-3.9388,-3.9388,-3.9301,-3.9068,-3.8907,-3.8686,-3.8538,-3.8366,-3.824,-3.8127,-3.7991,-3.7801,-6.0089,-6.0089,-6.0089,-5.9975,-5.9829,-5.9814,-5.9617,-5.911,-5.7673,-5.6902,-5.6493,-5.5184,-5.4512,-5.4512,-5.4512,-5.4512,-5.4512,-5.4512,-5.4512,-5.4512,-5.4512,-5.4512,-5.4512,-5.4512,-5.4512,-5.4512,-5.4512,-5.4512,-5.4512,-5.4512,-5.4512,-5.448,-5.4271,-5.4126,-5.3948,-5.3783,-5.3601,-5.3501,-5.3518,-5.3112,-5.2317,-5.1589,-5.0862,-5.0101,-4.939,-4.9018,-4.9018,-4.9018,-4.9018,-4.897,-4.8704,-4.8547,-4.8452,-4.8179,-4.8001,-4.7951,-4.7013,-4.6569,-4.6045,-4.4854,-4.3703,-4.3363,-4.2558,-4.2061,-4.1833,-4.1472,-4.1205,-4.1068,-4.0867,-4.0696,-4.0558,-4.0489,-4.0436,-4.0277,-4.0031,-3.9783,-3.946,-3.9388,-3.9388,-3.9388,-3.9388,-3.9388,-3.9388,-3.9388,-3.9388,-3.9388,-3.9388,-3.9388,-3.9388,-3.9388,-3.9388,-3.9388,-3.9388,-3.9388,-3.9388,-3.9388,-3.9388,-3.9388,-3.9388,-3.9388,-3.9388,-3.9388,-3.9388,-3.9388,-3.9388,-3.9265,-3.9192,-3.898,-3.8797,-3.8612,-3.8464,-3.8277,-3.8127,-3.8028,-3.7915,-6.0089,-6.0089,-6.0089,-6.0075,-5.9975,-5.9861,-5.9683,-5.9295,-5.7706,-5.6934,-5.6493,-5.5184,-5.4512,-5.4512,-5.4512,-5.4512,-5.4512,-5.4512,-5.4512,-5.4512,-5.4512,-5.4512,-5.4512,-5.4512,-5.4512,-5.4512,-5.4512,-5.4512,-5.4512,-5.4512,-5.4512,-5.4463,-5.4303,-5.4143,-5.398,-5.3816,-5.3634,-5.3534,-5.3501,-5.3095,-5.23,-5.1589,-5.0862,-5.0118,-4.9373,-4.9035,-4.9018,-4.9018,-4.9018,-4.897,-4.8673,-4.8483,-4.8483,-4.8179,-4.8001,-4.7918,-4.7605,-4.7029,-4.634,-4.5343,-4.4399,-4.3541,-4.2687,-4.2061,-4.1898,-4.1538,-4.1288,-4.1102,-4.0916,-4.073,-4.0558,-4.0489,-4.0366,-4.0101,-3.996,-3.9696,-3.9496,-3.9388,-3.9388,-3.9388,-3.9388,-3.9388,-3.9388,-3.9388,-3.9388,-3.9388,-3.9388,-3.9388,-3.9388,-3.9388,-3.9388,-3.9388,-3.9388,-3.9388,-3.9388,-3.9388,-3.9388,-3.9388,-3.9388,-3.9388,-3.9388,-3.9388,-3.9388,-3.9388,-3.9388,-3.9316,-3.9265,-3.9177,-3.8943,-3.8723,-3.8553,-3.8404,-3.824,-3.8127,-3.8028,-6.0089,-6.0089,-6.0089,-6.0089,-6.0089,-5.9975,-5.9831,-5.9371,-5.7886,-5.7032,-5.6556,-5.5216,-5.4512,-5.4512,-5.4512,-5.4512,-5.4512,-5.4512,-5.4512,-5.4512,-5.4512,-5.4512,-5.4512,-5.4512,-5.4512,-5.4512,-5.4512,-5.4512,-5.4512,-5.4512,-5.4512,-5.4463,-5.4399,-5.4239,-5.4078,-5.3915,-5.375,-5.3618,-5.3484,-5.301,-5.1894,-5.1422,-5.0625,-4.983,-4.9187,-4.9018,-4.9018,-4.9018,-4.9018,-4.894,-4.8753,-4.8595,-4.8483,-4.8244,-4.8066,-4.7984,-4.7803,-4.7424,-4.6799,-4.58,-4.4838,-4.401,-4.2993,-4.2238,-4.198,-4.1719,-4.1488,-4.1205,-4.1052,-4.0848,-4.0662,-4.0558,-4.0401,-4.0172,-3.996,-3.9696,-3.946,-3.9388,-3.9388,-3.9388,-3.9388,-3.9388,-3.9388,-3.9388,-3.9388,-3.9388,-3.9388,-3.9388,-3.9388,-3.9388,-3.9388,-3.9388,-3.9388,-3.9388,-3.9388,-3.9388,-3.9388,-3.9388,-3.9388,-3.9388,-3.9388,-3.9388,-3.9388,-3.9388,-3.9388,-3.9388,-3.9337,-3.9213,-3.9031,-3.8811,-3.8664,-3.8478,-3.8315,-3.8202,-3.8142,-6.0089,-6.0089,-6.0089,-6.0089,-6.0089,-6.0089,-5.9873,-5.9394,-5.7977,-5.7089,-5.6497,-5.5179,-5.4546,-5.4512,-5.4512,-5.4512,-5.4512,-5.4512,-5.4512,-5.4512,-5.4512,-5.4512,-5.4512,-5.4512,-5.4512,-5.4512,-5.4512,-5.4512,-5.4512,-5.4512,-5.4512,-5.4512,-5.448,-5.4385,-5.4207,-5.4045,-5.3882,-5.365,-5.3348,-5.2604,-5.1539,-5.1065,-5.0355,-4.934,-4.9086,-4.9018,-4.9018,-4.9018,-4.9018,-4.9018,-4.8863,-4.869,-4.8515,-4.8292,-4.8147,-4.8001,-4.7853,-4.7655,-4.7291,-4.6012,-4.5033,-4.4577,-4.3283,-4.2334,-4.2077,-4.1915,-4.1686,-4.129,-4.1187,-4.1018,-4.0799,-4.0643,-4.0436,-4.0277,-4.0101,-3.9854,-3.9568,-3.9424,-3.9388,-3.9388,-3.9388,-3.9388,-3.9388,-3.9388,-3.9388,-3.9388,-3.9388,-3.9388,-3.9388,-3.9388,-3.9388,-3.9388,-3.9388,-3.9388,-3.9388,-3.9388,-3.9388,-3.9388,-3.9388,-3.9388,-3.9388,-3.9388,-3.9388,-3.9388,-3.9388,-3.9388,-3.9388,-3.9228,-3.9068,-3.887,-3.8686,-3.8464,-3.8263,-3.824,-3.8179,-6.0089,-6.0089,-6.0089,-6.0089,-6.0089,-6.0072,-5.966,-5.8887,-5.7768,-5.6843,-5.6044,-5.4954,-5.4529,-5.4512,-5.4512,-5.4512,-5.4512,-5.4512,-5.4512,-5.4512,-5.4512,-5.4512,-5.4512,-5.4512,-5.4512,-5.4512,-5.4512,-5.4512,-5.4512,-5.4512,-5.4512,-5.4512,-5.448,-5.4399,-5.4222,-5.4078,-5.3915,-5.3598,-5.3008,-5.2181,-5.1286,-5.0642,-4.9965,-4.9086,-4.9018,-4.9018,-4.9018,-4.9018,-4.9018,-4.8987,-4.8863,-4.8721,-4.8515,-4.8324,-4.813,-4.8033,-4.7968,-4.7853,-4.7441,-4.6225,-4.5179,-4.4854,-4.346,-4.2318,-4.2109,-4.198,-4.1719,-4.1406,-4.1272,-4.1104,-4.0833,-4.0627,-4.047,-4.0347,-4.0226,-4.0086,-3.9732,-3.9496,-3.9424,-3.9388,-3.9388,-3.9388,-3.9388,-3.9388,-3.9388,-3.9388,-3.9388,-3.9388,-3.9388,-3.9388,-3.9388,-3.9388,-3.9388,-3.9388,-3.9388,-3.9388,-3.9388,-3.9388,-3.9388,-3.9388,-3.9388,-3.9388,-3.9388,-3.9388,-3.9388,-3.9388,-3.9388,-3.9388,-3.9228,-3.8995,-3.8745,-3.8523,-3.8375,-3.8315,-3.8202,-6.0089,-6.0089,-6.0089,-6.0089,-6.0036,-5.9738,-5.9289,-5.8633,-5.7426,-5.6572,-5.5945,-5.5046,-5.4592,-5.4512,-5.4512,-5.4512,-5.4512,-5.4512,-5.4512,-5.4512,-5.4512,-5.4512,-5.4512,-5.4512,-5.4512,-5.4512,-5.4512,-5.4512,-5.4512,-5.4512,-5.4512,-5.4512,-5.4512,-5.4431,-5.4335,-5.4175,-5.403,-5.3696,-5.2904,-5.2027,-5.1217,-5.0473,-4.9746,-4.9154,-4.9018,-4.9018,-4.9018,-4.9018,-4.9018,-4.8987,-4.8925,-4.8753,-4.8547,-4.8388,-4.8227,-4.8033,-4.8001,-4.7886,-4.7391,-4.6274,-4.5227,-4.5082,-4.3492,-4.267,-4.2238,-4.2109,-4.1882,-4.1604,-4.139,-4.1156,-4.0867,-4.073,-4.0574,-4.0436,-4.0331,-4.0207,-3.9996,-3.9732,-3.9481,-3.9424,-3.9388,-3.9388,-3.9388,-3.9388,-3.9388,-3.9388,-3.9388,-3.9388,-3.9388,-3.9388,-3.9388,-3.9388,-3.9388,-3.9388,-3.9388,-3.9388,-3.9388,-3.9388,-3.9388,-3.9388,-3.9388,-3.9388,-3.9388,-3.9388,-3.9388,-3.9388,-3.9388,-3.9388,-3.9316,-3.9104,-3.8833,-3.8649,-3.8464,-3.8315,-3.824,-6.0089,-6.0089,-6.0089,-6.0036,-5.9826,-5.9282,-5.8843,-5.8338,-5.7092,-5.6278,-5.5897,-5.5133,-5.4655,-5.4543,-5.4512,-5.4512,-5.4512,-5.4512,-5.4512,-5.4512,-5.4512,-5.4512,-5.4512,-5.4512,-5.4512,-5.4512,-5.4512,-5.4512,-5.4512,-5.4512,-5.4512,-5.4512,-5.4512,-5.448,-5.4448,-5.4286,-5.4008,-5.3606,-5.2762,-5.1853,-5.0996,-5.0236,-4.9543,-4.9154,-4.9018,-4.9018,-4.9018,-4.9018,-4.9018,-4.9018,-4.9018,-4.8815,-4.8578,-4.8483,-4.8356,-4.8033,-4.8001,-4.7935,-4.7523,-4.6355,-4.5291,-4.5065,-4.3603,-4.2668,-4.2413,-4.2254,-4.2061,-4.1817,-4.1538,-4.1189,-4.0901,-4.0799,-4.0696,-4.0524,-4.0401,-4.0347,-4.0242,-3.998,-3.9768,-3.9481,-3.9424,-3.9388,-3.9388,-3.9388,-3.9388,-3.9388,-3.9388,-3.9388,-3.9388,-3.9388,-3.9388,-3.9388,-3.9388,-3.9388,-3.9388,-3.9388,-3.9388,-3.9388,-3.9388,-3.9388,-3.9388,-3.9388,-3.9388,-3.9388,-3.9388,-3.9388,-3.9388,-3.9388,-3.9301,-3.9104,-3.8907,-3.8686,-3.8501,-3.8315,-3.824,-6.0089,-6.0089,-6.0089,-5.9756,-5.9229,-5.9036,-5.8211,-5.7057,-5.6602,-5.5929,-5.5235,-5.4925,-5.4717,-5.4543,-5.4512,-5.4512,-5.4512,-5.4512,-5.4512,-5.4512,-5.4512,-5.4512,-5.4512,-5.4512,-5.4512,-5.4512,-5.4512,-5.4512,-5.4512,-5.4512,-5.4512,-5.4512,-5.4512,-5.4512,-5.4431,-5.4252,-5.3798,-5.3158,-5.2247,-5.1272,-5.0469,-4.9695,-4.9238,-4.9018,-4.9018,-4.9018,-4.9018,-4.9018,-4.9018,-4.9018,-4.9018,-4.8815,-4.8578,-4.8515,-4.834,-4.8099,-4.8001,-4.7951,-4.7588,-4.6467,-4.5599,-4.4965,-4.3745,-4.2778,-4.2476,-4.2349,-4.2206,-4.1882,-4.1538,-4.1239,-4.1068,-4.0916,-4.073,-4.0558,-4.0455,-4.0436,-4.0347,-4.0207,-4.0016,-3.9732,-3.9553,-3.9388,-3.9388,-3.9388,-3.9388,-3.9388,-3.9388,-3.9388,-3.9388,-3.9388,-3.9388,-3.9388,-3.9388,-3.9388,-3.9388,-3.9388,-3.9388,-3.9388,-3.9388,-3.9388,-3.9388,-3.9388,-3.9388,-3.9388,-3.9388,-3.9388,-3.9388,-3.9388,-3.9316,-3.9192,-3.8995,-3.8745,-3.8575,-3.8389,-3.824,-5.9879,-5.9545,-5.9527,-5.9089,-5.8386,-5.7912,-5.7333,-5.6613,-5.612,-5.5631,-5.5201,-5.4961,-5.4824,-5.4669,-5.4543,-5.4512,-5.4512,-5.4512,-5.4512,-5.4512,-5.4512,-5.4512,-5.4512,-5.4512,-5.4512,-5.4512,-5.4512,-5.4512,-5.4512,-5.4512,-5.4512,-5.4512,-5.4512,-5.4512,-5.4359,-5.3969,-5.3533,-5.2775,-5.1728,-5.0805,-5.0193,-4.9436,-4.9052,-4.9018,-4.9018,-4.9018,-4.9018,-4.9018,-4.9018,-4.9018,-4.9018,-4.8877,-4.869,-4.8532,-4.8373,-4.8066,-4.7984,-4.7802,-4.7372,-4.6267,-4.5384,-4.4653,-4.3563,-4.2871,-4.2587,-4.2413,-4.227,-4.1947,-4.167,-4.139,-4.1205,-4.1037,-4.0867,-4.0696,-4.0558,-4.0505,-4.0436,-4.0331,-4.0191,-3.998,-3.9768,-3.9589,-3.9388,-3.9388,-3.9388,-3.9388,-3.9388,-3.9388,-3.9388,-3.9388,-3.9388,-3.9388,-3.9388,-3.9388,-3.9388,-3.9388,-3.9388,-3.9388,-3.9388,-3.9388,-3.9388,-3.9388,-3.9388,-3.9388,-3.9388,-3.9388,-3.9388,-3.9388,-3.9352,-3.9265,-3.8995,-3.8797,-3.8649,-3.8501,-3.8315,-5.9299,-5.8755,-5.8755,-5.8299,-5.7526,-5.6894,-5.6526,-5.628,-5.5788,-5.5419,-5.5199,-5.5066,-5.4917,-5.4762,-5.4606,-5.4512,-5.4512,-5.4512,-5.4512,-5.4512,-5.4512,-5.4512,-5.4512,-5.4512,-5.4512,-5.4512,-5.4512,-5.4512,-5.4512,-5.4512,-5.4512,-5.4512,-5.4512,-5.4391,-5.4118,-5.3704,-5.3263,-5.23,-5.1408,-5.0554,-4.9997,-4.9419,-4.9018,-4.9018,-4.9018,-4.9018,-4.9018,-4.9018,-4.9018,-4.9018,-4.9001,-4.8909,-4.8738,-4.8578,-4.8324,-4.8049,-4.7885,-4.7438,-4.6892,-4.5902,-4.505,-4.4435,-4.3495,-4.295,-4.2665,-4.2508,-4.227,-4.1996,-4.1784,-4.1522,-4.1323,-4.1187,-4.1003,-4.0833,-4.0662,-4.0524,-4.047,-4.0401,-4.0331,-4.0156,-3.9965,-3.9768,-3.9589,-3.9388,-3.9388,-3.9388,-3.9388,-3.9388,-3.9388,-3.9388,-3.9388,-3.9388,-3.9388,-3.9388,-3.9388,-3.9388,-3.9388,-3.9388,-3.9388,-3.9388,-3.9388,-3.9388,-3.9388,-3.9388,-3.9388,-3.9388,-3.9388,-3.9388,-3.9352,-3.9265,-3.8995,-3.8833,-3.8708,-3.8486,-3.8277,-5.8018,-5.793,-5.7948,-5.7474,-5.6789,-5.6613,-5.621,-5.5683,-5.5578,-5.5383,-5.5229,-5.5066,-5.4948,-5.478,-5.4575,-5.4512,-5.4512,-5.4512,-5.4512,-5.4512,-5.4512,-5.4512,-5.4512,-5.4512,-5.4512,-5.4512,-5.4512,-5.4512,-5.4512,-5.4512,-5.4512,-5.4512,-5.4391,-5.4218,-5.3684,-5.3253,-5.2609,-5.139,-5.0806,-5.0134,-4.9382,-4.9086,-4.9018,-4.9018,-4.9018,-4.9018,-4.9018,-4.9018,-4.9018,-4.9018,-4.9018,-4.8846,-4.8578,-4.8498,-4.8292,-4.7915,-4.7454,-4.6974,-4.6626,-4.5651,-4.4731,-4.4247,-4.3551,-4.3103,-4.2821,-4.2539,-4.2318,-4.2109,-4.1947,-4.1719,-4.1439,-4.129,-4.1088,-4.0935,-4.0765,-4.0662,-4.0574,-4.047,-4.0401,-4.0331,-4.0156,-3.993,-3.9753,-3.9553,-3.9388,-3.9388,-3.9388,-3.9388,-3.9388,-3.9388,-3.9388,-3.9388,-3.9388,-3.9388,-3.9388,-3.9388,-3.9388,-3.9388,-3.9388,-3.9388,-3.9388,-3.9388,-3.9388,-3.9388,-3.9388,-3.9388,-3.9388,-3.9388,-3.9388,-3.9265,-3.9017,-3.8892,-3.8782,-3.8523,-3.824,-5.6826,-5.7122,-5.7105,-5.6684,-5.6017,-5.5981,-5.5806,-5.5578,-5.5525,-5.5448,-5.5354,-5.5187,-5.4992,-5.478,-5.4575,-5.4512,-5.4512,-5.4512,-5.4512,-5.4512,-5.4512,-5.4512,-5.4512,-5.4512,-5.4512,-5.4512,-5.4512,-5.4512,-5.4512,-5.4494,-5.4512,-5.4425,-5.4098,-5.377,-5.3149,-5.2494,-5.1808,-5.1,-5.0356,-4.9661,-4.9178,-4.9001,-4.9018,-4.9018,-4.9018,-4.9018,-4.9018,-4.9018,-4.9018,-4.9018,-4.9018,-4.8909,-4.869,-4.8513,-4.8254,-4.7514,-4.6756,-4.6311,-4.6113,-4.5218,-4.4561,-4.3976,-4.3493,-4.3176,-4.293,-4.2619,-4.2381,-4.227,-4.2045,-4.1833,-4.162,-4.1439,-4.1256,-4.1104,-4.0919,-4.0799,-4.0677,-4.0524,-4.047,-4.0401,-4.0331,-4.0156,-3.9965,-3.9768,-3.9553,-3.9409,-3.9424,-3.9388,-3.9388,-3.9388,-3.9388,-3.9388,-3.9388,-3.9388,-3.9388,-3.9388,-3.9388,-3.9388,-3.9388,-3.9388,-3.9388,-3.9388,-3.9388,-3.9388,-3.9388,-3.9388,-3.9388,-3.9388,-3.9388,-3.9265,-3.9053,-3.8929,-3.8782,-3.8449,-3.824,-5.6041,-5.6375,-5.6315,-5.6017,-5.5525,-5.5525,-5.5525,-5.5525,-5.5525,-5.5507,-5.5448,-5.5247,-5.5022,-5.4811,-5.4606,-5.4512,-5.4512,-5.4512,-5.4512,-5.4512,-5.4512,-5.4512,-5.4512,-5.4512,-5.4512,-5.4494,-5.4512,-5.4356,-5.4218,-5.4201,-5.4149,-5.4201,-5.3736,-5.3166,-5.2563,-5.1856,-5.1085,-5.0599,-4.9945,-4.9419,-4.9107,-4.9032,-4.9001,-4.9018,-4.9018,-4.9018,-4.9018,-4.9018,-4.9018,-4.9018,-4.9018,-4.8909,-4.869,-4.8295,-4.7838,-4.7082,-4.6208,-4.5549,-4.5317,-4.4771,-4.4131,-4.3677,-4.3312,-4.316,-4.2914,-4.2602,-4.2413,-4.2381,-4.2238,-4.2028,-4.1866,-4.1604,-4.1439,-4.1256,-4.1088,-4.0935,-4.0814,-4.0696,-4.0558,-4.047,-4.0401,-4.0331,-4.0156,-4.0016,-3.9768,-3.9553,-3.9445,-3.9424,-3.9388,-3.9388,-3.9388,-3.9388,-3.9388,-3.9388,-3.9388,-3.9388,-3.9388,-3.9388,-3.9388,-3.9388,-3.9388,-3.9388,-3.9388,-3.9388,-3.9388,-3.9388,-3.9388,-3.9388,-3.9388,-3.9265,-3.9141,-3.8892,-3.8708,-3.8427,-3.824,-5.6,-5.5748,-5.5654,-5.5595,-5.5525,-5.5525,-5.5525,-5.5525,-5.5525,-5.5525,-5.5448,-5.5174,-5.4961,-5.478,-5.4637,-5.4512,-5.4512,-5.4512,-5.4512,-5.4512,-5.4512,-5.4512,-5.4512,-5.4512,-5.4477,-5.4408,-5.4322,-5.3994,-5.3615,-5.346,-5.3477,-5.3425,-5.308,-5.2373,-5.177,-5.1171,-5.056,-5.0145,-4.9611,-4.9398,-4.9168,-4.9063,-4.9001,-4.9018,-4.9018,-4.9018,-4.9018,-4.9018,-4.9018,-4.9018,-4.8987,-4.8711,-4.8375,-4.7897,-4.7389,-4.6504,-4.5597,-4.4986,-4.4655,-4.4257,-4.3797,-4.3525,-4.3325,-4.3113,-4.2945,-4.2728,-4.2539,-4.2445,-4.2334,-4.2206,-4.2012,-4.1817,-4.162,-4.1472,-4.1256,-4.1088,-4.0969,-4.0867,-4.073,-4.0558,-4.0505,-4.047,-4.0331,-4.0156,-3.998,-3.9732,-3.9517,-3.9496,-3.9424,-3.9388,-3.9388,-3.9388,-3.9388,-3.9388,-3.9388,-3.9388,-3.9388,-3.9388,-3.9388,-3.9388,-3.9388,-3.9388,-3.9388,-3.9388,-3.9388,-3.9388,-3.9388,-3.9388,-3.9388,-3.9316,-3.9141,-3.887,-3.8634,-3.8375,-3.824,-5.6141,-5.6,-5.5724,-5.5578,-5.5525,-5.5525,-5.5525,-5.5525,-5.5525,-5.5525,-5.546,-5.5234,-5.5035,-5.4917,-5.4731,-5.4606,-5.4512,-5.4512,-5.4512,-5.4512,-5.4512,-5.4512,-5.4512,-5.4391,-5.4287,-5.3925,-5.3787,-5.3425,-5.2735,-5.2684,-5.2304,-5.2166,-5.208,-5.1752,-5.1149,-5.0671,-5.0182,-4.9862,-4.956,-4.9411,-4.9199,-4.9094,-4.9018,-4.9018,-4.9018,-4.9018,-4.9018,-4.9018,-4.9018,-4.897,-4.8909,-4.8469,-4.7912,-4.7433,-4.6679,-4.5844,-4.4967,-4.4522,-4.4158,-4.378,-4.3631,-4.3568,-4.3402,-4.3204,-4.3037,-4.2852,-4.2696,-4.2571,-4.2445,-4.2318,-4.2254,-4.2028,-4.18,-4.1653,-4.1472,-4.1305,-4.1122,-4.1003,-4.0916,-4.0746,-4.0662,-4.0627,-4.047,-4.0331,-4.0137,-3.9925,-3.9732,-3.9553,-3.9496,-3.9388,-3.9388,-3.9388,-3.9388,-3.9388,-3.9388,-3.9388,-3.9388,-3.9388,-3.9388,-3.9388,-3.9388,-3.9388,-3.9388,-3.9388,-3.9388,-3.9388,-3.9388,-3.9388,-3.9388,-3.9352,-3.9083,-3.876,-3.8538,-3.8315,-3.8277,-5.6253,-5.6169,-5.5954,-5.5753,-5.5566,-5.5507,-5.5525,-5.5525,-5.5525,-5.5525,-5.5478,-5.5277,-5.5109,-5.4992,-5.4855,-5.4686,-5.4543,-5.4512,-5.4512,-5.4512,-5.4512,-5.4391,-5.4253,-5.4046,-5.3718,-5.3218,-5.2977,-5.2649,-5.1908,-5.189,-5.1476,-5.1045,-5.0787,-5.0769,-5.0649,-5.0292,-4.9935,-4.9784,-4.9577,-4.9458,-4.929,-4.9094,-4.9001,-4.9018,-4.9018,-4.9018,-4.9018,-4.9018,-4.9018,-4.8855,-4.8593,-4.8102,-4.7462,-4.6772,-4.5901,-4.5111,-4.444,-4.4125,-4.3764,-4.3615,-4.3615,-4.3568,-4.3462,-4.3265,-4.3113,-4.2959,-4.279,-4.2602,-4.2508,-4.2445,-4.2413,-4.2206,-4.1996,-4.1817,-4.1686,-4.1521,-4.1305,-4.1171,-4.1037,-4.0916,-4.0848,-4.073,-4.0627,-4.047,-4.0226,-4.0031,-3.9783,-3.9625,-3.9553,-3.9496,-3.9388,-3.9388,-3.9388,-3.9388,-3.9388,-3.9388,-3.9388,-3.9388,-3.9388,-3.9388,-3.9388,-3.9388,-3.9388,-3.9388,-3.9388,-3.9388,-3.9388,-3.9388,-3.9388,-3.9388,-3.9068,-3.8723,-3.8501,-3.8352,-3.824,-5.6336,-5.6179,-5.6197,-5.5982,-5.5695,-5.5566,-5.5507,-5.5525,-5.5525,-5.5525,-5.5478,-5.5306,-5.5156,-5.4992,-5.4855,-5.47,-5.4491,-5.4425,-5.4374,-5.4339,-5.408,-5.3925,-5.3632,-5.3322,-5.3011,-5.2394,-5.2183,-5.1873,-5.1132,-5.1132,-5.07,-5.0355,-5.0235,-5.0183,-5.0062,-5.0028,-4.9982,-4.9935,-4.9683,-4.9518,-4.9398,-4.9155,-4.9032,-4.9018,-4.9018,-4.9018,-4.9018,-4.9018,-4.8951,-4.8686,-4.8158,-4.7617,-4.703,-4.5874,-4.5119,-4.4652,-4.4026,-4.3698,-4.3615,-4.3615,-4.3615,-4.3615,-4.3492,-4.3325,-4.3143,-4.2959,-4.2852,-4.2696,-4.2602,-4.2508,-4.2445,-4.2366,-4.2174,-4.2012,-4.1882,-4.1735,-4.1521,-4.1323,-4.1239,-4.1104,-4.0935,-4.0799,-4.073,-4.0593,-4.0366,-4.0121,-3.9839,-3.9747,-3.9696,-3.9589,-3.9481,-3.946,-3.946,-3.9388,-3.9388,-3.9388,-3.9388,-3.9388,-3.9388,-3.9388,-3.9388,-3.9388,-3.9388,-3.9388,-3.9388,-3.9388,-3.9388,-3.9388,-3.9388,-3.9352,-3.9068,-3.876,-3.8538,-3.8366,-3.824,-5.6373,-5.6318,-5.6253,-5.6067,-5.585,-5.5677,-5.5578,-5.5507,-5.5525,-5.5525,-5.5478,-5.5431,-5.5234,-5.507,-5.4861,-5.4672,-5.4405,-5.3873,-5.377,-5.3736,-5.3356,-5.2894,-5.2636,-5.2546,-5.2201,-5.1653,-5.1425,-5.1114,-5.0373,-5.0459,-5.0338,-5.0045,-5.0011,-5.0011,-5.0011,-5.0011,-5.0011,-4.9935,-4.9713,-4.9488,-4.9458,-4.9185,-4.9018,-4.9018,-4.9018,-4.9018,-4.8984,-4.8984,-4.87,-4.827,-4.7628,-4.694,-4.6168,-4.4967,-4.4563,-4.4158,-4.3631,-4.3631,-4.3615,-4.3615,-4.3615,-4.3598,-4.3568,-4.3432,-4.3312,-4.3129,-4.2976,-4.279,-4.2696,-4.2602,-4.2539,-4.2445,-4.2286,-4.2222,-4.2077,-4.1898,-4.1719,-4.1571,-4.1456,-4.129,-4.1122,-4.0953,-4.0833,-4.0696,-4.0505,-4.0366,-4.0156,-3.9996,-3.9925,-3.9768,-3.9625,-3.9553,-3.9532,-3.946,-3.9388,-3.9424,-3.9424,-3.9388,-3.9388,-3.9388,-3.9388,-3.9388,-3.9388,-3.9388,-3.9388,-3.9388,-3.9388,-3.9388,-3.9388,-3.9301,-3.9031,-3.8797,-3.8575,-3.8389,-3.824,-5.6437,-5.6401,-5.629,-5.6162,-5.5993,-5.5811,-5.5637,-5.5525,-5.5525,-5.5525,-5.5455,-5.5244,-5.4921,-5.4625,-5.433,-5.4088,-5.376,-5.327,-5.2977,-5.2925,-5.2481,-5.2136,-5.1929,-5.174,-5.139,-5.0925,-5.07,-5.0442,-5.0097,-5.0028,-5.0011,-5.0028,-5.0011,-5.0011,-5.0011,-5.0011,-4.9935,-4.983,-4.9607,-4.9458,-4.932,-4.9155,-4.9001,-4.9018,-4.9018,-4.9018,-4.8934,-4.8683,-4.8331,-4.7689,-4.6948,-4.6196,-4.521,-4.4527,-4.4125,-4.3731,-4.3615,-4.3615,-4.3615,-4.3615,-4.3615,-4.3615,-4.3615,-4.3539,-4.3402,-4.3281,-4.3115,-4.293,-4.279,-4.2665,-4.2602,-4.2508,-4.2445,-4.2349,-4.227,-4.2093,-4.1898,-4.1736,-4.1621,-4.1489,-4.129,-4.1088,-4.0935,-4.0799,-4.0627,-4.0539,-4.047,-4.0312,-4.0137,-3.9945,-3.9788,-3.9732,-3.9661,-3.9589,-3.9481,-3.946,-3.9424,-3.9388,-3.9424,-3.9424,-3.9388,-3.9388,-3.9388,-3.9388,-3.9388,-3.9388,-3.9388,-3.9388,-3.9388,-3.9316,-3.9156,-3.887,-3.8649,-3.8427,-3.824,-5.6429,-5.6357,-5.6311,-5.6176,-5.6017,-5.5574,-5.5443,-5.5385,-5.5385,-5.5349,-5.5314,-5.4524,-5.418,-5.3911,-5.3189,-5.285,-5.2619,-5.2365,-5.2201,-5.2084,-5.1856,-5.1498,-5.1205,-5.1045,-5.0735,-5.0304,-5.0097,-5.0218,-5.0011,-5.0011,-5.0011,-5.0011,-5.0011,-5.0011,-5.0011,-4.9964,-4.9889,-4.9755,-4.959,-4.9411,-4.926,-4.9094,-4.9032,-4.8984,-4.8883,-4.8798,-4.8582,-4.821,-4.7747,-4.7036,-4.6113,-4.541,-4.4697,-4.4069,-4.3761,-4.3615,-4.3615,-4.3615,-4.3615,-4.3615,-4.3615,-4.3615,-4.3615,-4.3539,-4.3449,-4.3372,-4.3207,-4.3023,-4.2852,-4.2759,-4.2634,-4.2571,-4.2523,-4.2476,-4.2413,-4.2238,-4.2028,-4.1882,-4.1768,-4.1637,-4.139,-4.1239,-4.1104,-4.0935,-4.0814,-4.0746,-4.0677,-4.0539,-4.0366,-4.0137,-4.0016,-3.998,-3.9874,-3.9717,-3.9661,-3.9589,-3.9517,-3.9532,-3.9496,-3.9496,-3.946,-3.9388,-3.9388,-3.9388,-3.9388,-3.9388,-3.9388,-3.9388,-3.9388,-3.9301,-3.9192,-3.898,-3.8708,-3.8464,-3.8277,-5.4872,-5.482,-5.4732,-5.4599,-5.4454,-5.4197,-5.3982,-5.3886,-5.3857,-5.3857,-5.3868,-5.3629,-5.3403,-5.3178,-5.2858,-5.2606,-5.2233,-5.1825,-5.1494,-5.1304,-5.1045,-5.0631,-5.0424,-5.0373,-5.0183,-5.0097,-5.0011,-5.0011,-5.0011,-5.0011,-5.0011,-5.0011,-5.0011,-5.0011,-5.0011,-4.9982,-4.986,-4.9708,-4.956,-4.9381,-4.9199,-4.9063,-4.9015,-4.8866,-4.8511,-4.8376,-4.8041,-4.7359,-4.678,-4.5891,-4.544,-4.4827,-4.3969,-4.3744,-4.3615,-4.3615,-4.3615,-4.3615,-4.3615,-4.3615,-4.3615,-4.3615,-4.3615,-4.3598,-4.3539,-4.3449,-4.3281,-4.3146,-4.2992,-4.2852,-4.2696,-4.2634,-4.2571,-4.2539,-4.2476,-4.2349,-4.2174,-4.2077,-4.1964,-4.1752,-4.1538,-4.139,-4.1239,-4.112,-4.0984,-4.095,-4.0882,-4.0746,-4.0574,-4.0366,-4.0226,-4.0156,-4.0066,-3.991,-3.9874,-3.9854,-3.9732,-3.9661,-3.964,-3.9568,-3.9496,-3.946,-3.9424,-3.9388,-3.9388,-3.9388,-3.9388,-3.9388,-3.9388,-3.9337,-3.9213,-3.9017,-3.8819,-3.8575,-3.8366,-5.4294,-5.4174,-5.4132,-5.3814,-5.338,-5.3148,-5.2815,-5.2529,-5.2948,-5.3173,-5.3183,-5.2857,-5.2642,-5.2459,-5.198,-5.1645,-5.1506,-5.099,-5.0666,-5.0545,-5.0235,-5.0149,-5.0028,-5.0011,-5.0028,-5.0011,-5.0011,-5.0011,-5.0011,-5.0011,-5.0011,-5.0011,-5.0011,-5.0011,-4.9964,-4.9906,-4.9801,-4.9666,-4.9518,-4.9367,-4.9168,-4.9012,-4.8897,-4.8511,-4.8037,-4.78,-4.7382,-4.6524,-4.5799,-4.5165,-4.4933,-4.4304,-4.3691,-4.3615,-4.3615,-4.3615,-4.3615,-4.3615,-4.3615,-4.3615,-4.3615,-4.3615,-4.3615,-4.3598,-4.3552,-4.3492,-4.3402,-4.3267,-4.3099,-4.2914,-4.279,-4.2665,-4.2634,-4.2602,-4.2539,-4.2445,-4.2381,-4.227,-4.2093,-4.1882,-4.1703,-4.1555,-4.1406,-4.1254,-4.1169,-4.112,-4.1052,-4.095,-4.078,-4.0555,-4.0436,-4.0366,-4.0226,-4.0086,-4.0101,-4.0066,-3.996,-3.9839,-3.9854,-3.9747,-3.9604,-3.9532,-3.9532,-3.946,-3.9388,-3.9388,-3.9388,-3.9388,-3.9388,-3.9337,-3.9301,-3.9177,-3.8943,-3.8649,-3.8478,-5.4248,-5.3992,-5.402,-5.3419,-5.2686,-5.2484,-5.1953,-5.1299,-5.2441,-5.299,-5.2797,-5.2225,-5.1916,-5.1756,-5.1158,-5.0756,-5.0667,-5.0391,-5.0229,-5.0028,-5.0062,-5.0011,-5.0011,-5.0011,-5.0011,-5.0011,-5.0011,-5.0011,-5.0011,-5.0011,-5.0011,-5.0011,-5.0011,-5.0011,-4.9964,-4.9813,-4.961,-4.9269,-4.9167,-4.9048,-4.889,-4.8781,-4.8578,-4.7936,-4.7567,-4.7314,-4.6608,-4.5929,-4.5244,-4.4851,-4.4423,-4.383,-4.3691,-4.3615,-4.3615,-4.3615,-4.3615,-4.3615,-4.3615,-4.3615,-4.3615,-4.3615,-4.3615,-4.3615,-4.3598,-4.3568,-4.3479,-4.3358,-4.319,-4.3007,-4.2883,-4.2775,-4.2713,-4.2634,-4.2571,-4.2508,-4.2476,-4.2381,-4.2238,-4.2061,-4.1931,-4.1753,-4.1637,-4.1503,-4.1421,-4.1339,-4.1205,-4.112,-4.0984,-4.078,-4.0643,-4.0558,-4.0385,-4.0296,-4.0261,-4.0207,-4.0101,-4.0031,-4.0031,-3.9925,-3.9783,-3.9711,-3.964,-3.9568,-3.946,-3.9424,-3.9388,-3.9388,-3.9388,-3.9388,-3.9337,-3.9301,-3.9068,-3.8811,-3.859,-5.2822,-5.275,-5.2537,-5.2237,-5.1943,-5.1772,-5.1571,-5.1264,-5.144,-5.1614,-5.1445,-5.1294,-5.1207,-5.1144,-5.0805,-5.0492,-5.0359,-5.0235,-5.0092,-5.0022,-5.0011,-5.0011,-5.0011,-5.0011,-5.0011,-5.0011,-5.0011,-5.0011,-5.0011,-5.0011,-5.0011,-5.0011,-4.9993,-4.9993,-4.9844,-4.9664,-4.9328,-4.8731,-4.8515,-4.8345,-4.8084,-4.8037,-4.7834,-4.7141,-4.6684,-4.6224,-4.5592,-4.4946,-4.4482,-4.4106,-4.3863,-4.3674,-4.3598,-4.3598,-4.3615,-4.3615,-4.3615,-4.3615,-4.3615,-4.3615,-4.3615,-4.3615,-4.3615,-4.3615,-4.3615,-4.3615,-4.3539,-4.3449,-4.3312,-4.3129,-4.2992,-4.2899,-4.2775,-4.2713,-4.2602,-4.2571,-4.2539,-4.2445,-4.2333,-4.2238,-4.2125,-4.1996,-4.185,-4.1752,-4.1686,-4.1538,-4.1357,-4.1223,-4.1205,-4.1086,-4.0916,-4.0765,-4.0558,-4.0455,-4.0436,-4.0366,-4.0277,-4.0242,-4.0191,-4.0086,-3.996,-3.9854,-3.9732,-3.9625,-3.9553,-3.9496,-3.9424,-3.9388,-3.9388,-3.9388,-3.9388,-3.9337,-3.9286,-3.9068,-3.8811,-5.2358,-5.2264,-5.2023,-5.1833,-5.1708,-5.1556,-5.1428,-5.1298,-5.1158,-5.1025,-5.0918,-5.0891,-5.0891,-5.0863,-5.0702,-5.0547,-5.0397,-5.0246,-5.012,-5.0022,-5.0011,-5.0011,-5.0011,-5.0011,-5.0011,-5.0011,-5.0011,-5.0011,-5.0011,-5.0011,-5.0011,-4.9959,-4.9959,-4.9786,-4.9551,-4.9205,-4.8704,-4.7916,-4.7661,-4.7361,-4.7124,-4.7124,-4.7005,-4.6329,-4.5911,-4.5448,-4.4882,-4.4368,-4.4156,-4.3898,-4.3734,-4.3645,-4.3598,-4.3615,-4.3615,-4.3615,-4.3615,-4.3615,-4.3615,-4.3615,-4.3615,-4.3615,-4.3615,-4.3615,-4.3615,-4.3615,-4.3598,-4.3492,-4.3402,-4.3251,-4.3129,-4.3037,-4.2899,-4.2806,-4.2665,-4.2571,-4.2571,-4.2539,-4.2445,-4.2349,-4.2254,-4.219,-4.2045,-4.185,-4.1784,-4.1752,-4.1538,-4.1456,-4.1406,-4.1305,-4.1171,-4.1003,-4.0799,-4.0662,-4.0627,-4.0574,-4.0436,-4.0401,-4.0401,-4.0261,-4.0156,-3.9945,-3.9803,-3.9732,-3.9625,-3.9532,-3.9496,-3.946,-3.9424,-3.9388,-3.9388,-3.9388,-3.9337,-3.9286,-3.9068,-5.241,-5.2264,-5.2029,-5.1858,-5.1715,-5.1582,-5.1454,-5.1324,-5.1185,-5.1034,-5.0927,-5.0918,-5.0891,-5.0819,-5.0747,-5.0564,-5.0425,-5.0313,-5.0178,-5.0051,-5.0011,-5.0011,-5.0011,-5.0011,-5.0011,-5.0011,-5.0011,-5.0011,-5.0011,-4.9838,-4.9671,-4.9792,-4.9602,-4.9344,-4.8776,-4.834,-4.7848,-4.7227,-4.6765,-4.6285,-4.6177,-4.621,-4.6075,-4.5821,-4.5471,-4.5064,-4.45,-4.4172,-4.3998,-4.3852,-4.3704,-4.3645,-4.3615,-4.3615,-4.3615,-4.3615,-4.3615,-4.3615,-4.3615,-4.3615,-4.3615,-4.3615,-4.3615,-4.3615,-4.3615,-4.3598,-4.3598,-4.3552,-4.3462,-4.3372,-4.3281,-4.319,-4.3037,-4.2868,-4.2744,-4.2602,-4.2602,-4.2602,-4.2508,-4.2413,-4.2381,-4.2318,-4.2206,-4.2045,-4.1947,-4.1898,-4.1833,-4.1719,-4.1604,-4.1489,-4.1357,-4.1223,-4.1088,-4.0969,-4.0867,-4.078,-4.0658,-4.0574,-4.0558,-4.0455,-4.0316,-4.0156,-3.998,-3.9874,-3.9768,-3.9676,-3.9568,-3.9517,-3.9496,-3.9424,-3.9388,-3.9388,-3.9388,-3.9337,-3.9286,-5.2485,-5.2287,-5.2126,-5.198,-5.1858,-5.1733,-5.1607,-5.1454,-5.1324,-5.1167,-5.1052,-5.0945,-5.0891,-5.0891,-5.0891,-5.0737,-5.0519,-5.0397,-5.0257,-5.016,-5.0051,-4.9993,-4.9942,-4.9838,-4.9976,-4.9907,-4.9821,-4.9942,-4.9528,-4.9172,-4.9016,-4.9016,-4.8379,-4.8137,-4.7961,-4.7534,-4.7096,-4.6465,-4.6005,-4.5585,-4.528,-4.5297,-4.5365,-4.5083,-4.4643,-4.4416,-4.4172,-4.3998,-4.3852,-4.3704,-4.3628,-4.3615,-4.3615,-4.3615,-4.3615,-4.3615,-4.3615,-4.3615,-4.3615,-4.3615,-4.3615,-4.3615,-4.3615,-4.3615,-4.3615,-4.3615,-4.3598,-4.3598,-4.3539,-4.3509,-4.3419,-4.3342,-4.3221,-4.2961,-4.2744,-4.2665,-4.2602,-4.2602,-4.2571,-4.2539,-4.2539,-4.2445,-4.2397,-4.227,-4.219,-4.2109,-4.1947,-4.185,-4.1801,-4.1687,-4.154,-4.1456,-4.1339,-4.1187,-4.1068,-4.1,-4.0898,-4.0814,-4.0696,-4.0593,-4.0505,-4.0331,-4.0191,-4.0051,-3.998,-3.9889,-3.9783,-3.9661,-3.9553,-3.9496,-3.9424,-3.9388,-3.9388,-3.9388,-3.9337]},{"header":{"parameterUnit":"m.s-1","parameterCategory":1,"la1":31.0,"la2":29.5877,"lo1":-88.7671,"lo2":-86.6584,"dy":0.0162,"dx":0.0185,"nx":115,"ny":88,"refTime":"2023-07-18T12:00:00:Z","depth":0,"parameterNumber":3,"parameterNumberName":"V-component_of_WINDS"},"data":[0.0,0.0,0.0,0.0,0.0,0.0,0.0,0.0,0.0,0.0,0.0,0.0,0.0,0.0,0.0,0.0,0.0,0.0,0.0,0.0,0.0,0.0,0.0,0.0,0.0,0.0,0.0,0.0,0.0,0.0,0.0,0.0,0.0,0.0,0.0,0.0,0.0,0.0,0.0,0.0,0.0,0.0,0.0,0.0,0.0,0.0,0.0,0.0,0.0,0.0,0.0,0.0,0.0,0.0,0.0,0.0,0.0,0.0,0.0,0.0,0.0,0.0,0.0,0.0,0.0,0.0,0.0,0.0,0.0,0.0,0.0,0.0,0.0,0.0,0.0,0.0,0.0,0.0,0.0,0.0,0.0,0.0,0.0,0.0,0.0,0.0,0.0,0.0,0.0,0.0,0.0,0.0,0.0,0.0,0.0,0.0,0.0,0.0,0.0,0.0,0.0,0.0,0.0,0.0,0.0,0.0,0.0,0.0,0.0,0.0,0.0,0.0,0.0,0.0,0.0,0.0,0.0,0.0,0.0,0.0,0.0,0.0,0.0,0.0,0.0,0.0,0.0,0.0,0.0,0.0,0.0,0.0,0.0,0.0,0.0,0.0,0.0,0.0,0.0,0.0,0.0,0.0,0.0,0.0,0.0,0.0,0.0,0.0,0.0,0.0,0.0,0.0,0.0,0.0,0.0,0.0,0.0,0.0,0.0,0.0,0.0,0.0,0.0,0.0,0.0,0.0,0.0,0.0,0.0,0.0,0.0,0.0,0.0,0.0,0.0,0.0,0.0,0.0,0.0,0.0,0.0,0.0,0.0,0.0,0.0,0.0,0.0,0.0,0.0,0.0,0.0,0.0,0.0,0.0,0.0,0.0,0.0,0.0,0.0,0.0,0.0,0.0,0.0,0.0,0.0,0.0,0.0,0.0,0.0,0.0,0.0,0.0,0.0,0.0,0.0,0.0,0.0,0.0,0.0,0.0,0.0,0.0,0.0,0.0,0.0,0.0,0.0,0.0,0.0,0.0,0.0,0.0,0.0,0.0,0.0,0.0,0.0,0.0,0.0,0.0,0.0,0.0,0.0,0.0,0.0,0.0,0.0,0.0,0.0,0.0,0.0,0.0,0.0,0.0,0.0,0.0,0.0,0.0,0.0,0.0,0.0,0.0,0.0,0.0,0.0,0.0,0.0,0.0,0.0,0.0,0.0,0.0,0.0,0.0,0.0,0.0,0.0,0.0,0.0,0.0,0.0,0.0,0.0,0.0,0.0,0.0,0.0,0.0,0.0,0.0,0.0,0.0,0.0,0.0,0.0,0.0,0.0,0.0,0.0,0.0,0.0,0.0,0.0,0.0,0.0,0.0,0.0,0.0,0.0,0.0,0.0,0.0,0.0,0.0,0.0,0.0,0.0,0.0,0.0,0.0,0.0,0.0,0.0,0.0,0.0,0.0,0.0,0.0,0.0,0.0,0.0,0.0,0.0,0.0,0.0,0.0,0.0,0.0,0.0,0.0,0.0,0.0,0.0,0.0,0.0,0.0,0.0,0.0,0.0,0.0,0.0,0.0,0.0,0.0,0.0,0.0,0.0,0.0,0.0,0.0,0.0,0.0,0.0,0.0,0.0,0.0,0.0,0.0,0.0,0.0,0.0,0.0,0.0,0.0,0.0,0.0,0.0,0.0,0.0,0.0,0.0,0.0,0.0,0.0,0.0,0.0,0.0,0.0,0.0,0.0,0.0,0.0,0.0,0.0,0.0,0.0,0.0,0.0,0.0,0.0,0.0,0.0,0.0,0.0,0.0,0.0,0.0,0.0,0.0,0.0,0.0,0.0,0.0,0.0,0.0,0.0,0.0,0.0,0.0,0.0,0.0,0.0,0.0,0.0,0.0,0.0,0.0,0.0,0.0,0.0,0.0,0.0,0.0,0.0,0.0,0.0,0.0,0.0,0.0,0.0,0.0,0.0,0.0,0.0,0.0,0.0,0.0,0.0,0.0,0.0,0.0,0.0,0.0,0.0,0.0,0.0,0.0,0.0,0.0,0.0,0.0,0.0,0.0,0.0,0.0,0.0,0.0,0.0,0.0,0.0,0.0,0.0,0.0,0.0,0.0,0.0,0.0,0.0,0.0,0.0,0.0,0.0,0.0,0.0,0.0,0.0,0.0,0.0,0.0,0.0,0.0,0.0,0.0,0.0,0.0,0.0,0.0,0.0,0.0,0.0,0.0,0.0,0.0,0.0,0.0,0.0,0.0,0.0,0.0,0.0,0.0,0.0,0.0,0.0,0.0,0.0,0.0,0.0,0.0,0.0,0.0,0.0,0.0,0.0,0.0,0.0,0.0,0.0,0.0,0.0,0.0,0.0,0.0,0.0,0.0,0.0,0.0,0.0,0.0,0.0,0.0,0.0,0.0,0.0,0.0,0.0,0.0,0.0,0.0,0.0,0.0,0.0,0.0,0.0,0.0,0.0,0.0,0.0,0.0,0.0,0.0,0.0,0.0,0.0,0.0,0.0,0.0,0.0,0.0,0.0,0.0,0.0,0.0,0.0,0.0,0.0,0.0,0.0,0.0,0.0,0.0,0.0,0.0,0.0,0.0,0.0,0.0,0.0,0.0,0.0,0.0,0.0,0.0,0.0,0.0,0.0,0.0,0.0,0.0,0.0,0.0,0.0,0.0,0.0,0.0,0.0,0.0,0.0,0.0,0.0,0.0,0.0,0.0,0.0,0.0,0.0,0.0,0.0,0.0,0.0,0.0,0.0,0.0,0.0,0.0,0.0,0.0,0.0,0.0,0.0,0.0,0.0,0.0,0.0,0.0,0.0,0.0,0.0,0.0,0.0,0.0,0.0,0.0,0.0,0.0,0.0,0.0,0.0,0.0,0.0,0.0,0.0,0.0,0.0,0.0,0.0,0.0,0.0,0.0,0.0,0.0,0.0,0.0,0.0,0.0,0.0,0.0,0.0,0.0,0.0,0.0,0.0,0.0,0.0,0.0,0.0,0.0,0.0,0.0,0.0,0.0,0.0,0.0,0.0,0.0,0.0,0.0,0.0,0.0,0.0,0.0,0.0,0.0,0.0,0.0,0.0,0.0,0.0,0.0,0.0,0.0,0.0,0.0,0.0,0.0,0.0,0.0,0.0,0.0,0.0,0.0,0.0,0.0,0.0,0.0,0.0,0.0,0.0,0.0,0.0,0.0,0.0,0.0,0.0,0.0,0.0,0.0,0.0,0.0,0.0,0.0,0.0,0.0,0.0,0.0,0.0,0.0,0.0,0.0,0.0,0.0,0.0,0.0,0.0,0.0,0.0,0.0,0.0,0.0,0.0,0.0,0.0,0.0,0.0,0.0,0.0,0.0,0.0,0.0,0.0,0.0,0.0,0.0,0.0,0.0,0.0,0.0,0.0,0.0,0.0,0.0,0.0,0.0,0.0,0.0,0.0,0.0,0.0,0.0,0.0,0.0,0.0,0.0,0.0,0.0,0.0,0.0,0.0,0.0,0.0,0.0,0.0,0.0,0.0,0.0,0.0,0.0,0.0,0.0,0.0,0.0,0.0,0.0,0.0,0.0,0.0,0.0,0.0,0.0,0.0,0.0,0.0,0.0,0.0,0.0,0.0,0.0,0.0,0.0,0.0,0.0,0.0,0.0,0.0,0.0,0.0,0.0,0.0,0.0,0.0,0.0,0.0,0.0,0.0,0.0,0.0,0.0,0.0,0.0,0.0,0.0,0.0,0.0,0.0,0.0,0.0,0.0,0.0,0.0,0.0,0.0,0.0,0.0,0.0,0.0,0.0,0.0,0.0,0.0,0.0,0.0,0.0,0.0,0.0,0.0,0.0,0.0,0.0,0.0,0.0,0.0,0.0,0.0,0.0,0.0,0.0,0.0,0.0,0.0,0.0,0.0,0.0,0.0,0.0,0.0,0.0,0.0,0.0,0.0,0.0,0.0,0.0,0.0,0.0,0.0,0.0,0.0,0.0,0.0,0.0,0.0,0.0,0.0,0.0,0.0,0.0,0.0,0.0,0.0,0.0,0.0,0.0,0.0,0.0,0.0,0.0,0.0,0.0,0.0,0.0,0.0,0.0,0.0,0.0,0.0,0.0,0.0,0.0,0.0,0.0,0.0,0.0,0.0,0.0,0.0,0.0,0.0,0.0,0.0,0.0,0.0,0.0,0.0,0.0,0.0,0.0,0.0,0.0,0.0,0.0,0.0,0.0,0.0,0.0,0.0,0.0,0.0,0.0,0.0,0.0,0.0,0.0,0.0,0.0,0.0,0.0,-1.7947,0.0,0.0,0.0,0.0,0.0,0.0,0.0,0.0,0.0,0.0,0.0,0.0,0.0,0.0,0.0,0.0,0.0,0.0,0.0,0.0,0.0,0.0,0.0,0.0,0.0,0.0,0.0,0.0,0.0,0.0,0.0,0.0,0.0,0.0,0.0,0.0,0.0,0.0,0.0,0.0,0.0,0.0,0.0,0.0,0.0,0.0,0.0,0.0,0.0,0.0,0.0,0.0,0.0,0.0,0.0,0.0,0.0,0.0,0.0,0.0,0.0,0.0,0.0,0.0,0.0,0.0,0.0,0.0,0.0,0.0,0.0,0.0,0.0,0.0,0.0,0.0,0.0,0.0,0.0,0.0,0.0,0.0,0.0,0.0,0.0,0.0,0.0,0.0,0.0,0.0,0.0,0.0,0.0,0.0,0.0,0.0,0.0,0.0,0.0,0.0,0.0,0.0,0.0,0.0,0.0,0.0,0.0,0.0,0.0,0.0,-1.7621,-1.7707,-1.7854,-1.7994,-1.8087,0.0,0.0,0.0,0.0,0.0,0.0,0.0,0.0,0.0,0.0,0.0,0.0,0.0,0.0,0.0,0.0,0.0,0.0,0.0,0.0,0.0,0.0,0.0,0.0,0.0,0.0,0.0,0.0,0.0,0.0,0.0,0.0,0.0,0.0,0.0,0.0,0.0,0.0,0.0,0.0,0.0,0.0,0.0,0.0,0.0,0.0,0.0,0.0,0.0,0.0,0.0,0.0,0.0,0.0,0.0,0.0,0.0,0.0,0.0,0.0,0.0,0.0,0.0,0.0,0.0,0.0,0.0,0.0,0.0,0.0,0.0,0.0,0.0,0.0,0.0,0.0,0.0,0.0,0.0,0.0,0.0,0.0,0.0,0.0,0.0,0.0,0.0,0.0,0.0,0.0,0.0,0.0,0.0,0.0,0.0,0.0,0.0,0.0,0.0,0.0,0.0,0.0,0.0,0.0,0.0,0.0,0.0,0.0,0.0,0.0,0.0,0.0,-1.8179,-1.8234,-1.8365,0.0,0.0,0.0,0.0,0.0,0.0,0.0,0.0,0.0,0.0,0.0,0.0,0.0,0.0,0.0,0.0,0.0,0.0,0.0,0.0,0.0,0.0,0.0,0.0,0.0,0.0,0.0,0.0,0.0,0.0,0.0,0.0,0.0,0.0,0.0,0.0,0.0,0.0,0.0,0.0,0.0,0.0,0.0,0.0,0.0,0.0,0.0,0.0,0.0,0.0,0.0,0.0,0.0,0.0,0.0,0.0,0.0,0.0,0.0,0.0,0.0,0.0,0.0,0.0,0.0,0.0,0.0,0.0,0.0,0.0,0.0,0.0,0.0,0.0,0.0,0.0,0.0,0.0,0.0,0.0,0.0,0.0,0.0,0.0,0.0,0.0,0.0,0.0,0.0,0.0,0.0,0.0,0.0,0.0,0.0,0.0,0.0,0.0,0.0,0.0,0.0,0.0,0.0,0.0,0.0,0.0,0.0,0.0,0.0,0.0,-1.8234,-1.8481,-1.8481,0.0,-1.9104,0.0,0.0,0.0,0.0,0.0,0.0,0.0,0.0,0.0,0.0,0.0,0.0,0.0,0.0,0.0,0.0,0.0,0.0,0.0,0.0,0.0,0.0,0.0,0.0,0.0,0.0,0.0,0.0,0.0,0.0,0.0,0.0,0.0,0.0,0.0,0.0,0.0,0.0,0.0,0.0,0.0,0.0,0.0,0.0,0.0,0.0,0.0,0.0,0.0,0.0,0.0,0.0,0.0,0.0,0.0,0.0,0.0,0.0,0.0,0.0,0.0,0.0,0.0,0.0,0.0,0.0,0.0,0.0,0.0,0.0,0.0,0.0,0.0,0.0,0.0,0.0,0.0,0.0,0.0,0.0,0.0,0.0,0.0,0.0,0.0,0.0,0.0,0.0,0.0,0.0,0.0,0.0,0.0,0.0,0.0,0.0,0.0,0.0,0.0,0.0,0.0,0.0,0.0,0.0,0.0,0.0,0.0,0.0,0.0,0.0,-1.8773,-1.8928,-1.9074,-1.922,0.0,0.0,0.0,0.0,0.0,0.0,0.0,0.0,0.0,0.0,0.0,0.0,0.0,0.0,0.0,0.0,0.0,0.0,0.0,0.0,0.0,0.0,0.0,0.0,0.0,0.0,0.0,0.0,0.0,0.0,0.0,0.0,0.0,0.0,0.0,0.0,0.0,0.0,0.0,0.0,0.0,0.0,0.0,0.0,0.0,0.0,0.0,0.0,0.0,0.0,0.0,0.0,0.0,0.0,0.0,0.0,0.0,0.0,0.0,0.0,0.0,0.0,0.0,0.0,0.0,0.0,0.0,0.0,0.0,0.0,0.0,0.0,0.0,0.0,0.0,0.0,0.0,0.0,0.0,0.0,0.0,0.0,0.0,0.0,0.0,0.0,0.0,0.0,0.0,0.0,0.0,0.0,0.0,0.0,0.0,0.0,0.0,0.0,0.0,0.0,0.0,0.0,0.0,0.0,0.0,0.0,0.0,0.0,0.0,0.0,-1.9112,-1.9333,-1.9342,-1.9571,-1.9671,-1.9671,0.0,0.0,0.0,0.0,0.0,0.0,0.0,0.0,0.0,0.0,0.0,0.0,0.0,0.0,0.0,0.0,0.0,0.0,0.0,0.0,0.0,0.0,0.0,0.0,0.0,0.0,0.0,0.0,0.0,0.0,0.0,0.0,0.0,0.0,0.0,0.0,0.0,0.0,0.0,0.0,0.0,0.0,0.0,0.0,0.0,0.0,0.0,0.0,0.0,0.0,0.0,0.0,0.0,0.0,0.0,0.0,0.0,0.0,0.0,0.0,0.0,0.0,0.0,0.0,0.0,0.0,0.0,0.0,0.0,0.0,0.0,0.0,0.0,0.0,0.0,0.0,0.0,0.0,0.0,0.0,0.0,0.0,0.0,0.0,0.0,0.0,0.0,0.0,0.0,0.0,0.0,0.0,0.0,0.0,0.0,0.0,0.0,0.0,0.0,0.0,0.0,0.0,0.0,0.0,0.0,0.0,0.0,0.0,-1.955,-1.9596,-1.9596,-1.9587,-1.9799,-1.9882,0.0,0.0,0.0,0.0,0.0,0.0,0.0,0.0,0.0,0.0,0.0,0.0,0.0,0.0,0.0,0.0,0.0,0.0,0.0,0.0,0.0,0.0,0.0,0.0,0.0,0.0,0.0,0.0,0.0,0.0,0.0,0.0,0.0,0.0,0.0,0.0,0.0,0.0,0.0,0.0,0.0,0.0,0.0,0.0,0.0,0.0,0.0,0.0,0.0,0.0,0.0,0.0,0.0,0.0,0.0,0.0,0.0,0.0,0.0,0.0,0.0,0.0,0.0,0.0,0.0,0.0,0.0,0.0,0.0,0.0,0.0,0.0,0.0,0.0,0.0,0.0,0.0,0.0,0.0,0.0,0.0,0.0,0.0,0.0,0.0,0.0,0.0,0.0,0.0,0.0,0.0,0.0,0.0,0.0,0.0,0.0,0.0,0.0,0.0,0.0,0.0,0.0,0.0,0.0,0.0,0.0,0.0,0.0,0.0,-1.9901,-2.0095,-2.0251,-2.0437,-2.0429,-2.0428,0.0,0.0,0.0,0.0,0.0,0.0,0.0,0.0,0.0,0.0,0.0,0.0,0.0,0.0,0.0,0.0,0.0,0.0,0.0,0.0,0.0,0.0,0.0,0.0,0.0,0.0,0.0,0.0,0.0,0.0,0.0,0.0,0.0,0.0,0.0,0.0,0.0,0.0,0.0,0.0,0.0,0.0,0.0,0.0,0.0,0.0,0.0,0.0,0.0,0.0,0.0,0.0,0.0,0.0,0.0,0.0,0.0,0.0,0.0,0.0,0.0,0.0,0.0,0.0,0.0,0.0,0.0,0.0,0.0,0.0,0.0,0.0,0.0,0.0,0.0,0.0,0.0,0.0,0.0,0.0,0.0,0.0,0.0,0.0,0.0,0.0,0.0,0.0,0.0,0.0,0.0,0.0,0.0,0.0,0.0,0.0,0.0,0.0,0.0,0.0,0.0,0.0,0.0,0.0,0.0,0.0,0.0,0.0,0.0,-2.0493,0.0,-2.0981,-2.1178,-2.1046,-2.0982,0.0,0.0,0.0,0.0,0.0,0.0,0.0,0.0,0.0,0.0,0.0,0.0,0.0,0.0,0.0,0.0,0.0,0.0,0.0,0.0,0.0,0.0,0.0,0.0,0.0,0.0,0.0,0.0,0.0,0.0,0.0,0.0,0.0,0.0,0.0,0.0,0.0,0.0,0.0,0.0,0.0,0.0,0.0,0.0,0.0,0.0,0.0,0.0,0.0,0.0,0.0,0.0,0.0,0.0,0.0,0.0,0.0,0.0,0.0,0.0,0.0,0.0,0.0,0.0,0.0,0.0,0.0,0.0,0.0,0.0,0.0,0.0,0.0,0.0,0.0,0.0,0.0,0.0,0.0,0.0,0.0,0.0,0.0,0.0,0.0,0.0,0.0,0.0,0.0,0.0,0.0,0.0,0.0,0.0,0.0,0.0,0.0,0.0,0.0,0.0,0.0,0.0,0.0,0.0,0.0,0.0,0.0,0.0,-2.0857,-2.1396,-2.17,-2.1796,-2.1787,-2.1655,-2.1591,0.0,0.0,0.0,0.0,0.0,0.0,0.0,0.0,0.0,0.0,0.0,0.0,0.0,0.0,0.0,0.0,0.0,0.0,0.0,0.0,0.0,0.0,0.0,0.0,0.0,0.0,0.0,0.0,0.0,0.0,0.0,0.0,0.0,0.0,0.0,0.0,0.0,0.0,0.0,0.0,0.0,0.0,0.0,0.0,0.0,0.0,0.0,0.0,0.0,0.0,0.0,0.0,0.0,0.0,0.0,0.0,0.0,0.0,0.0,0.0,0.0,0.0,0.0,0.0,0.0,0.0,0.0,0.0,0.0,0.0,0.0,0.0,0.0,0.0,0.0,0.0,0.0,0.0,0.0,0.0,0.0,0.0,0.0,0.0,0.0,0.0,0.0,0.0,0.0,0.0,0.0,0.0,0.0,0.0,0.0,0.0,0.0,0.0,0.0,0.0,0.0,0.0,0.0,0.0,0.0,0.0,0.0,0.0,0.0,-2.2342,-2.2448,-2.2496,-2.247,-2.2096,-2.1886,0.0,0.0,0.0,0.0,0.0,0.0,0.0,0.0,0.0,0.0,0.0,0.0,0.0,0.0,0.0,0.0,0.0,0.0,0.0,0.0,0.0,0.0,0.0,0.0,0.0,0.0,0.0,0.0,0.0,0.0,0.0,0.0,0.0,0.0,0.0,0.0,0.0,0.0,0.0,0.0,0.0,0.0,0.0,0.0,0.0,0.0,0.0,0.0,0.0,0.0,0.0,0.0,0.0,0.0,0.0,0.0,0.0,0.0,0.0,0.0,0.0,0.0,0.0,0.0,0.0,0.0,0.0,0.0,0.0,0.0,0.0,0.0,0.0,0.0,0.0,0.0,0.0,0.0,0.0,0.0,0.0,0.0,0.0,0.0,0.0,0.0,0.0,0.0,0.0,0.0,0.0,0.0,0.0,0.0,0.0,0.0,0.0,0.0,0.0,0.0,0.0,0.0,0.0,0.0,0.0,0.0,0.0,0.0,0.0,-2.3336,-2.3238,-2.3198,-2.314,-2.2754,-2.2488,-2.2343,0.0,0.0,0.0,0.0,0.0,0.0,0.0,0.0,0.0,0.0,0.0,0.0,0.0,0.0,0.0,0.0,0.0,0.0,0.0,0.0,0.0,0.0,0.0,0.0,0.0,0.0,0.0,0.0,0.0,0.0,0.0,0.0,0.0,0.0,0.0,0.0,0.0,0.0,0.0,0.0,0.0,0.0,0.0,0.0,0.0,0.0,0.0,0.0,0.0,0.0,0.0,0.0,0.0,0.0,0.0,0.0,0.0,0.0,0.0,0.0,0.0,0.0,0.0,0.0,0.0,0.0,0.0,0.0,0.0,0.0,0.0,0.0,0.0,0.0,0.0,0.0,0.0,0.0,0.0,0.0,0.0,0.0,0.0,0.0,0.0,0.0,0.0,0.0,0.0,0.0,0.0,0.0,0.0,0.0,0.0,0.0,0.0,0.0,0.0,0.0,0.0,0.0,0.0,0.0,0.0,0.0,0.0,0.0,-2.4211,-2.3954,-2.3795,-2.3836,-2.3602,-2.3306,0.0,0.0,0.0,0.0,0.0,0.0,0.0,0.0,0.0,0.0,0.0,0.0,0.0,0.0,0.0,0.0,0.0,0.0,0.0,0.0,0.0,0.0,0.0,0.0,0.0,0.0,0.0,0.0,0.0,0.0,0.0,0.0,0.0,0.0,0.0,0.0,0.0,0.0,0.0,0.0,0.0,0.0,0.0,0.0,0.0,0.0,0.0,0.0,0.0,0.0,0.0,0.0,0.0,0.0,0.0,0.0,0.0,0.0,0.0,0.0,0.0,0.0,0.0,0.0,0.0,0.0,0.0,0.0,0.0,0.0,0.0,0.0,0.0,0.0,0.0,0.0,0.0,0.0,0.0,0.0,0.0,0.0,0.0,0.0,0.0,0.0,0.0,0.0,0.0,0.0,0.0,0.0,0.0,0.0,0.0,0.0,0.0,0.0,0.0,0.0,0.0,0.0,0.0,0.0,0.0,0.0,0.0,0.0,0.0,-2.4211,-2.4152,-2.4102,-2.4093,-2.3709,-2.3306,0.0,0.0,0.0,0.0,0.0,0.0,0.0,0.0,0.0,0.0,0.0,0.0,0.0,0.0,0.0,0.0,0.0,0.0,0.0,0.0,0.0,0.0,0.0,0.0,0.0,0.0,0.0,0.0,0.0,0.0,0.0,0.0,0.0,0.0,0.0,0.0,0.0,0.0,0.0,0.0,0.0,0.0,0.0,0.0,0.0,0.0,0.0,0.0,0.0,0.0,0.0,0.0,0.0,0.0,0.0,0.0,0.0,0.0,0.0,0.0,0.0,0.0,0.0,0.0,0.0,0.0,0.0,0.0,0.0,0.0,0.0,0.0,0.0,0.0,0.0,0.0,0.0,0.0,0.0,0.0,0.0,0.0,0.0,0.0,0.0,0.0,0.0,0.0,0.0,0.0,0.0,0.0,0.0,0.0,0.0,0.0,0.0,0.0,0.0,0.0,0.0,0.0,0.0,0.0,0.0,0.0,0.0,0.0,-2.4211,-2.4211,-2.4211,-2.4211,-2.4211,-2.3923,-2.3669,0.0,0.0,0.0,0.0,0.0,0.0,0.0,0.0,0.0,0.0,0.0,0.0,0.0,0.0,0.0,0.0,0.0,0.0,0.0,0.0,0.0,0.0,0.0,0.0,0.0,0.0,0.0,0.0,0.0,0.0,0.0,0.0,0.0,0.0,0.0,0.0,0.0,0.0,0.0,0.0,0.0,0.0,0.0,0.0,0.0,0.0,0.0,0.0,0.0,0.0,0.0,0.0,0.0,0.0,0.0,0.0,0.0,0.0,0.0,0.0,0.0,0.0,0.0,0.0,0.0,0.0,0.0,0.0,0.0,0.0,0.0,0.0,0.0,0.0,0.0,0.0,0.0,0.0,0.0,0.0,0.0,0.0,0.0,0.0,0.0,0.0,0.0,0.0,0.0,0.0,0.0,0.0,0.0,0.0,0.0,0.0,0.0,0.0,0.0,0.0,0.0,0.0,0.0,0.0,0.0,0.0,0.0,0.0,-2.4192,-2.4202,-2.4251,-2.426,-2.426,-2.4251,-2.4116,0.0,0.0,0.0,0.0,0.0,0.0,0.0,0.0,0.0,0.0,0.0,0.0,0.0,0.0,0.0,0.0,0.0,0.0,0.0,0.0,0.0,0.0,0.0,0.0,0.0,0.0,0.0,0.0,0.0,0.0,0.0,0.0,0.0,0.0,0.0,0.0,0.0,0.0,0.0,0.0,0.0,0.0,0.0,0.0,0.0,0.0,0.0,0.0,0.0,0.0,0.0,0.0,0.0,0.0,0.0,0.0,0.0,0.0,0.0,0.0,0.0,0.0,0.0,0.0,0.0,0.0,0.0,0.0,0.0,0.0,0.0,0.0,0.0,0.0,0.0,0.0,0.0,0.0,0.0,0.0,0.0,0.0,0.0,0.0,0.0,0.0,0.0,0.0,0.0,0.0,0.0,0.0,0.0,0.0,0.0,0.0,0.0,0.0,0.0,0.0,0.0,0.0,0.0,0.0,0.0,0.0,0.0,0.0,-2.4301,-2.443,-2.4449,-2.4538,-2.4735,-2.4529,-2.4303,0.0,0.0,0.0,0.0,0.0,0.0,0.0,0.0,0.0,0.0,0.0,0.0,0.0,0.0,0.0,0.0,0.0,0.0,0.0,0.0,0.0,0.0,0.0,0.0,0.0,0.0,0.0,0.0,0.0,0.0,0.0,0.0,0.0,0.0,0.0,0.0,0.0,0.0,0.0,0.0,0.0,0.0,0.0,0.0,0.0,0.0,0.0,0.0,-2.736,0.0,0.0,0.0,0.0,0.0,0.0,0.0,0.0,0.0,0.0,0.0,0.0,0.0,0.0,0.0,0.0,0.0,0.0,0.0,0.0,0.0,0.0,0.0,0.0,0.0,0.0,0.0,0.0,0.0,0.0,0.0,0.0,0.0,0.0,0.0,0.0,0.0,0.0,0.0,0.0,0.0,0.0,0.0,0.0,0.0,0.0,0.0,0.0,0.0,0.0,0.0,0.0,0.0,0.0,0.0,0.0,0.0,0.0,0.0,-2.4381,-2.4489,-2.4627,-2.4735,-2.4883,-2.4892,-2.4779,0.0,0.0,0.0,0.0,0.0,0.0,0.0,0.0,0.0,0.0,0.0,0.0,0.0,0.0,0.0,0.0,0.0,0.0,0.0,0.0,0.0,0.0,0.0,0.0,0.0,0.0,0.0,0.0,0.0,0.0,0.0,0.0,0.0,0.0,0.0,0.0,0.0,0.0,0.0,0.0,0.0,0.0,0.0,0.0,0.0,0.0,0.0,0.0,0.0,0.0,0.0,0.0,0.0,0.0,0.0,0.0,0.0,0.0,0.0,0.0,0.0,0.0,0.0,0.0,0.0,0.0,0.0,0.0,0.0,0.0,0.0,0.0,0.0,0.0,0.0,0.0,0.0,0.0,0.0,0.0,0.0,0.0,0.0,0.0,0.0,0.0,0.0,0.0,0.0,0.0,0.0,0.0,0.0,0.0,0.0,0.0,0.0,0.0,0.0,0.0,0.0,0.0,0.0,0.0,0.0,0.0,0.0,-2.4489,-2.4578,-2.4637,-2.4843,-2.4981,-2.5039,-2.5235,-2.5382,-2.5382,0.0,0.0,0.0,0.0,0.0,0.0,0.0,0.0,0.0,0.0,0.0,0.0,0.0,0.0,0.0,0.0,0.0,0.0,0.0,0.0,0.0,0.0,0.0,0.0,0.0,0.0,0.0,0.0,0.0,0.0,0.0,0.0,0.0,0.0,0.0,0.0,0.0,0.0,-2.4982,-2.6066,0.0,0.0,0.0,0.0,0.0,0.0,0.0,0.0,-2.7962,0.0,0.0,0.0,0.0,0.0,0.0,0.0,0.0,0.0,0.0,0.0,0.0,0.0,0.0,0.0,0.0,0.0,0.0,0.0,0.0,0.0,0.0,0.0,0.0,0.0,0.0,0.0,0.0,0.0,0.0,0.0,0.0,0.0,0.0,0.0,0.0,0.0,0.0,0.0,0.0,0.0,0.0,0.0,0.0,0.0,0.0,0.0,0.0,0.0,0.0,0.0,0.0,0.0,0.0,0.0,0.0,-2.443,-2.4686,-2.4932,-2.5128,-2.5186,-2.5342,-2.5586,-2.5586,-2.5635,-2.5606,0.0,0.0,0.0,0.0,0.0,0.0,0.0,0.0,0.0,0.0,0.0,0.0,0.0,0.0,0.0,0.0,0.0,0.0,0.0,0.0,0.0,0.0,0.0,0.0,0.0,0.0,0.0,0.0,0.0,0.0,0.0,0.0,0.0,0.0,0.0,0.0,0.0,0.0,0.0,-2.6925,-2.7207,0.0,0.0,0.0,0.0,0.0,0.0,0.0,0.0,-2.8391,0.0,0.0,0.0,0.0,0.0,0.0,0.0,0.0,0.0,0.0,0.0,0.0,0.0,0.0,0.0,0.0,0.0,0.0,0.0,0.0,0.0,0.0,0.0,0.0,0.0,0.0,0.0,0.0,0.0,0.0,0.0,0.0,0.0,0.0,0.0,0.0,0.0,0.0,0.0,0.0,0.0,0.0,0.0,0.0,0.0,0.0,0.0,0.0,0.0,0.0,0.0,0.0,0.0,0.0,0.0,-2.4735,-2.499,-2.5186,-2.5284,-2.544,-2.5586,-2.5693,-2.5684,-2.5684,0.0,0.0,0.0,0.0,0.0,0.0,0.0,0.0,0.0,0.0,0.0,0.0,0.0,0.0,0.0,0.0,0.0,0.0,0.0,0.0,0.0,0.0,0.0,0.0,0.0,0.0,0.0,0.0,0.0,0.0,0.0,0.0,0.0,0.0,0.0,0.0,0.0,0.0,0.0,0.0,-2.7423,-2.7774,-2.8047,0.0,0.0,0.0,0.0,0.0,0.0,-2.8431,-2.851,0.0,0.0,0.0,0.0,0.0,0.0,0.0,0.0,0.0,0.0,0.0,0.0,0.0,0.0,0.0,0.0,0.0,0.0,0.0,0.0,0.0,0.0,0.0,0.0,0.0,0.0,0.0,0.0,0.0,0.0,0.0,0.0,0.0,0.0,0.0,0.0,0.0,0.0,0.0,0.0,0.0,0.0,0.0,0.0,0.0,0.0,0.0,0.0,0.0,0.0,0.0,0.0,0.0,0.0,0.0,-2.4981,-2.5235,-2.5391,-2.5391,-2.5586,-2.5684,-2.5684,-2.5684,-2.5684,0.0,0.0,0.0,0.0,0.0,0.0,0.0,0.0,0.0,0.0,0.0,0.0,0.0,0.0,0.0,0.0,0.0,0.0,0.0,0.0,0.0,0.0,0.0,0.0,0.0,0.0,0.0,0.0,0.0,0.0,0.0,0.0,0.0,0.0,0.0,0.0,0.0,0.0,0.0,0.0,0.0,-2.8259,-2.8271,-2.8379,0.0,0.0,0.0,0.0,-2.8667,-2.8791,0.0,0.0,0.0,0.0,0.0,0.0,0.0,0.0,0.0,0.0,0.0,0.0,0.0,0.0,0.0,0.0,0.0,0.0,0.0,0.0,0.0,0.0,0.0,0.0,0.0,0.0,0.0,0.0,0.0,0.0,0.0,0.0,0.0,0.0,0.0,0.0,0.0,0.0,0.0,0.0,0.0,0.0,0.0,0.0,0.0,0.0,0.0,0.0,0.0,0.0,0.0,0.0,0.0,0.0,0.0,0.0,-2.5284,-2.5538,-2.5635,-2.5635,-2.5684,-2.5684,-2.5684,-2.5684,-2.5684,0.0,0.0,0.0,0.0,0.0,0.0,0.0,0.0,0.0,0.0,0.0,0.0,0.0,0.0,0.0,0.0,0.0,0.0,0.0,0.0,0.0,0.0,0.0,0.0,0.0,0.0,0.0,0.0,0.0,0.0,0.0,0.0,0.0,0.0,0.0,0.0,0.0,0.0,0.0,0.0,0.0,-2.8471,-2.8459,-2.851,-2.851,0.0,0.0,-2.9208,-2.9208,-2.9745,0.0,0.0,0.0,0.0,0.0,0.0,0.0,0.0,0.0,0.0,0.0,0.0,0.0,0.0,0.0,0.0,0.0,0.0,0.0,0.0,0.0,0.0,0.0,0.0,0.0,0.0,0.0,0.0,0.0,0.0,0.0,0.0,0.0,0.0,0.0,0.0,0.0,0.0,0.0,0.0,0.0,0.0,0.0,0.0,0.0,0.0,0.0,0.0,0.0,0.0,0.0,0.0,0.0,0.0,0.0,-2.5382,-2.5538,-2.5635,-2.5684,-2.5684,-2.5684,-2.5684,-2.5684,-2.5684,-2.5684,0.0,0.0,0.0,0.0,0.0,0.0,0.0,0.0,0.0,0.0,0.0,0.0,0.0,0.0,0.0,0.0,0.0,0.0,0.0,0.0,0.0,0.0,0.0,0.0,0.0,0.0,0.0,0.0,0.0,0.0,0.0,0.0,0.0,0.0,0.0,0.0,0.0,0.0,0.0,0.0,0.0,0.0,-2.8657,-2.8951,0.0,0.0,0.0,-3.0138,-3.015,0.0,0.0,0.0,0.0,0.0,0.0,0.0,0.0,0.0,0.0,0.0,0.0,0.0,0.0,0.0,0.0,0.0,0.0,0.0,0.0,0.0,0.0,0.0,0.0,0.0,0.0,0.0,0.0,0.0,0.0,0.0,0.0,0.0,0.0,0.0,0.0,0.0,0.0,0.0,0.0,0.0,0.0,0.0,0.0,0.0,0.0,0.0,0.0,0.0,0.0,0.0,0.0,0.0,0.0,0.0,0.0,0.0,-2.5693,-2.5684,-2.5684,-2.5684,-2.5684,-2.5684,-2.5684,-2.5684,0.0,0.0,0.0,0.0,0.0,0.0,0.0,0.0,0.0,0.0,0.0,0.0,0.0,0.0,0.0,0.0,0.0,0.0,0.0,0.0,0.0,0.0,0.0,0.0,0.0,0.0,0.0,-2.4164,0.0,0.0,0.0,0.0,0.0,0.0,0.0,0.0,0.0,0.0,0.0,0.0,0.0,0.0,-2.8757,-2.9077,-2.9431,-2.9829,0.0,0.0,-3.0991,-3.0991,-3.1144,-3.1272,0.0,0.0,0.0,0.0,0.0,0.0,0.0,0.0,0.0,0.0,0.0,0.0,0.0,0.0,0.0,0.0,0.0,0.0,0.0,0.0,0.0,0.0,0.0,0.0,0.0,0.0,0.0,0.0,0.0,0.0,0.0,0.0,0.0,0.0,0.0,0.0,0.0,0.0,0.0,0.0,0.0,0.0,0.0,0.0,0.0,0.0,0.0,0.0,0.0,0.0,0.0,0.0,0.0,0.0,0.0,-2.5684,-2.5684,-2.5684,-2.5684,-2.5684,-2.5684,-2.5684,-2.5684,-2.5684,0.0,0.0,0.0,0.0,0.0,0.0,0.0,0.0,0.0,0.0,0.0,0.0,0.0,0.0,0.0,0.0,0.0,0.0,0.0,0.0,0.0,0.0,0.0,0.0,0.0,0.0,0.0,0.0,0.0,0.0,0.0,0.0,0.0,0.0,0.0,0.0,0.0,0.0,0.0,0.0,0.0,-2.9248,-2.9843,-2.9942,-3.0151,0.0,0.0,-3.154,-3.1527,-3.2117,-3.2568,-3.2556,0.0,0.0,0.0,0.0,0.0,0.0,0.0,0.0,0.0,0.0,0.0,0.0,0.0,0.0,0.0,0.0,0.0,0.0,0.0,0.0,0.0,0.0,0.0,0.0,0.0,0.0,0.0,0.0,0.0,0.0,0.0,0.0,0.0,0.0,0.0,0.0,0.0,0.0,0.0,0.0,0.0,0.0,0.0,0.0,0.0,0.0,0.0,0.0,0.0,0.0,0.0,0.0,0.0,-2.5684,-2.5684,-2.5684,-2.5684,-2.5684,-2.5684,-2.5684,-2.5684,-2.5684,-2.5684,0.0,0.0,0.0,0.0,0.0,0.0,0.0,0.0,0.0,0.0,0.0,0.0,0.0,0.0,0.0,0.0,0.0,0.0,0.0,0.0,0.0,0.0,0.0,0.0,0.0,0.0,0.0,0.0,-2.6007,-2.6481,-2.6916,0.0,0.0,0.0,0.0,0.0,0.0,0.0,0.0,0.0,0.0,-2.9773,-3.0131,-3.0737,0.0,0.0,-3.2137,-3.2554,-3.2511,-3.2771,-3.2952,-3.2939,-3.3025,0.0,0.0,0.0,0.0,0.0,0.0,0.0,0.0,0.0,0.0,0.0,0.0,0.0,0.0,0.0,0.0,0.0,0.0,0.0,0.0,0.0,0.0,0.0,0.0,0.0,0.0,0.0,0.0,0.0,0.0,0.0,0.0,0.0,0.0,0.0,0.0,0.0,0.0,0.0,0.0,0.0,0.0,0.0,0.0,0.0,0.0,0.0,0.0,0.0,0.0,0.0,0.0,-2.5684,-2.5684,-2.5684,-2.5684,-2.5684,-2.5684,-2.5684,-2.5684,-2.5684,-2.5684,0.0,0.0,0.0,0.0,0.0,0.0,0.0,0.0,0.0,0.0,0.0,0.0,0.0,0.0,0.0,0.0,0.0,0.0,0.0,0.0,0.0,0.0,0.0,0.0,0.0,0.0,0.0,0.0,-2.6714,-2.7177,-2.7858,0.0,0.0,0.0,0.0,0.0,0.0,0.0,0.0,0.0,0.0,-3.0332,-3.0792,-3.1543,-3.2122,-3.2411,-3.2805,-3.3124,-3.3124,-3.3124,-3.3124,-3.3124,0.0,0.0,0.0,0.0,0.0,0.0,0.0,0.0,0.0,0.0,0.0,0.0,0.0,0.0,0.0,0.0,0.0,0.0,0.0,0.0,0.0,0.0,0.0,0.0,0.0,0.0,0.0,0.0,0.0,0.0,0.0,0.0,0.0,0.0,0.0,0.0,0.0,0.0,0.0,0.0,0.0,0.0,0.0,0.0,0.0,0.0,0.0,0.0,0.0,0.0,0.0,0.0,0.0,-2.5684,-2.5684,-2.5684,-2.5684,-2.5684,-2.5684,-2.5684,-2.5684,-2.5684,-2.5684,-2.5684,0.0,0.0,0.0,0.0,0.0,0.0,0.0,0.0,0.0,0.0,0.0,0.0,0.0,0.0,0.0,0.0,0.0,0.0,0.0,0.0,0.0,0.0,0.0,0.0,0.0,0.0,-2.6619,-2.7239,-2.787,0.0,0.0,0.0,0.0,0.0,0.0,0.0,0.0,0.0,0.0,-3.0448,-3.0997,-3.1972,-3.216,-3.2386,-3.2968,-3.3068,-3.3124,-3.3124,-3.3124,-3.3124,0.0,0.0,0.0,0.0,0.0,0.0,0.0,0.0,0.0,0.0,0.0,0.0,0.0,0.0,0.0,0.0,0.0,0.0,0.0,0.0,0.0,0.0,0.0,0.0,0.0,0.0,0.0,-2.2315,-2.2464,0.0,0.0,0.0,0.0,0.0,0.0,0.0,0.0,0.0,0.0,0.0,-2.396,-2.4137,0.0,0.0,0.0,0.0,0.0,0.0,0.0,0.0,0.0,0.0,0.0,0.0,-2.5684,-2.5684,-2.5684,-2.5684,-2.5684,-2.5684,-2.5684,-2.5684,-2.5684,-2.5684,-2.5684,0.0,0.0,0.0,0.0,0.0,0.0,0.0,0.0,0.0,0.0,0.0,0.0,0.0,0.0,0.0,0.0,0.0,0.0,0.0,0.0,0.0,0.0,0.0,0.0,0.0,-2.751,0.0,0.0,0.0,0.0,0.0,0.0,0.0,0.0,0.0,0.0,0.0,-3.0276,-3.0463,-3.1182,-3.1813,-3.2164,-3.2541,-3.2855,0.0,0.0,0.0,0.0,0.0,0.0,0.0,0.0,0.0,0.0,0.0,0.0,0.0,0.0,-3.3907,-3.4063,-3.4202,-3.4356,-3.4632,0.0,0.0,0.0,0.0,0.0,0.0,0.0,0.0,0.0,0.0,0.0,0.0,0.0,0.0,0.0,0.0,-2.3155,0.0,0.0,0.0,0.0,0.0,0.0,0.0,0.0,-2.4211,-2.4211,-2.4211,-2.4211,-2.4211,0.0,-2.4489,-2.4735,0.0,0.0,0.0,0.0,0.0,0.0,0.0,0.0,-2.5967,-2.5918,-2.6064,-2.6132,-2.6132,-2.6132,-2.6113,-2.5967,-2.5762,-2.5684,-2.5684,-2.5684,-2.5605,0.0,0.0,0.0,0.0,0.0,0.0,0.0,0.0,0.0,0.0,0.0,0.0,0.0,0.0,0.0,0.0,0.0,0.0,0.0,0.0,0.0,0.0,0.0,-2.8191,0.0,0.0,0.0,0.0,0.0,0.0,0.0,0.0,0.0,-2.9808,-3.0251,-3.0758,-3.1122,-3.1775,-3.229,-3.2491,0.0,0.0,0.0,0.0,0.0,0.0,0.0,-3.3124,-3.3124,-3.3124,-3.3124,-3.3124,-3.327,-3.3484,-3.367,0.0,0.0,-3.4202,-3.4314,-3.4481,-3.4756,-3.4839,-3.5003,-3.5318,-3.5521,-3.5737,0.0,0.0,0.0,0.0,0.0,0.0,0.0,0.0,-2.3459,-2.3459,0.0,-2.3468,0.0,0.0,0.0,0.0,0.0,0.0,0.0,0.0,-2.4257,-2.4238,-2.4257,-2.4266,-2.4257,-2.4238,-2.4742,-2.4949,-2.4988,-2.5244,0.0,0.0,0.0,0.0,0.0,0.0,-2.6406,-2.6416,-2.6787,-2.7002,-2.6992,-2.7002,-2.6797,-2.6396,-2.5977,-2.5703,-2.5693,-2.5684,-2.5684,-2.5674,-2.5571,0.0,0.0,0.0,0.0,0.0,0.0,0.0,0.0,0.0,0.0,0.0,0.0,0.0,0.0,0.0,0.0,0.0,0.0,0.0,0.0,-2.8271,0.0,0.0,0.0,0.0,0.0,0.0,0.0,0.0,0.0,0.0,-3.0643,-3.0696,-3.1047,-3.2064,0.0,0.0,0.0,0.0,-3.3124,-3.3124,-3.3124,-3.3124,-3.3124,-3.3124,-3.3124,-3.3124,0.0,0.0,-3.3124,-3.3283,-3.3471,-3.3683,-3.3949,-3.416,-3.4356,-3.4397,-3.4494,-3.4756,-3.5003,-3.5154,-3.5399,-3.5737,-3.6086,-2.4765,0.0,0.0,0.0,0.0,-2.4184,-2.4305,-2.4305,-2.4242,-2.4335,-2.4551,-2.4551,0.0,0.0,0.0,0.0,0.0,0.0,-2.4601,-2.4661,-2.4946,-2.5074,-2.5074,-2.5074,-2.5074,-2.5074,-2.5567,-2.5822,-2.5873,-2.6278,-2.6394,-2.6211,0.0,0.0,0.0,0.0,-2.6836,-2.6846,-2.6953,-2.7012,-2.7012,-2.7012,-2.6816,-2.6406,-2.6269,-2.6055,-2.5693,-2.5684,-2.5684,-2.5684,-2.5857,0.0,0.0,0.0,0.0,0.0,0.0,0.0,0.0,0.0,0.0,0.0,0.0,0.0,0.0,0.0,0.0,0.0,0.0,0.0,-2.8059,-2.8351,-2.851,0.0,0.0,0.0,0.0,0.0,0.0,0.0,0.0,0.0,-3.1659,-3.1763,-3.1863,0.0,0.0,-3.288,-3.3099,-3.3124,-3.3124,-3.3124,0.0,0.0,0.0,-3.3124,-3.3124,-3.3124,-3.3124,-3.3124,-3.3124,-3.3386,-3.3641,-3.3683,-3.4021,-3.4356,-3.4397,-3.4577,-3.4743,-3.4962,-3.5154,-3.5358,-3.5588,-3.5898,-3.6152,-2.5694,-2.5086,-2.4824,-2.4743,-2.4755,-2.4881,-2.4968,-2.4959,-2.4912,-2.5006,-2.5154,-2.5163,-2.5121,-2.5014,-2.5065,0.0,0.0,0.0,-2.5074,-2.5084,-2.5262,-2.5372,-2.5372,-2.5372,-2.5372,-2.5414,-2.5924,-2.6172,-2.6233,-2.693,-2.7139,-2.6904,0.0,0.0,-2.7021,-2.7187,-2.7275,-2.7275,-2.7441,-2.7519,-2.7519,-2.7353,-2.7158,-2.6894,-2.6572,-2.6269,-2.6006,-2.5781,-2.5684,-2.5684,-2.6062,-2.6222,0.0,0.0,0.0,0.0,0.0,0.0,0.0,0.0,0.0,0.0,0.0,-2.6437,0.0,0.0,0.0,0.0,-2.7615,-2.7914,-2.8299,-2.8431,0.0,0.0,0.0,0.0,0.0,0.0,0.0,-3.0634,-3.129,-3.1926,-3.2466,-3.2554,-3.2554,-3.2554,-3.2855,-3.3124,-3.3124,0.0,-3.3124,-3.3124,-3.3124,-3.3124,-3.3124,-3.3124,-3.3124,-3.3124,-3.3124,-3.3124,-3.3124,-3.3428,-3.367,-3.3755,-3.4063,-3.4397,-3.4397,-3.466,-3.4962,-3.5086,-3.5277,-3.548,-3.5804,-3.6058,-3.6286,-2.6458,-2.6455,-2.6105,-2.5898,-2.576,-2.5685,-2.5622,-2.5567,-2.5523,-2.5515,-2.5515,-2.5515,-2.5454,-2.5417,-2.5433,0.0,0.0,-2.5399,-2.5417,-2.5427,-2.5515,-2.5515,-2.5515,-2.5525,-2.5472,-2.5525,-2.6017,-2.6328,-2.6356,-2.7249,-2.7715,-2.7748,-2.7314,-2.7119,-2.7139,-2.7519,-2.7767,-2.7715,-2.8086,-2.8291,-2.8291,-2.792,-2.7757,-2.7708,-2.6904,-2.6465,-2.6387,-2.6006,-2.5723,-2.5693,-2.6217,-2.6496,-2.6486,0.0,0.0,0.0,0.0,0.0,0.0,0.0,0.0,0.0,0.0,0.0,0.0,0.0,0.0,0.0,-2.8032,0.0,-2.8591,-2.8631,0.0,0.0,0.0,-2.9556,-3.0037,-3.0553,-3.1048,-3.1527,0.0,0.0,0.0,0.0,-3.3124,-3.3124,-3.3124,-3.3124,-3.3124,-3.3124,-3.3124,-3.3124,-3.3124,-3.3124,-3.3124,-3.3124,-3.3124,-3.3124,-3.3124,-3.3124,-3.3124,-3.3428,-3.367,-3.3713,-3.4092,-3.4397,-3.4397,-3.4784,-3.5072,-3.5072,-3.5277,-3.5562,-3.5992,-3.6232,-3.6445,-2.7204,-2.7184,-2.732,-2.7047,-2.6513,-2.67,-2.661,-2.6327,-2.6334,-2.6298,-2.6307,-2.6307,-2.6114,-2.5855,-2.5561,-2.5372,-2.5381,-2.5736,-2.5874,-2.5901,-2.6151,-2.6298,-2.6307,-2.6298,-2.6298,-2.6352,-2.687,-2.7128,-2.7138,-2.782,-2.8144,-2.8135,-2.8047,-2.7988,-2.7988,-2.8086,-2.8144,-2.8144,-2.8242,-2.8301,-2.8281,-2.8193,-2.7998,-2.7738,-2.7523,-2.706,-2.6416,-2.6279,-2.6074,-2.5713,-2.6207,-2.6496,-2.6496,-2.6921,0.0,0.0,0.0,0.0,0.0,0.0,0.0,0.0,0.0,-2.7091,-2.6926,0.0,-2.7877,0.0,-2.8893,-2.9517,-2.9713,-2.9713,0.0,0.0,-2.9905,-2.9941,-3.0086,-3.0882,-3.1441,-3.1577,-3.2361,-3.293,-3.3056,-3.3124,-3.3124,-3.3124,-3.3124,-3.3124,-3.3124,-3.3124,-3.3124,-3.3124,-3.3124,-3.3124,-3.3124,-3.3124,-3.3124,-3.3124,-3.3124,-3.3124,-3.3124,-3.3428,-3.3713,-3.3713,-3.4105,-3.4356,-3.4397,-3.4784,-3.5072,-3.5113,-3.5413,-3.5723,-3.6032,-3.6286,-3.6445,-2.7981,-2.7958,-2.8246,-2.8046,-2.7464,-2.7461,-2.7205,-2.6857,-2.6857,-2.6756,-2.6591,-2.6591,-2.6463,-2.6224,-2.6013,-2.5966,-2.5931,-2.6133,-2.6287,-2.6306,-2.6481,-2.6591,-2.6591,-2.6591,-2.6591,-2.6646,-2.6999,-2.7269,-2.7431,-2.7906,-2.8184,-2.8301,-2.8301,-2.8301,-2.8301,-2.8301,-2.8301,-2.8301,-2.8301,-2.8301,-2.8301,-2.8301,-2.8174,-2.7949,-2.7764,-2.7451,-2.6973,-2.6592,-2.6269,-2.6035,-2.6316,-2.6496,-2.6496,-2.7023,-2.7195,0.0,0.0,0.0,0.0,0.0,0.0,0.0,0.0,0.0,0.0,0.0,-2.8618,0.0,-2.9552,0.0,-3.0086,-3.0086,-3.0182,-3.041,-3.0434,-3.0573,-3.0759,-3.1491,-3.1945,-3.1945,-3.2635,-3.3124,-3.3124,-3.3124,-3.3124,-3.3124,-3.3124,-3.3124,-3.3124,-3.3124,-3.3124,-3.3124,-3.3124,-3.3124,-3.3124,-3.3124,-3.3124,-3.3124,-3.3124,-3.3124,-3.3124,-3.3441,-3.3713,-3.3713,-3.4092,-3.4397,-3.4397,-3.4784,-3.5072,-3.5154,-3.5399,-3.5817,-3.6152,-3.6312,-3.647,-2.8614,-2.8596,-2.8913,-2.8778,-2.8443,-2.8077,-2.7721,-2.7251,-2.7251,-2.7031,-2.6655,-2.6664,-2.6637,-2.6591,-2.6591,-2.6591,-2.6591,-2.6591,-2.6591,-2.6591,-2.6591,-2.6591,-2.6591,-2.6591,-2.6591,-2.6646,-2.689,-2.7152,-2.7377,-2.7745,-2.8023,-2.8291,-2.8301,-2.8301,-2.8301,-2.8301,-2.8301,-2.8301,-2.8301,-2.8301,-2.8301,-2.8301,-2.8301,-2.8281,-2.7939,-2.7767,-2.7708,-2.6953,-2.6504,-2.6427,-2.6506,-2.6557,-2.6506,-2.7023,-2.732,0.0,-2.7773,0.0,0.0,0.0,0.0,0.0,0.0,0.0,0.0,-2.9039,-2.9464,-2.9974,-3.0175,-3.029,-3.0278,-3.029,-3.047,-3.0915,-3.1019,-3.1211,-3.1633,-3.2125,-3.24,-3.24,-3.2822,-3.3124,-3.3124,-3.3124,-3.3124,-3.3124,-3.3124,-3.3124,-3.3124,-3.3124,-3.3124,-3.3124,-3.3124,-3.3124,-3.3124,-3.3124,-3.3124,-3.3124,-3.3124,-3.3124,-3.3124,-3.3441,-3.3713,-3.3755,-3.4092,-3.4397,-3.4397,-3.4729,-3.5031,-3.5113,-3.5399,-3.5804,-3.6192,-3.6365,-3.651,-2.8667,-2.8623,-2.8961,-2.9001,-2.8865,-2.8783,-2.8333,-2.7711,-2.7711,-2.7491,-2.7068,-2.7068,-2.6894,-2.66,-2.6591,-2.6591,-2.6591,-2.6591,-2.6591,-2.6591,-2.6591,-2.6591,-2.6591,-2.6591,-2.6591,-2.6636,-2.6899,-2.7152,-2.7431,-2.7745,-2.8023,-2.8291,-2.8301,-2.8301,-2.8301,0.0,0.0,0.0,-2.8301,-2.8301,-2.8301,-2.8301,-2.8301,-2.8291,-2.8223,0.0,-2.7676,-2.7562,-2.71,-2.6485,-2.6784,0.0,0.0,0.0,0.0,0.0,0.0,0.0,0.0,0.0,0.0,0.0,-2.925,-2.9094,-2.8749,-2.9514,-3.0296,-3.0917,-3.1229,-3.1404,-3.1404,-3.1416,-3.144,-3.1548,-3.156,-3.1597,-3.1705,-3.2113,-3.24,-3.24,-3.2822,-3.3124,-3.3124,-3.3124,-3.3124,-3.3124,-3.3124,-3.3124,-3.3124,-3.3124,-3.3124,-3.3124,-3.3124,-3.3124,-3.3124,-3.3124,-3.3124,-3.3124,-3.3124,-3.3124,-3.3124,-3.3441,-3.367,-3.3713,-3.4105,-3.4397,-3.4397,-3.4673,-3.4934,-3.5072,-3.5318,-3.5602,-3.6032,-3.6272,-3.647,-2.9053,0.0,-2.9133,-2.9158,0.0,-2.9067,-2.8755,-2.8361,-2.8159,-2.7856,-2.7471,-2.7462,-2.7352,-2.7178,-2.7169,-2.7068,-2.6885,-2.6875,-2.6784,-2.6591,-2.6591,-2.6591,-2.6591,-2.6591,-2.6591,-2.6591,-2.6736,-2.6999,-2.7387,-2.7584,-2.7862,-2.8291,-2.8301,-2.8301,-2.8301,-2.8301,-2.8301,-2.8301,-2.8301,-2.8301,-2.8301,-2.8301,-2.8301,-2.8301,0.0,0.0,0.0,0.0,0.0,0.0,0.0,0.0,0.0,0.0,0.0,-2.732,-2.7715,-2.7987,-2.7987,-2.8513,-2.8978,-2.9439,-2.9715,-2.9862,-2.9846,-3.0288,-3.0844,-3.146,-3.1617,-3.1705,-3.1705,-3.1705,-3.1705,-3.1705,-3.1705,-3.1705,-3.1849,-3.2169,-3.2431,-3.255,-3.2853,-3.3124,-3.3124,-3.3124,-3.3124,-3.3124,-3.3124,-3.3124,-3.3124,-3.3124,-3.3124,-3.3124,-3.3124,-3.3124,-3.3124,-3.3124,-3.3124,-3.3124,-3.3124,-3.3124,-3.3124,-3.3356,-3.3598,-3.3713,-3.4021,-3.4272,-3.4397,-3.4618,-3.4839,-3.5086,-3.5236,-3.5494,-3.5858,-3.6192,-3.6431,-2.9445,-2.9777,-2.9386,-2.9342,-2.9544,-2.9223,-2.9048,-2.8966,0.0,0.0,0.0,-2.7932,-2.7838,-2.7822,-2.7813,-2.7581,-2.7288,-2.7279,-2.7105,-2.6802,-2.6793,-2.6802,-2.6802,-2.6793,-2.6802,-2.6802,-2.6802,-2.7058,-2.754,-2.7595,-2.7921,-2.8417,-2.8516,-2.8476,-2.8408,-2.8408,-2.8369,-2.8301,-2.8301,-2.8301,-2.8301,-2.8301,-2.8301,-2.8301,-2.8301,-2.8301,-2.8291,-2.7959,-2.7744,-2.7708,-2.7491,-2.7261,-2.714,-2.7293,-2.7382,-2.7309,-2.7762,-2.7987,-2.7987,-2.8513,-2.8989,-2.9485,-2.9932,-3.0408,-3.0984,-3.0984,-3.1196,-3.1673,-3.1705,-3.1705,-3.1705,-3.1705,-3.1705,-3.1705,-3.1705,-3.1793,-3.1994,-3.2213,-3.2475,-3.268,-3.2939,-3.3124,-3.3124,-3.3124,-3.3124,-3.3124,-3.3124,-3.3124,-3.3124,-3.3124,-3.3124,-3.3124,-3.3124,-3.3124,-3.3124,-3.3124,-3.3124,-3.3124,-3.3124,-3.3124,-3.3124,-3.3283,-3.3471,-3.367,-3.3894,-3.416,-3.4356,-3.4577,-3.4797,-3.5072,-3.5236,-3.5399,-3.5683,-3.6072,-3.6405,-2.9487,-2.9812,-2.9715,-2.9654,-2.9571,-2.9516,-2.9296,-2.8984,-2.892,-2.8673,-2.8315,-2.8306,-2.8104,-2.7822,-2.7813,-2.7794,-2.7682,-2.7682,-2.7702,0.0,-2.7656,-2.7656,-2.7656,-2.7656,-2.76,-2.7656,-2.7647,-2.7769,-2.8108,-2.837,-2.866,-2.8995,-2.9283,-2.9189,-2.8857,-2.8828,-2.8652,-2.831,-2.8301,-2.8301,-2.8301,-2.8301,-2.8301,-2.8301,-2.8301,-2.8301,-2.8291,-2.8232,-2.8037,-2.7738,-2.8109,-2.7955,-2.7151,-2.757,-2.7655,-2.734,-2.7762,-2.7987,-2.7987,-2.8524,-2.8978,-2.9485,-2.9943,-3.0454,-3.0939,-3.0984,-3.1196,-3.1617,-3.1705,-3.1705,-3.1705,-3.1705,-3.1705,-3.1705,-3.1705,-3.1805,-3.1981,-3.2257,-3.2519,-3.2711,-3.2939,-3.3124,-3.3124,-3.3124,-3.3124,-3.3124,-3.3124,-3.3124,-3.3124,-3.3124,-3.3124,-3.3124,-3.3124,-3.3124,-3.3124,-3.3124,-3.3124,-3.3124,-3.3124,-3.3124,-3.3124,-3.324,-3.3441,-3.3683,-3.3894,-3.4147,-3.4356,-3.4397,-3.466,-3.4949,-3.5127,-3.5277,-3.5588,-3.5938,-3.6232,-2.9466,-2.9793,-2.9782,-2.9879,-2.9965,-2.9703,-2.9342,-2.8993,-2.8984,-2.8893,-2.8728,-2.8718,-2.8608,-2.8434,-2.8425,-2.8306,-2.8113,-2.8104,-2.8042,-2.7822,-2.7813,-2.7813,-2.7813,-2.7813,-2.7813,-2.7813,-2.7813,-2.7936,-2.8219,-2.8559,-2.8841,-2.9122,-2.9402,-2.9473,-2.9287,-2.9277,-2.9062,-2.8633,-2.8418,-2.8301,-2.8301,-2.8301,-2.8301,-2.8301,-2.8301,-2.8301,-2.8301,-2.8301,-2.8203,-2.8008,-2.8349,-2.8297,-2.7894,-2.7908,-2.7831,-2.7672,-2.7852,-2.7987,-2.7987,-2.8746,-2.9255,-2.9485,-2.9943,-3.0408,-3.0984,-3.0984,-3.1196,-3.1673,-3.1705,-3.1705,-3.1705,-3.1705,-3.1705,-3.1705,-3.1793,-3.195,-3.2213,-3.2419,-3.2636,-3.2896,-3.3025,-3.3124,-3.3124,-3.3124,-3.3124,-3.3124,-3.3124,-3.3124,-3.3124,-3.3124,-3.3124,-3.3124,-3.3124,-3.3124,-3.3124,-3.3124,-3.3124,-3.3124,-3.3124,-3.3124,-3.3124,-3.3197,-3.3356,-3.3641,-3.381,-3.4021,-3.4314,-3.4397,-3.4564,-3.4825,-3.5044,-3.5195,-3.548,-3.5898,-3.6325,-2.9504,-2.9778,-2.9895,-3.0119,-3.0339,-2.9797,-2.9388,-2.9113,-2.9021,-2.8984,-2.8984,-2.8984,-2.8984,-2.8984,-2.8984,-2.881,-2.8553,-2.8526,-2.8361,-2.8116,-2.8097,-2.8088,-2.8097,-2.8097,-2.804,-2.804,-2.8097,-2.8155,-2.8384,-2.8718,-2.907,-2.9411,-2.976,-2.9824,-2.9707,-2.9763,-2.9492,-2.9062,-2.8643,-2.8389,-2.8301,-2.8301,-2.8301,-2.8301,-2.8301,-2.8301,-2.8301,-2.8301,-2.8301,-2.8281,-2.8495,-2.8589,-2.8509,-2.8235,-2.8038,-2.7952,-2.7968,-2.8034,-2.8233,-2.9013,-2.9531,-2.9531,-2.9943,-3.0408,-3.0939,-3.0984,-3.1184,-3.1629,-3.1705,-3.1705,-3.1705,-3.1705,-3.1705,-3.1749,-3.1893,-3.2125,-3.2431,-3.2593,-3.281,-3.3038,-3.3124,-3.3124,-3.3124,-3.3124,-3.3124,-3.3124,-3.3124,-3.3124,-3.3124,-3.3124,-3.3124,-3.3124,-3.3124,-3.3124,-3.3124,-3.3124,-3.3124,-3.3124,-3.3124,-3.3124,-3.3124,-3.3124,-3.324,-3.3556,-3.3683,-3.3852,-3.423,-3.4397,-3.4494,-3.4756,-3.4921,-3.5072,-3.5358,-3.5898,-3.6405,-2.9504,-2.9813,-3.0178,-3.0489,-3.0645,-2.9938,-2.9571,-2.9461,-2.9149,-2.8984,-2.8984,-2.8984,-2.8984,-2.8984,-2.8984,-2.8957,-2.8911,-2.8929,-2.8893,-2.8847,-2.8874,-2.8865,-2.8828,-2.8847,-2.8874,-2.8847,-2.8828,-2.8851,-2.8919,-2.9232,-2.9721,-3.0276,-3.0645,-3.0537,-3.0195,-3.0137,-2.9932,-2.9567,-2.9082,-2.8672,-2.832,-2.8301,-2.8301,-2.8301,-2.8301,-2.8301,-2.8301,-2.8301,-2.8301,-2.8344,-2.8774,-2.889,-2.856,-2.8522,-2.8359,-2.7955,-2.7968,-2.8186,-2.871,-2.922,-2.9531,-2.9531,-2.9943,-3.0397,-3.0939,-3.0984,-3.1196,-3.1584,-3.1705,-3.1705,-3.1705,-3.1705,-3.1761,-3.1937,-3.1994,-3.2157,-3.255,-3.2667,-3.281,-3.3068,-3.3124,-3.3124,-3.3124,-3.3124,-3.3124,-3.3124,-3.3124,-3.3124,-3.3124,-3.3124,-3.3124,-3.3124,-3.3124,-3.3124,-3.3124,-3.3124,-3.3124,-3.3124,-3.3124,-3.3124,-3.3124,-3.3124,-3.321,-3.3441,-3.3556,-3.3768,-3.4063,-3.4272,-3.4494,-3.4673,-3.4839,-3.4962,-3.5331,-3.5817,-3.6246,-2.9373,-2.9504,-2.9896,-3.0194,-3.0447,-3.0371,-3.0011,-2.9562,-2.9406,-2.9204,-2.8993,-2.8984,-2.8984,-2.8984,-2.8984,-2.8984,-2.8984,-2.8984,-2.8984,-2.8984,-2.8984,-2.8984,-2.8984,-2.8984,-2.8984,-2.8984,-2.8984,-2.8984,-2.9103,-2.9518,-2.9981,-3.0392,-3.0704,-3.0791,-3.0625,-3.0605,-3.0391,-2.9951,-2.9766,-2.9346,-2.8711,-2.8418,-2.8301,-2.8301,-2.8301,-2.8301,-2.8301,-2.8301,-2.8301,-2.8344,-2.8824,-2.9051,-2.887,-2.8973,-2.8804,-2.8349,-2.8115,-2.8233,-2.8757,-2.9209,-2.9531,-2.9531,-2.9943,-3.0454,-3.0939,-3.0984,-3.1196,-3.1629,-3.1705,-3.1705,-3.1705,-3.1705,-3.1805,-3.1981,-3.2125,-3.2344,-3.2624,-3.2853,-3.2982,-3.3081,-3.3124,-3.3124,-3.3124,-3.3124,-3.3124,-3.3124,-3.3124,-3.3124,-3.3124,-3.3124,-3.3124,-3.3124,-3.3124,-3.3124,-3.3124,-3.3124,-3.3124,-3.3124,-3.3124,-3.3124,-3.3124,-3.3124,-3.3167,-3.3368,-3.3484,-3.3683,-3.4034,-3.416,-3.4285,-3.4548,-3.488,-3.5072,-3.5358,-3.5777,-3.6152,-2.9307,-2.9364,-2.9765,-3.0119,-3.051,-3.071,-3.0396,-2.9825,-2.9626,-2.9342,-2.9003,-2.8984,-2.8984,-2.8984,-2.8984,-2.8984,-2.8984,-2.8984,-2.8984,-2.8984,-2.8984,-2.8984,-2.8984,-2.8984,-2.8984,-2.8984,-2.8984,-2.8984,-2.9044,-2.9509,-2.9922,-3.0274,-3.0577,-3.083,-3.0889,-3.0898,-3.0723,-3.04,-3.0273,-2.9834,-2.9141,-2.8682,-2.8418,-2.831,-2.8301,-2.8301,-2.8301,-2.8301,-2.8301,-2.8291,-2.8824,-2.9132,-2.9112,-2.9239,-2.9082,-2.865,-2.8342,-2.8372,-2.8779,-2.9255,-2.9531,-2.952,-2.9943,-3.0408,-3.0883,-3.0984,-3.1196,-3.1629,-3.1705,-3.1705,-3.1705,-3.1705,-3.1793,-3.2069,-3.23,-3.2519,-3.2766,-3.2995,-3.3081,-3.3124,-3.3124,-3.3124,-3.3124,-3.3124,-3.3124,-3.3124,-3.3124,-3.3124,-3.3124,-3.3124,-3.3124,-3.3124,-3.3124,-3.3124,-3.3124,-3.3124,-3.3124,-3.3124,-3.3124,-3.3124,-3.3124,-3.3124,-3.3124,-3.324,-3.3313,-3.3513,-3.3852,-3.3992,-3.416,-3.441,-3.4701,-3.5072,-3.5236,-3.5656,-3.5912,-2.9307,-2.9438,-3.0035,-3.0538,-3.0881,-3.0838,-3.0571,-3.0149,-2.9764,-2.9369,-2.9039,-2.8984,-2.8984,-2.8984,-2.8984,-2.8984,-2.8984,-2.8984,-2.8984,-2.8984,-2.8984,-2.8984,-2.8984,-2.8984,-2.8984,-2.8984,-2.8984,-2.8984,-2.9035,-2.939,-2.9677,-2.9922,-3.0274,-3.0567,-3.0889,-3.0898,-3.0879,-3.0781,-3.0439,-2.999,-2.9541,-2.9092,-2.8701,-2.834,-2.8301,-2.8301,-2.8301,-2.8301,-2.8301,-2.8301,-2.8814,-2.9079,-2.9092,-2.9239,-2.9119,-2.8788,-2.8652,-2.8704,-2.8855,-2.9231,-2.9531,-2.9577,-2.9943,-3.0454,-3.0939,-3.0984,-3.1196,-3.1661,-3.1705,-3.1705,-3.1705,-3.1717,-3.1893,-3.2313,-3.2388,-3.2605,-3.3038,-3.3081,-3.3124,-3.3124,-3.3124,-3.3124,-3.3124,-3.3124,-3.3124,-3.3124,-3.3124,-3.3124,-3.3124,-3.3124,-3.3124,-3.3124,-3.3124,-3.3124,-3.3124,-3.3124,-3.3124,-3.3124,-3.3124,-3.3124,-3.3124,-3.3124,-3.3111,-3.3154,-3.3283,-3.3441,-3.3683,-3.3937,-3.416,-3.4369,-3.4632,-3.4921,-3.5072,-3.529,-3.5575,-2.9307,-2.9373,-2.9831,-3.0222,-3.0611,-3.079,-3.0756,-3.0552,-3.0149,-2.9745,-2.936,-2.9104,-2.8984,-2.8984,-2.8984,-2.8984,-2.8984,-2.8984,-2.8984,-2.8984,-2.8984,-2.8984,-2.8984,-2.8984,-2.8984,-2.8984,-2.8984,-2.8984,-2.9044,-2.934,-2.9627,-2.9922,-3.0216,-3.0577,-3.083,-3.0898,-3.0898,-3.0879,-3.0713,-3.0303,-2.9695,-2.9414,-2.9004,-2.834,-2.8301,-2.8301,-2.8301,-2.8301,-2.8301,-2.8301,-2.8664,-2.893,-2.9092,-2.9239,-2.9329,-2.9316,-2.8943,-2.878,-2.8979,-2.9294,-2.9531,-2.9531,-2.9932,-3.0408,-3.0883,-3.1029,-3.1196,-3.1584,-3.1705,-3.1705,-3.1705,-3.1805,-3.2038,-3.2356,-3.2519,-3.268,-3.2995,-3.3124,-3.3124,-3.3124,-3.3124,-3.3124,-3.3124,-3.3124,-3.3124,-3.3124,-3.3124,-3.3124,-3.3124,-3.3124,-3.3124,-3.3124,-3.3124,-3.3124,-3.3124,-3.3124,-3.3124,-3.3124,-3.3124,-3.3124,-3.3124,-3.3124,-3.3124,-3.3124,-3.3197,-3.3313,-3.3556,-3.3907,-3.4118,-3.4369,-3.4618,-3.4756,-3.488,-3.5168,-3.5372,-2.9307,-2.9373,-2.9691,-3.0026,-3.0443,-3.075,-3.0837,-3.0763,-3.0369,-2.9965,-2.9553,-2.9159,-2.8984,-2.8984,-2.8984,-2.8984,-2.8984,-2.8984,-2.8984,-2.8984,-2.8984,-2.8984,-2.8984,-2.8984,-2.8984,-2.8984,-2.8984,-2.8984,-2.9044,-2.9213,-2.9509,-2.9804,-3.0098,-3.0392,-3.0694,-3.082,-3.0898,-3.0898,-3.0898,-3.0508,-2.9853,-2.9695,-2.9238,-2.8594,-2.8369,-2.8301,-2.8301,-2.8301,-2.8301,-2.8354,-2.8568,-2.8887,-2.9197,-2.9424,-2.9569,-2.9627,-2.9243,-2.8956,-2.9084,-2.9264,-2.9393,-2.9531,-2.9852,-3.0318,-3.0781,-3.0972,-3.1196,-3.1484,-3.1661,-3.1705,-3.1761,-3.1893,-3.2125,-3.2344,-3.2506,-3.2736,-3.3038,-3.3124,-3.3124,-3.3124,-3.3124,-3.3124,-3.3124,-3.3124,-3.3124,-3.3124,-3.3124,-3.3124,-3.3124,-3.3124,-3.3124,-3.3124,-3.3124,-3.3124,-3.3124,-3.3124,-3.3124,-3.3124,-3.3124,-3.3124,-3.3124,-3.3124,-3.3124,-3.3124,-3.3154,-3.3227,-3.3484,-3.3836,-3.4118,-3.4356,-3.4494,-3.4618,-3.4825,-3.5072,-3.5277,-2.9307,-2.9373,-2.9626,-3.0026,-3.0369,-3.0685,-3.0846,-3.0746,-3.0387,-2.9984,-2.9617,-2.9168,-2.8984,-2.8984,-2.8984,-2.8984,-2.8984,-2.8984,-2.8984,-2.8984,-2.8984,-2.8984,-2.8984,-2.8984,-2.8984,-2.8984,-2.8984,-2.8984,-2.8984,-2.9044,-2.9213,-2.9509,-2.9804,-3.0167,-3.0441,-3.0762,-3.0898,-3.0898,-3.0898,-3.0644,-3.0205,-2.9775,-2.9346,-2.8887,-2.8506,-2.8301,-2.8301,-2.8301,-2.8301,-2.8354,-2.8514,-2.8983,-2.9448,-2.9785,-2.9891,-2.9691,-2.9489,-2.933,-2.9123,-2.9142,-2.9344,-2.9485,-2.9783,-3.0148,-3.0578,-3.0871,-3.1107,-3.1306,-3.1584,-3.1705,-3.1705,-3.1849,-3.2081,-3.2344,-3.2431,-3.2649,-3.2995,-3.3124,-3.3124,-3.3124,-3.3124,-3.3124,-3.3124,-3.3124,-3.3124,-3.3124,-3.3124,-3.3124,-3.3124,-3.3124,-3.3124,-3.3124,-3.3124,-3.3124,-3.3124,-3.3124,-3.3124,-3.3124,-3.3124,-3.3124,-3.3124,-3.3124,-3.3124,-3.3124,-3.3124,-3.3197,-3.3428,-3.3781,-3.4034,-3.4285,-3.4369,-3.4494,-3.4701,-3.4908,-3.5113,-2.9307,-2.9307,-2.9438,-2.9626,-3.0026,-3.0361,-3.0678,-3.081,-3.0381,-3.013,-2.9892,-2.9278,-2.8984,-2.8984,-2.8984,-2.8984,-2.8984,-2.8984,-2.8984,-2.8984,-2.8984,-2.8984,-2.8984,-2.8984,-2.8984,-2.8984,-2.8984,-2.8984,-2.8984,-2.8984,-2.9153,-2.9509,-2.9745,-3.0098,-3.0382,-3.0704,-3.0898,-3.0898,-3.0898,-3.0664,-3.0205,-2.9785,-2.9355,-2.8935,-2.8506,-2.8301,-2.8301,-2.8301,-2.8301,-2.8301,-2.8398,-2.8664,-2.9237,-2.9722,-2.9974,-2.9922,-2.9914,-2.97,-2.9379,-2.9485,-2.9575,-2.9586,-2.9737,-3.0102,-3.0532,-3.0826,-3.1062,-3.1261,-3.1528,-3.1705,-3.1705,-3.1749,-3.1981,-3.2356,-3.2519,-3.2723,-3.3038,-3.3124,-3.3124,-3.3124,-3.3124,-3.3124,-3.3124,-3.3124,-3.3124,-3.3124,-3.3124,-3.3124,-3.3124,-3.3124,-3.3124,-3.3124,-3.3124,-3.3124,-3.3124,-3.3124,-3.3124,-3.3124,-3.3124,-3.3124,-3.3124,-3.3124,-3.3124,-3.3124,-3.3124,-3.3197,-3.3471,-3.3683,-3.3937,-3.416,-3.4327,-3.441,-3.4535,-3.4701,-3.499,-2.9307,-2.9307,-2.9307,-2.9495,-2.9813,-3.0091,-3.0426,-3.0762,-3.0283,-3.0071,-3.003,-2.9342,-2.8984,-2.8984,-2.8984,-2.8984,-2.8984,-2.8984,-2.8984,-2.8984,-2.8984,-2.8984,-2.8984,-2.8984,-2.8984,-2.8984,-2.8984,-2.8984,-2.8984,-2.8984,-2.9094,-2.9331,-2.9627,-2.9922,-3.0206,-3.0577,-3.0762,-3.0889,-3.0889,-3.0664,-3.0215,-2.9785,-2.9365,-2.8935,-2.8506,-2.831,-2.8301,-2.8301,-2.8301,-2.8344,-2.8441,-2.8761,-2.9132,-2.9669,-2.9994,-3.0016,-3.0043,-2.9987,-2.9707,-2.9715,-2.9722,-2.9682,-2.9712,-2.992,-3.0318,-3.0646,-3.096,-3.1184,-3.1395,-3.1617,-3.1661,-3.1705,-3.1893,-3.2213,-3.2419,-3.2723,-3.2995,-3.3124,-3.3124,-3.3124,-3.3124,-3.3124,-3.3124,-3.3124,-3.3124,-3.3124,-3.3124,-3.3124,-3.3124,-3.3124,-3.3124,-3.3124,-3.3124,-3.3124,-3.3124,-3.3124,-3.3124,-3.3124,-3.3124,-3.3124,-3.3124,-3.3124,-3.3124,-3.3124,-3.3124,-3.3197,-3.3441,-3.3598,-3.3852,-3.4021,-3.4243,-3.4356,-3.4481,-3.466,-3.4867,-2.9307,-2.9307,-2.9307,-2.9495,-2.9748,-2.9822,-3.0213,-3.0689,-3.0023,-2.9937,-2.9959,-2.9342,-2.8984,-2.8984,-2.8984,-2.8984,-2.8984,-2.8984,-2.8984,-2.8984,-2.8984,-2.8984,-2.8984,-2.8984,-2.8984,-2.8984,-2.8984,-2.8984,-2.8984,-2.8984,-2.8984,-2.9044,-2.939,-2.9618,-2.9981,-3.0274,-3.0635,-3.0889,-3.0898,-3.0664,-3.0205,-2.9785,-2.9365,-2.8926,-2.8516,-2.8301,-2.8301,-2.8301,-2.8301,-2.8344,-2.8761,-2.9026,-2.9185,-2.9669,-2.9994,-3.0036,-3.0095,-3.0098,-3.0045,-2.9759,-2.9686,-2.9803,-2.9661,-2.9588,-2.9977,-3.0408,-3.0769,-3.1017,-3.1217,-3.1439,-3.1617,-3.1705,-3.1805,-3.2038,-3.2344,-3.2649,-3.3038,-3.3124,-3.3124,-3.3124,-3.3124,-3.3124,-3.3124,-3.3124,-3.3124,-3.3124,-3.3124,-3.3124,-3.3124,-3.3124,-3.3124,-3.3124,-3.3124,-3.3124,-3.3124,-3.3124,-3.3124,-3.3124,-3.3124,-3.3124,-3.3124,-3.3124,-3.3124,-3.3124,-3.3124,-3.324,-3.3326,-3.3513,-3.3725,-3.3937,-3.4105,-3.4314,-3.4481,-3.4618,-3.4743,-2.9307,-2.9307,-2.9307,-2.9382,-2.9495,-2.9683,-3.0083,-3.0457,-2.996,-2.9875,-2.9959,-2.9342,-2.8984,-2.8984,-2.8984,-2.8984,-2.8984,-2.8984,-2.8984,-2.8984,-2.8984,-2.8984,-2.8984,-2.8984,-2.8984,-2.8984,-2.8984,-2.8984,-2.8984,-2.8984,-2.8984,-2.9035,-2.9331,-2.9627,-2.9922,-3.0216,-3.0577,-3.083,-3.0889,-3.0654,-3.0195,-2.9785,-2.9365,-2.8935,-2.8506,-2.831,-2.8301,-2.8301,-2.8301,-2.8344,-2.8814,-2.9132,-2.9132,-2.9669,-2.9994,-3.0015,-3.0182,-3.025,-3.0093,-2.987,-2.9807,-2.9855,-2.9613,-2.9657,-2.9886,-3.0318,-3.0691,-3.0972,-3.1184,-3.1395,-3.1617,-3.1705,-3.1893,-3.2257,-3.2431,-3.2723,-3.2995,-3.3124,-3.3124,-3.3124,-3.3124,-3.3124,-3.3124,-3.3124,-3.3124,-3.3124,-3.3124,-3.3124,-3.3124,-3.3124,-3.3124,-3.3124,-3.3124,-3.3124,-3.3124,-3.3124,-3.3124,-3.3124,-3.3124,-3.3124,-3.3124,-3.3124,-3.3124,-3.3124,-3.3124,-3.321,-3.324,-3.3313,-3.3556,-3.381,-3.4034,-3.4202,-3.4356,-3.4481,-3.4618,-2.9307,-2.9307,-2.9307,-2.9307,-2.9307,-2.9495,-2.9831,-3.0007,-2.9653,-2.9689,-2.9756,-2.9282,-2.8984,-2.8984,-2.8984,-2.8984,-2.8984,-2.8984,-2.8984,-2.8984,-2.8984,-2.8984,-2.8984,-2.8984,-2.8984,-2.8984,-2.8984,-2.8984,-2.8984,-2.8984,-2.8984,-2.9035,-2.9153,-2.945,-2.9745,-3.0039,-3.0333,-3.0645,-3.0801,-3.0605,-2.9961,-2.9763,-2.9228,-2.8769,-2.8398,-2.8301,-2.8301,-2.8301,-2.8301,-2.8398,-2.8717,-2.8983,-2.9132,-2.9564,-2.9889,-2.9984,-3.0235,-3.0358,-3.0319,-3.0028,-2.9889,-2.9895,-2.9617,-2.9507,-2.9737,-3.0102,-3.042,-3.0769,-3.1005,-3.1273,-3.1484,-3.1617,-3.1849,-3.2169,-3.2431,-3.2723,-3.3038,-3.3124,-3.3124,-3.3124,-3.3124,-3.3124,-3.3124,-3.3124,-3.3124,-3.3124,-3.3124,-3.3124,-3.3124,-3.3124,-3.3124,-3.3124,-3.3124,-3.3124,-3.3124,-3.3124,-3.3124,-3.3124,-3.3124,-3.3124,-3.3124,-3.3124,-3.3124,-3.3124,-3.3124,-3.3124,-3.3154,-3.327,-3.3484,-3.3738,-3.3907,-3.4118,-3.4272,-3.4397,-3.4494,-2.9307,-2.9307,-2.9307,-2.9307,-2.9307,-2.9307,-2.9526,-2.9613,-2.9302,-2.9324,-2.9489,-2.9185,-2.9003,-2.8984,-2.8984,-2.8984,-2.8984,-2.8984,-2.8984,-2.8984,-2.8984,-2.8984,-2.8984,-2.8984,-2.8984,-2.8984,-2.8984,-2.8984,-2.8984,-2.8984,-2.8984,-2.8984,-2.9044,-2.9222,-2.9509,-2.9804,-3.0098,-3.0431,-3.0645,-3.0371,-2.9756,-2.9482,-2.9072,-2.8486,-2.834,-2.8301,-2.8301,-2.8301,-2.8301,-2.8301,-2.8568,-2.8824,-2.9079,-2.9448,-2.9722,-2.9994,-3.0193,-3.0432,-3.0565,-3.0095,-2.9877,-2.9927,-2.947,-2.9231,-2.9531,-2.9829,-3.0148,-3.0623,-3.0826,-3.105,-3.1306,-3.154,-3.1805,-3.2038,-3.2257,-3.2562,-3.2909,-3.3081,-3.3124,-3.3124,-3.3124,-3.3124,-3.3124,-3.3124,-3.3124,-3.3124,-3.3124,-3.3124,-3.3124,-3.3124,-3.3124,-3.3124,-3.3124,-3.3124,-3.3124,-3.3124,-3.3124,-3.3124,-3.3124,-3.3124,-3.3124,-3.3124,-3.3124,-3.3124,-3.3124,-3.3124,-3.3124,-3.3283,-3.3441,-3.3641,-3.3852,-3.4105,-3.4301,-3.4356,-3.4452,-2.9307,-2.9307,-2.9307,-2.9307,-2.9307,-2.9299,-2.934,-2.936,-2.9196,-2.9119,-2.9175,-2.9066,-2.8993,-2.8984,-2.8984,-2.8984,-2.8984,-2.8984,-2.8984,-2.8984,-2.8984,-2.8984,-2.8984,-2.8984,-2.8984,-2.8984,-2.8984,-2.8984,-2.8984,-2.8984,-2.8984,-2.8984,-2.9044,-2.9153,-2.944,-2.9745,-3.0039,-3.0324,-3.0373,-3.0127,-2.9685,-2.9238,-2.8848,-2.834,-2.8301,-2.8301,-2.8301,-2.8301,-2.8301,-2.8354,-2.8568,-2.8771,-2.9079,-2.9396,-2.9711,-2.9942,-3.0047,-3.0193,-3.0296,-2.9947,-2.9621,-2.9829,-2.9452,-2.922,-2.9485,-2.9737,-3.0102,-3.0499,-3.0679,-3.0904,-3.1261,-3.1528,-3.1761,-3.195,-3.2069,-3.2245,-3.268,-3.2995,-3.3081,-3.3124,-3.3124,-3.3124,-3.3124,-3.3124,-3.3124,-3.3124,-3.3124,-3.3124,-3.3124,-3.3124,-3.3124,-3.3124,-3.3124,-3.3124,-3.3124,-3.3124,-3.3124,-3.3124,-3.3124,-3.3124,-3.3124,-3.3124,-3.3124,-3.3124,-3.3124,-3.3124,-3.3124,-3.3124,-3.3283,-3.3526,-3.3755,-3.4008,-3.4176,-3.4272,-3.4397,-2.9307,-2.9307,-2.9307,-2.9307,-2.9282,-2.9136,-2.9077,-2.8994,-2.8788,-2.8747,-2.8814,-2.8808,-2.8874,-2.8984,-2.8984,-2.8984,-2.8984,-2.8984,-2.8984,-2.8984,-2.8984,-2.8984,-2.8984,-2.8984,-2.8984,-2.8984,-2.8984,-2.8984,-2.8984,-2.8984,-2.8984,-2.8984,-2.8984,-2.9094,-2.9272,-2.9568,-2.9872,-3.0071,-3.0084,-2.9886,-2.957,-2.9141,-2.8721,-2.8379,-2.8301,-2.8301,-2.8301,-2.8301,-2.8301,-2.8354,-2.8461,-2.8717,-2.9026,-2.929,-2.9554,-2.9942,-2.9994,-3.0141,-3.0192,-2.9836,-2.9511,-2.9768,-2.9266,-2.919,-2.9301,-2.9554,-2.9874,-3.0227,-3.0487,-3.0802,-3.1217,-3.1395,-3.1629,-3.1805,-3.1937,-3.2125,-3.2388,-3.268,-3.2982,-3.3081,-3.3124,-3.3124,-3.3124,-3.3124,-3.3124,-3.3124,-3.3124,-3.3124,-3.3124,-3.3124,-3.3124,-3.3124,-3.3124,-3.3124,-3.3124,-3.3124,-3.3124,-3.3124,-3.3124,-3.3124,-3.3124,-3.3124,-3.3124,-3.3124,-3.3124,-3.3124,-3.3124,-3.3124,-3.321,-3.3398,-3.3683,-3.3894,-3.4105,-3.4272,-3.4356,-2.9307,-2.9307,-2.9307,-2.9282,-2.9179,-2.8914,-2.87,-2.8532,-2.8232,-2.8289,-2.8481,-2.8472,-2.8755,-2.8925,-2.8984,-2.8984,-2.8984,-2.8984,-2.8984,-2.8984,-2.8984,-2.8984,-2.8984,-2.8984,-2.8984,-2.8984,-2.8984,-2.8984,-2.8984,-2.8984,-2.8984,-2.8984,-2.8984,-2.9044,-2.9103,-2.9322,-2.963,-2.9791,-2.97,-2.9561,-2.9368,-2.9004,-2.8603,-2.8379,-2.8301,-2.8301,-2.8301,-2.8301,-2.8301,-2.8301,-2.8301,-2.8611,-2.8973,-2.9132,-2.9343,-2.9942,-2.9994,-3.0099,-3.013,-2.9745,-2.9413,-2.9687,-2.9135,-2.8916,-2.9082,-2.9312,-2.9588,-2.9966,-3.0318,-3.0758,-3.1172,-3.1306,-3.1439,-3.1661,-3.1849,-3.195,-3.2081,-3.2376,-3.2636,-3.2982,-3.3081,-3.3124,-3.3124,-3.3124,-3.3124,-3.3124,-3.3124,-3.3124,-3.3124,-3.3124,-3.3124,-3.3124,-3.3124,-3.3124,-3.3124,-3.3124,-3.3124,-3.3124,-3.3124,-3.3124,-3.3124,-3.3124,-3.3124,-3.3124,-3.3124,-3.3124,-3.3124,-3.3124,-3.3197,-3.3398,-3.3598,-3.3852,-3.4063,-3.4272,-3.4356,-2.9307,-2.9307,-2.9307,-2.9145,-2.8888,-2.8794,-2.8391,-2.7906,-2.799,-2.8114,-2.8144,-2.8364,-2.8636,-2.8925,-2.8984,-2.8984,-2.8984,-2.8984,-2.8984,-2.8984,-2.8984,-2.8984,-2.8984,-2.8984,-2.8984,-2.8984,-2.8984,-2.8984,-2.8984,-2.8984,-2.8984,-2.8984,-2.8984,-2.8984,-2.9094,-2.9303,-2.9362,-2.939,-2.926,-2.9082,-2.8991,-2.8691,-2.8428,-2.8301,-2.8301,-2.8301,-2.8301,-2.8301,-2.8301,-2.8301,-2.8301,-2.8611,-2.8973,-2.9079,-2.9406,-2.9837,-2.9994,-3.0036,-2.9953,-2.9461,-2.926,-2.927,-2.8886,-2.8718,-2.8989,-2.9174,-2.9416,-2.9874,-3.0318,-3.0724,-3.1017,-3.1184,-3.1395,-3.1617,-3.1749,-3.1805,-3.195,-3.2125,-3.2332,-3.268,-3.2896,-3.3124,-3.3124,-3.3124,-3.3124,-3.3124,-3.3124,-3.3124,-3.3124,-3.3124,-3.3124,-3.3124,-3.3124,-3.3124,-3.3124,-3.3124,-3.3124,-3.3124,-3.3124,-3.3124,-3.3124,-3.3124,-3.3124,-3.3124,-3.3124,-3.3124,-3.3124,-3.3124,-3.321,-3.3326,-3.3526,-3.3755,-3.3979,-3.4189,-3.4356,-2.9205,-2.9042,-2.9033,-2.8819,-2.8477,-2.8246,-2.7963,-2.7612,-2.7599,-2.7661,-2.7823,-2.808,-2.8388,-2.8687,-2.8925,-2.8984,-2.8984,-2.8984,-2.8984,-2.8984,-2.8984,-2.8984,-2.8984,-2.8984,-2.8984,-2.8984,-2.8984,-2.8984,-2.8984,-2.8984,-2.8984,-2.8984,-2.8984,-2.8984,-2.8979,-2.8923,-2.899,-2.8953,-2.8747,-2.8598,-2.8687,-2.8398,-2.832,-2.8301,-2.8301,-2.8301,-2.8301,-2.8301,-2.8301,-2.8301,-2.8301,-2.8504,-2.8824,-2.9089,-2.9353,-2.9889,-2.9984,-2.987,-2.9673,-2.9192,-2.9052,-2.8998,-2.8629,-2.8578,-2.8861,-2.9082,-2.9324,-2.9783,-3.0136,-3.0487,-3.0769,-3.0994,-3.1217,-3.1439,-3.1617,-3.1717,-3.1805,-3.1937,-3.2113,-3.2376,-3.2636,-3.2853,-3.3124,-3.3124,-3.3124,-3.3124,-3.3124,-3.3124,-3.3124,-3.3124,-3.3124,-3.3124,-3.3124,-3.3124,-3.3124,-3.3124,-3.3124,-3.3124,-3.3124,-3.3124,-3.3124,-3.3124,-3.3124,-3.3124,-3.3124,-3.3124,-3.3124,-3.3124,-3.3167,-3.324,-3.3526,-3.3725,-3.3894,-3.4063,-3.4272,-2.8922,-2.8657,-2.8657,-2.8434,-2.8057,-2.7749,-2.7569,-2.745,-2.721,-2.7254,-2.7521,-2.7831,-2.8208,-2.8507,-2.8806,-2.8984,-2.8984,-2.8984,-2.8984,-2.8984,-2.8984,-2.8984,-2.8984,-2.8984,-2.8984,-2.8984,-2.8984,-2.8984,-2.8984,-2.8984,-2.8984,-2.8984,-2.8984,-2.892,-2.8851,-2.863,-2.8544,-2.8396,-2.8277,-2.8167,-2.8359,-2.8388,-2.8301,-2.8301,-2.8301,-2.8301,-2.8301,-2.8301,-2.8301,-2.8301,-2.8291,-2.8451,-2.8781,-2.8973,-2.9396,-2.9879,-2.9922,-2.9642,-2.9373,-2.8892,-2.8631,-2.865,-2.8449,-2.8495,-2.871,-2.8943,-2.9324,-2.9748,-3.0011,-3.0306,-3.0578,-3.0826,-3.1038,-3.1261,-3.1484,-3.1661,-3.1761,-3.1849,-3.1937,-3.2157,-3.2363,-3.2636,-3.2853,-3.3124,-3.3124,-3.3124,-3.3124,-3.3124,-3.3124,-3.3124,-3.3124,-3.3124,-3.3124,-3.3124,-3.3124,-3.3124,-3.3124,-3.3124,-3.3124,-3.3124,-3.3124,-3.3124,-3.3124,-3.3124,-3.3124,-3.3124,-3.3124,-3.3124,-3.3167,-3.324,-3.3526,-3.3683,-3.3797,-3.405,-3.4314,-2.8297,-2.8254,-2.8263,-2.8032,-2.7698,-2.7612,-2.7415,-2.7158,-2.7107,-2.7237,-2.7461,-2.7831,-2.8148,-2.8517,-2.8865,-2.8984,-2.8984,-2.8984,-2.8984,-2.8984,-2.8984,-2.8984,-2.8984,-2.8984,-2.8984,-2.8984,-2.8984,-2.8984,-2.8984,-2.8984,-2.8984,-2.8984,-2.892,-2.8828,-2.8544,-2.8315,-2.8194,-2.7903,-2.7873,-2.8077,-2.8296,-2.834,-2.8301,-2.8301,-2.8301,-2.8301,-2.8301,-2.8301,-2.8301,-2.8301,-2.8301,-2.8558,-2.8973,-2.9069,-2.9448,-2.9651,-2.9653,-2.9352,-2.9135,-2.8595,-2.8223,-2.8256,-2.8148,-2.8192,-2.8477,-2.8896,-2.922,-2.9485,-2.9783,-3.0102,-3.0454,-3.0623,-3.0892,-3.1128,-3.135,-3.1484,-3.1629,-3.1761,-3.1849,-3.1937,-3.2157,-3.2407,-3.2624,-3.2896,-3.3124,-3.3124,-3.3124,-3.3124,-3.3124,-3.3124,-3.3124,-3.3124,-3.3124,-3.3124,-3.3124,-3.3124,-3.3124,-3.3124,-3.3124,-3.3124,-3.3124,-3.3124,-3.3124,-3.3124,-3.3124,-3.3124,-3.3124,-3.3124,-3.3124,-3.324,-3.3471,-3.3586,-3.3713,-3.4008,-3.4356,-2.7486,-2.786,-2.7852,-2.7646,-2.7321,-2.7304,-2.7218,-2.7107,-2.7081,-2.7194,-2.7297,-2.759,-2.802,-2.8517,-2.8865,-2.8984,-2.8984,-2.8984,-2.8984,-2.8984,-2.8984,-2.8984,-2.8984,-2.8984,-2.8984,-2.8984,-2.8984,-2.8984,-2.8984,-2.8975,-2.8984,-2.8938,-2.8764,-2.859,-2.826,-2.7911,-2.762,-2.7475,-2.7555,-2.7883,-2.8179,-2.8291,-2.8301,-2.8301,-2.8301,-2.8301,-2.8301,-2.8301,-2.8301,-2.8301,-2.8301,-2.8451,-2.8824,-2.9006,-2.9209,-2.9259,-2.9075,-2.8938,-2.8814,-2.8255,-2.798,-2.7881,-2.7841,-2.7972,-2.8348,-2.8814,-2.9128,-2.9255,-2.9646,-2.9977,-3.0239,-3.0454,-3.0668,-3.0904,-3.1116,-3.1306,-3.1496,-3.1661,-3.1761,-3.1849,-3.1937,-3.2157,-3.2363,-3.2636,-3.2896,-3.3068,-3.3081,-3.3124,-3.3124,-3.3124,-3.3124,-3.3124,-3.3124,-3.3124,-3.3124,-3.3124,-3.3124,-3.3124,-3.3124,-3.3124,-3.3124,-3.3124,-3.3124,-3.3124,-3.3124,-3.3124,-3.3124,-3.3124,-3.3124,-3.324,-3.3428,-3.3543,-3.3713,-3.4092,-3.4356,-2.673,-2.7344,-2.7467,-2.7321,-2.7081,-2.7081,-2.7081,-2.7081,-2.7081,-2.7073,-2.7194,-2.747,-2.796,-2.8457,-2.8806,-2.8984,-2.8984,-2.8984,-2.8984,-2.8984,-2.8984,-2.8984,-2.8984,-2.8984,-2.8984,-2.8975,-2.8984,-2.8902,-2.8828,-2.8819,-2.8792,-2.8819,-2.8572,-2.8269,-2.7948,-2.7572,-2.7234,-2.7188,-2.733,-2.7676,-2.8067,-2.8237,-2.8291,-2.8301,-2.8301,-2.8301,-2.8301,-2.8301,-2.8301,-2.8301,-2.8301,-2.8451,-2.8824,-2.8876,-2.9029,-2.8993,-2.8734,-2.8462,-2.8317,-2.7976,-2.771,-2.7625,-2.7726,-2.7961,-2.8337,-2.8803,-2.9082,-2.9128,-2.937,-2.9703,-2.9931,-3.0227,-3.0454,-3.0668,-3.0892,-3.1128,-3.1318,-3.1439,-3.1617,-3.1761,-3.1849,-3.1937,-3.2157,-3.2332,-3.2636,-3.2896,-3.3025,-3.3081,-3.3124,-3.3124,-3.3124,-3.3124,-3.3124,-3.3124,-3.3124,-3.3124,-3.3124,-3.3124,-3.3124,-3.3124,-3.3124,-3.3124,-3.3124,-3.3124,-3.3124,-3.3124,-3.3124,-3.3124,-3.3124,-3.324,-3.3356,-3.3586,-3.3797,-3.4147,-3.4356,-2.6039,-2.6665,-2.6994,-2.7116,-2.7081,-2.7081,-2.7081,-2.7081,-2.7081,-2.7081,-2.7194,-2.7659,-2.808,-2.8517,-2.8746,-2.8984,-2.8984,-2.8984,-2.8984,-2.8984,-2.8984,-2.8984,-2.8984,-2.8984,-2.8966,-2.8929,-2.8883,-2.8709,-2.8507,-2.8425,-2.8434,-2.8407,-2.8223,-2.7847,-2.7526,-2.728,-2.7096,-2.7085,-2.7288,-2.7593,-2.796,-2.8184,-2.8291,-2.8301,-2.8301,-2.8301,-2.8301,-2.8301,-2.8301,-2.8301,-2.8354,-2.8479,-2.878,-2.878,-2.8827,-2.8777,-2.8423,-2.811,-2.7903,-2.7655,-2.7434,-2.7462,-2.7668,-2.7998,-2.829,-2.8617,-2.8896,-2.9035,-2.9231,-2.9416,-2.9691,-2.9966,-3.0239,-3.0408,-3.0668,-3.0892,-3.1083,-3.1217,-3.1395,-3.1617,-3.1717,-3.1761,-3.1937,-3.2157,-3.2376,-3.268,-3.2939,-3.2995,-3.3081,-3.3124,-3.3124,-3.3124,-3.3124,-3.3124,-3.3124,-3.3124,-3.3124,-3.3124,-3.3124,-3.3124,-3.3124,-3.3124,-3.3124,-3.3124,-3.3124,-3.3124,-3.3124,-3.3124,-3.3124,-3.321,-3.3356,-3.3641,-3.3882,-3.4176,-3.4356,-2.5733,-2.6039,-2.6579,-2.6882,-2.7081,-2.7081,-2.7081,-2.7081,-2.7081,-2.7081,-2.7125,-2.7539,-2.7891,-2.8208,-2.8567,-2.8806,-2.8984,-2.8984,-2.8984,-2.8984,-2.8984,-2.8984,-2.8984,-2.892,-2.8865,-2.8673,-2.8599,-2.8407,-2.804,-2.8012,-2.7811,-2.7737,-2.7691,-2.7517,-2.7196,-2.7013,-2.6893,-2.7073,-2.726,-2.753,-2.7906,-2.813,-2.8301,-2.8301,-2.8301,-2.8301,-2.8301,-2.8301,-2.8301,-2.8344,-2.8451,-2.8622,-2.8717,-2.8642,-2.8605,-2.8507,-2.803,-2.7821,-2.7593,-2.7423,-2.733,-2.7357,-2.7584,-2.7857,-2.8149,-2.843,-2.8664,-2.885,-2.9035,-2.922,-2.9312,-2.9703,-3.0023,-3.0193,-3.0408,-3.0634,-3.0847,-3.1038,-3.1184,-3.1407,-3.1484,-3.1528,-3.1761,-3.1937,-3.2213,-3.2475,-3.268,-3.2896,-3.2995,-3.3124,-3.3124,-3.3124,-3.3124,-3.3124,-3.3124,-3.3124,-3.3124,-3.3124,-3.3124,-3.3124,-3.3124,-3.3124,-3.3124,-3.3124,-3.3124,-3.3124,-3.3124,-3.3124,-3.3124,-3.3167,-3.3454,-3.3768,-3.4021,-3.4272,-3.4314,-2.5488,-2.5672,-2.6092,-2.6518,-2.6952,-2.7073,-2.7081,-2.7081,-2.7081,-2.7081,-2.7133,-2.7409,-2.7702,-2.802,-2.8328,-2.8696,-2.8925,-2.8984,-2.8984,-2.8984,-2.8984,-2.892,-2.8847,-2.8737,-2.8563,-2.8297,-2.8168,-2.7994,-2.76,-2.7591,-2.737,-2.7141,-2.7004,-2.6995,-2.693,-2.6811,-2.6691,-2.689,-2.7269,-2.7485,-2.7745,-2.813,-2.8291,-2.8301,-2.8301,-2.8301,-2.8301,-2.8301,-2.8301,-2.8349,-2.841,-2.8476,-2.8518,-2.8452,-2.8266,-2.7984,-2.7769,-2.7572,-2.7413,-2.732,-2.732,-2.7357,-2.7489,-2.7762,-2.7998,-2.8233,-2.8524,-2.8803,-2.8943,-2.9035,-2.9082,-2.9416,-2.9748,-2.9966,-3.0148,-3.0375,-3.0634,-3.0814,-3.0994,-3.1184,-3.1273,-3.1395,-3.1528,-3.1761,-3.2069,-3.2344,-3.2649,-3.281,-3.2896,-3.2995,-3.3124,-3.3124,-3.3124,-3.3124,-3.3124,-3.3124,-3.3124,-3.3124,-3.3124,-3.3124,-3.3124,-3.3124,-3.3124,-3.3124,-3.3124,-3.3124,-3.3124,-3.3124,-3.3124,-3.3124,-3.3441,-3.381,-3.4063,-3.423,-3.4356,-2.5304,-2.5602,-2.561,-2.6031,-2.664,-2.6952,-2.7073,-2.7081,-2.7081,-2.7081,-2.7133,-2.7349,-2.765,-2.802,-2.8328,-2.8627,-2.8897,-2.8938,-2.8911,-2.8893,-2.8755,-2.8673,-2.8517,-2.8352,-2.8187,-2.7932,-2.7746,-2.7581,-2.7187,-2.7187,-2.6958,-2.6774,-2.671,-2.6683,-2.6619,-2.66,-2.6646,-2.6691,-2.7116,-2.7377,-2.7593,-2.8023,-2.8237,-2.8301,-2.8301,-2.8301,-2.8301,-2.8301,-2.8262,-2.8251,-2.8226,-2.8259,-2.8328,-2.7974,-2.7785,-2.7834,-2.751,-2.7372,-2.732,-2.732,-2.732,-2.732,-2.7441,-2.7668,-2.7951,-2.8233,-2.843,-2.8664,-2.8803,-2.8943,-2.9035,-2.9185,-2.9462,-2.9691,-2.9874,-3.0114,-3.0375,-3.0578,-3.0724,-3.0904,-3.1128,-3.1306,-3.1395,-3.1572,-3.1893,-3.2201,-3.255,-3.2692,-3.2723,-3.2853,-3.2982,-3.3038,-3.3038,-3.3124,-3.3124,-3.3124,-3.3124,-3.3124,-3.3124,-3.3124,-3.3124,-3.3124,-3.3124,-3.3124,-3.3124,-3.3124,-3.3124,-3.3124,-3.3124,-3.3167,-3.3441,-3.3768,-3.4021,-3.4243,-3.4356,-2.5173,-2.5296,-2.5488,-2.5847,-2.6266,-2.6631,-2.6882,-2.7073,-2.7081,-2.7081,-2.7133,-2.7185,-2.7539,-2.7908,-2.8104,-2.8385,-2.8852,-2.8645,-2.859,-2.8572,-2.837,-2.8198,-2.8061,-2.7939,-2.7756,-2.7537,-2.7343,-2.7178,-2.6784,-2.683,-2.6765,-2.6609,-2.6591,-2.6591,-2.6591,-2.6591,-2.6591,-2.6691,-2.7062,-2.7431,-2.7485,-2.797,-2.8301,-2.8301,-2.8301,-2.8301,-2.8281,-2.8281,-2.8188,-2.815,-2.8125,-2.8135,-2.8016,-2.7623,-2.7644,-2.7593,-2.733,-2.733,-2.732,-2.732,-2.732,-2.7309,-2.7357,-2.7536,-2.7726,-2.8008,-2.8243,-2.8524,-2.8664,-2.8803,-2.8896,-2.9035,-2.9266,-2.9359,-2.96,-2.9886,-3.0102,-3.0273,-3.0397,-3.0623,-3.0847,-3.1071,-3.1261,-3.1439,-3.1717,-3.1893,-3.2157,-3.2388,-3.2475,-3.2636,-3.281,-3.2896,-3.2952,-3.3038,-3.3124,-3.3081,-3.3081,-3.3124,-3.3124,-3.3124,-3.3124,-3.3124,-3.3124,-3.3124,-3.3124,-3.3124,-3.3124,-3.3124,-3.3124,-3.3197,-3.3484,-3.3725,-3.3979,-3.4189,-3.4356,-2.498,-2.5111,-2.5357,-2.5594,-2.5961,-2.6396,-2.6761,-2.7081,-2.7081,-2.7081,-2.7047,-2.6944,-2.7159,-2.7533,-2.7683,-2.7857,-2.8359,-2.8324,-2.8168,-2.8141,-2.7978,-2.7794,-2.7684,-2.7583,-2.7325,-2.7077,-2.6958,-2.682,-2.6637,-2.66,-2.6591,-2.66,-2.6591,-2.6591,-2.6591,-2.6591,-2.6691,-2.6845,-2.7215,-2.7485,-2.7691,-2.8023,-2.8291,-2.8301,-2.8301,-2.8301,-2.8252,-2.8178,-2.8045,-2.8021,-2.7931,-2.7895,-2.7637,-2.7554,-2.7572,-2.7392,-2.732,-2.732,-2.732,-2.732,-2.732,-2.732,-2.732,-2.7404,-2.7584,-2.7773,-2.8066,-2.8348,-2.8524,-2.871,-2.8803,-2.8943,-2.9035,-2.9174,-2.9324,-2.9611,-2.9886,-3.0045,-3.017,-3.0352,-3.0623,-3.0892,-3.1128,-3.1306,-3.1528,-3.1673,-3.1761,-3.1994,-3.2213,-3.2419,-3.2581,-3.268,-3.2766,-3.2853,-3.2982,-3.3038,-3.3081,-3.3124,-3.3081,-3.3081,-3.3124,-3.3124,-3.3124,-3.3124,-3.3124,-3.3124,-3.3124,-3.3124,-3.3124,-3.321,-3.3368,-3.3641,-3.3894,-3.4147,-3.4356,-2.4756,-2.5018,-2.5071,-2.5232,-2.5676,-2.6211,-2.6668,-2.7013,-2.7013,-2.6996,-2.6979,-2.6593,-2.6719,-2.6953,-2.6955,-2.7146,-2.7465,-2.7696,-2.7756,-2.7767,-2.7572,-2.7454,-2.7298,-2.7141,-2.6976,-2.6747,-2.6637,-2.6701,-2.6591,-2.6591,-2.6591,-2.6591,-2.6591,-2.6591,-2.6591,-2.6636,-2.6736,-2.6944,-2.7206,-2.753,-2.7799,-2.813,-2.8237,-2.8281,-2.8223,-2.8174,-2.8119,-2.7904,-2.7845,-2.7706,-2.7502,-2.742,-2.739,-2.7404,-2.7345,-2.732,-2.732,-2.732,-2.732,-2.732,-2.732,-2.732,-2.732,-2.7404,-2.7547,-2.7631,-2.7925,-2.8207,-2.843,-2.8571,-2.8757,-2.885,-2.8885,-2.8989,-2.9082,-2.937,-2.9703,-2.9874,-3.0,-3.0182,-3.0487,-3.0724,-3.0904,-3.1128,-3.1318,-3.1407,-3.1496,-3.1673,-3.1893,-3.2213,-3.2332,-3.2376,-3.2506,-3.2667,-3.2766,-3.2853,-3.2939,-3.2952,-3.2995,-3.2995,-3.3038,-3.3124,-3.3124,-3.3124,-3.3124,-3.3124,-3.3124,-3.3124,-3.3124,-3.3197,-3.3326,-3.3513,-3.3797,-3.4105,-3.4314,-2.393,-2.405,-2.4297,-2.4595,-2.496,-2.5561,-2.5965,-2.6209,-2.6268,-2.6268,-2.6201,-2.6157,-2.6263,-2.6586,-2.6787,-2.7022,-2.7191,-2.7339,-2.738,-2.7279,-2.7141,-2.6921,-2.6811,-2.6784,-2.6683,-2.6637,-2.6591,-2.6591,-2.6591,-2.6591,-2.6591,-2.6591,-2.6591,-2.6591,-2.6591,-2.6646,-2.6791,-2.6989,-2.726,-2.7584,-2.7906,-2.8184,-2.8228,-2.8213,-2.8008,-2.793,-2.7806,-2.7619,-2.7487,-2.7302,-2.7371,-2.7403,-2.7342,-2.7334,-2.732,-2.732,-2.732,-2.732,-2.732,-2.732,-2.732,-2.732,-2.732,-2.7309,-2.7404,-2.7547,-2.7773,-2.8019,-2.8254,-2.843,-2.8664,-2.8757,-2.885,-2.8896,-2.8989,-2.9174,-2.9462,-2.96,-2.9726,-3.0057,-3.0318,-3.0487,-3.0724,-3.0916,-3.1095,-3.1139,-3.1229,-3.1407,-3.1629,-3.1893,-3.2069,-3.2157,-3.23,-3.2463,-3.2506,-3.2562,-3.268,-3.2766,-3.2822,-3.2909,-3.2995,-3.3038,-3.3081,-3.3124,-3.3124,-3.3124,-3.3124,-3.3124,-3.3124,-3.3154,-3.327,-3.3471,-3.367,-3.3979,-3.4243,-2.3397,-2.3626,-2.3819,-2.4101,-2.4397,-2.4854,-2.5192,-2.5337,-2.5682,-2.5934,-2.5867,-2.578,-2.5818,-2.6013,-2.6271,-2.6457,-2.6599,-2.6827,-2.694,-2.6875,-2.671,-2.6664,-2.66,-2.6591,-2.66,-2.6591,-2.6591,-2.6591,-2.6591,-2.6591,-2.6591,-2.6591,-2.6591,-2.6591,-2.6636,-2.6745,-2.6899,-2.7107,-2.7377,-2.7647,-2.796,-2.8155,-2.816,-2.8008,-2.7734,-2.7598,-2.7425,-2.7268,-2.7112,-2.7071,-2.7266,-2.7283,-2.7235,-2.732,-2.732,-2.732,-2.732,-2.732,-2.732,-2.732,-2.732,-2.732,-2.732,-2.7309,-2.7347,-2.7441,-2.7584,-2.7831,-2.8055,-2.8337,-2.8524,-2.871,-2.8757,-2.8803,-2.8896,-2.9035,-2.9128,-2.9255,-2.9542,-2.9874,-3.0091,-3.0261,-3.0499,-3.0736,-3.0883,-3.0916,-3.1005,-3.1139,-3.1362,-3.1685,-3.1805,-3.1893,-3.2069,-3.2245,-3.2257,-3.23,-3.2431,-3.255,-3.2562,-3.2692,-3.2865,-3.2952,-3.2952,-3.3038,-3.3124,-3.3124,-3.3124,-3.3124,-3.3124,-3.3154,-3.3197,-3.3313,-3.3556,-3.3894,-3.4118,-2.2957,-2.3407,-2.3489,-2.3644,-2.3941,-2.4196,-2.4364,-2.4468,-2.5294,-2.5774,-2.568,-2.5472,-2.5391,-2.5453,-2.5646,-2.5792,-2.6095,-2.6372,-2.6637,-2.66,-2.6619,-2.6591,-2.6591,-2.6591,-2.6591,-2.6591,-2.6591,-2.6591,-2.6591,-2.6591,-2.6591,-2.6591,-2.6591,-2.6591,-2.6636,-2.6836,-2.7006,-2.71,-2.7324,-2.7538,-2.8014,-2.8164,-2.8047,-2.7676,-2.7532,-2.7386,-2.7045,-2.6852,-2.6784,-2.6949,-2.7089,-2.7123,-2.7235,-2.732,-2.732,-2.732,-2.732,-2.732,-2.732,-2.732,-2.732,-2.732,-2.732,-2.732,-2.7309,-2.7357,-2.7499,-2.7689,-2.7914,-2.8196,-2.8384,-2.8581,-2.8675,-2.8757,-2.885,-2.8943,-2.8989,-2.9128,-2.9301,-2.9588,-2.9772,-2.9988,-3.0182,-3.0432,-3.051,-3.0589,-3.0769,-3.0916,-3.1095,-3.1362,-3.154,-3.1617,-3.1837,-3.1981,-3.2025,-3.2125,-3.2257,-3.2344,-3.2344,-3.2475,-3.2649,-3.2736,-3.2822,-3.2909,-3.3038,-3.3081,-3.3124,-3.3124,-3.3124,-3.3124,-3.3154,-3.3197,-3.3441,-3.3738,-3.3992,-2.2015,-2.2188,-2.2639,-2.2985,-2.3262,-2.3594,-2.3843,-2.4041,-2.4536,-2.4896,-2.5022,-2.5018,-2.4975,-2.5014,-2.5261,-2.545,-2.5798,-2.6081,-2.6354,-2.6527,-2.6591,-2.6591,-2.6591,-2.6591,-2.6591,-2.6591,-2.6591,-2.6591,-2.6591,-2.6591,-2.6591,-2.6591,-2.6582,-2.6582,-2.6572,-2.6825,-2.6992,-2.6943,-2.717,-2.7353,-2.7692,-2.7734,-2.7617,-2.7217,-2.6953,-2.689,-2.6655,-2.6674,-2.6728,-2.6896,-2.7143,-2.7225,-2.7309,-2.7309,-2.732,-2.732,-2.732,-2.732,-2.732,-2.732,-2.732,-2.732,-2.732,-2.732,-2.732,-2.732,-2.7404,-2.7547,-2.7726,-2.8008,-2.8254,-2.8395,-2.8581,-2.8675,-2.8803,-2.885,-2.8896,-2.9035,-2.9163,-2.9301,-2.9497,-2.968,-2.992,-3.0057,-3.0148,-3.0318,-3.0532,-3.0713,-3.0769,-3.096,-3.1184,-3.135,-3.1617,-3.1749,-3.1805,-3.1893,-3.2038,-3.2081,-3.2113,-3.2245,-3.2431,-3.2562,-3.268,-3.281,-3.2896,-3.2995,-3.3081,-3.3124,-3.3124,-3.3124,-3.3124,-3.3154,-3.3185,-3.3441,-3.3738,-2.1554,-2.1782,-2.2351,-2.274,-2.3022,-2.336,-2.3641,-2.3921,-2.4264,-2.4543,-2.4765,-2.4821,-2.4821,-2.4876,-2.5072,-2.534,-2.5679,-2.6017,-2.63,-2.6527,-2.6591,-2.6591,-2.6591,-2.6591,-2.6591,-2.6591,-2.6591,-2.6591,-2.6591,-2.6591,-2.6591,-2.6564,-2.6564,-2.6472,-2.6416,-2.6647,-2.6789,-2.656,-2.6897,-2.7069,-2.7207,-2.7207,-2.7139,-2.6748,-2.6573,-2.6438,-2.6438,-2.6462,-2.6663,-2.69,-2.7129,-2.7272,-2.7309,-2.732,-2.732,-2.732,-2.732,-2.732,-2.732,-2.732,-2.732,-2.732,-2.732,-2.732,-2.732,-2.732,-2.7309,-2.7441,-2.7584,-2.782,-2.8008,-2.8149,-2.8395,-2.8535,-2.871,-2.885,-2.885,-2.8896,-2.9035,-2.9174,-2.9312,-2.9405,-2.9646,-2.992,-3.0011,-3.0057,-3.0318,-3.0397,-3.0499,-3.0634,-3.0814,-3.1038,-3.1306,-3.1484,-3.1528,-3.1629,-3.1805,-3.1849,-3.1849,-3.2025,-3.2157,-3.2419,-3.2593,-3.268,-3.281,-3.2952,-3.2995,-3.3038,-3.3081,-3.3124,-3.3124,-3.3124,-3.3154,-3.3185,-3.3441,-2.1375,-2.1782,-2.2286,-2.2683,-2.2958,-2.3304,-2.3585,-2.3865,-2.4209,-2.4479,-2.4701,-2.4765,-2.4821,-2.4923,-2.5026,-2.5348,-2.5624,-2.5844,-2.619,-2.6473,-2.6591,-2.6591,-2.6591,-2.6591,-2.6591,-2.6591,-2.6591,-2.6591,-2.6591,-2.6499,-2.648,-2.6545,-2.6443,-2.6306,-2.6208,-2.6315,-2.6522,-2.6313,-2.6458,-2.6588,-2.666,-2.668,-2.6602,-2.6455,-2.6319,-2.6281,-2.6278,-2.641,-2.6699,-2.6938,-2.7177,-2.7272,-2.732,-2.732,-2.732,-2.732,-2.732,-2.732,-2.732,-2.732,-2.732,-2.732,-2.732,-2.732,-2.732,-2.7309,-2.7309,-2.7347,-2.7489,-2.7631,-2.7773,-2.7914,-2.8149,-2.8441,-2.8628,-2.8803,-2.8803,-2.8803,-2.8943,-2.9082,-2.9128,-2.922,-2.9416,-2.9646,-2.9783,-2.9886,-2.9977,-3.0102,-3.0227,-3.0352,-3.0532,-3.0713,-3.0892,-3.1083,-3.1217,-3.1362,-3.1552,-3.1629,-3.1617,-3.1749,-3.1925,-3.2157,-3.2376,-3.2506,-3.2636,-3.2779,-3.2909,-3.2939,-3.2995,-3.3081,-3.3124,-3.3124,-3.3124,-3.3154,-3.3185,-2.1139,-2.1725,-2.2059,-2.24,-2.2683,-2.2965,-2.3247,-2.3585,-2.3865,-2.42,-2.4487,-2.471,-2.4821,-2.4821,-2.4821,-2.509,-2.5395,-2.5679,-2.5953,-2.6181,-2.6473,-2.6582,-2.6554,-2.6499,-2.6573,-2.6536,-2.649,-2.6554,-2.6334,-2.6214,-2.6131,-2.6131,-2.5791,-2.5663,-2.5703,-2.5876,-2.6106,-2.5955,-2.6095,-2.6318,-2.6143,-2.6152,-2.6191,-2.6094,-2.6035,-2.6228,-2.641,-2.6699,-2.6938,-2.7177,-2.7262,-2.732,-2.732,-2.732,-2.732,-2.732,-2.732,-2.732,-2.732,-2.732,-2.732,-2.732,-2.732,-2.732,-2.732,-2.732,-2.7309,-2.7309,-2.7404,-2.7452,-2.7594,-2.7678,-2.7867,-2.8301,-2.8628,-2.871,-2.8803,-2.8803,-2.885,-2.8896,-2.8896,-2.9035,-2.9139,-2.9324,-2.9405,-2.9554,-2.9783,-2.992,-2.9954,-3.008,-3.025,-3.0397,-3.0589,-3.0826,-3.1017,-3.1107,-3.1241,-3.1318,-3.1439,-3.1572,-3.1717,-3.1937,-3.2113,-3.2288,-3.2376,-3.2519,-3.2649,-3.2766,-3.2896,-3.2995,-3.3081,-3.3124,-3.3124,-3.3124,-3.3154]}]]